[[{"header":{"parameterUnit":"m.s-1","parameterCategory":1,"la1":31.0,"la2":29.5877,"lo1":-88.7671,"lo2":-86.6584,"dy":0.0162,"dx":0.0185,"nx":115,"ny":88,"refTime":"2024-02-24T06:00:00:Z","depth":0,"parameterNumber":2,"parameterNumberName":"U-component_of_WINDS"},"data":[0.0,0.0,0.0,0.0,0.0,0.0,0.0,0.0,0.0,0.0,0.0,0.0,0.0,0.0,0.0,0.0,0.0,0.0,0.0,0.0,0.0,0.0,0.0,0.0,0.0,0.0,0.0,0.0,0.0,0.0,0.0,0.0,0.0,0.0,0.0,0.0,0.0,0.0,0.0,0.0,0.0,0.0,0.0,0.0,0.0,0.0,0.0,0.0,0.0,0.0,0.0,0.0,0.0,0.0,0.0,0.0,0.0,0.0,0.0,0.0,0.0,0.0,0.0,0.0,0.0,0.0,0.0,0.0,0.0,0.0,0.0,0.0,0.0,0.0,0.0,0.0,0.0,0.0,0.0,0.0,0.0,0.0,0.0,0.0,0.0,0.0,0.0,0.0,0.0,0.0,0.0,0.0,0.0,0.0,0.0,0.0,0.0,0.0,0.0,0.0,0.0,0.0,0.0,0.0,0.0,0.0,0.0,0.0,0.0,0.0,0.0,0.0,0.0,0.0,0.0,0.0,0.0,0.0,0.0,0.0,0.0,0.0,0.0,0.0,0.0,0.0,0.0,0.0,0.0,0.0,0.0,0.0,0.0,0.0,0.0,0.0,0.0,0.0,0.0,0.0,0.0,0.0,0.0,0.0,0.0,0.0,0.0,0.0,0.0,0.0,0.0,0.0,0.0,0.0,0.0,0.0,0.0,0.0,0.0,0.0,0.0,0.0,0.0,0.0,0.0,0.0,0.0,0.0,0.0,0.0,0.0,0.0,0.0,0.0,0.0,0.0,0.0,0.0,0.0,0.0,0.0,0.0,0.0,0.0,0.0,0.0,0.0,0.0,0.0,0.0,0.0,0.0,0.0,0.0,0.0,0.0,0.0,0.0,0.0,0.0,0.0,0.0,0.0,0.0,0.0,0.0,0.0,0.0,0.0,0.0,0.0,0.0,0.0,0.0,0.0,0.0,0.0,0.0,0.0,0.0,0.0,0.0,0.0,0.0,0.0,0.0,0.0,0.0,0.0,0.0,0.0,0.0,0.0,0.0,0.0,0.0,0.0,0.0,0.0,0.0,0.0,0.0,0.0,0.0,0.0,0.0,0.0,0.0,0.0,0.0,0.0,0.0,0.0,0.0,0.0,0.0,0.0,0.0,0.0,0.0,0.0,0.0,0.0,0.0,0.0,0.0,0.0,0.0,0.0,0.0,0.0,0.0,0.0,0.0,0.0,0.0,0.0,0.0,0.0,0.0,0.0,0.0,0.0,0.0,0.0,0.0,0.0,0.0,0.0,0.0,0.0,0.0,0.0,0.0,0.0,0.0,0.0,0.0,0.0,0.0,0.0,0.0,0.0,0.0,0.0,0.0,0.0,0.0,0.0,0.0,0.0,0.0,0.0,0.0,0.0,0.0,0.0,0.0,0.0,0.0,0.0,0.0,0.0,0.0,0.0,0.0,0.0,0.0,0.0,0.0,0.0,0.0,0.0,0.0,0.0,0.0,0.0,0.0,0.0,0.0,0.0,0.0,0.0,0.0,0.0,0.0,0.0,0.0,0.0,0.0,0.0,0.0,0.0,0.0,0.0,0.0,0.0,0.0,0.0,0.0,0.0,0.0,0.0,0.0,0.0,0.0,0.0,0.0,0.0,0.0,0.0,0.0,0.0,0.0,0.0,0.0,0.0,0.0,0.0,0.0,0.0,0.0,0.0,0.0,0.0,0.0,0.0,0.0,0.0,0.0,0.0,0.0,0.0,0.0,0.0,0.0,0.0,0.0,0.0,0.0,0.0,0.0,0.0,0.0,0.0,0.0,0.0,0.0,0.0,0.0,0.0,0.0,0.0,0.0,0.0,0.0,0.0,0.0,0.0,0.0,0.0,0.0,0.0,0.0,0.0,0.0,0.0,0.0,0.0,0.0,0.0,0.0,0.0,0.0,0.0,0.0,0.0,0.0,0.0,0.0,0.0,0.0,0.0,0.0,0.0,0.0,0.0,0.0,0.0,0.0,0.0,0.0,0.0,0.0,0.0,0.0,0.0,0.0,0.0,0.0,0.0,0.0,0.0,0.0,0.0,0.0,0.0,0.0,0.0,0.0,0.0,0.0,0.0,0.0,0.0,0.0,0.0,0.0,0.0,0.0,0.0,0.0,0.0,0.0,0.0,0.0,0.0,0.0,0.0,0.0,0.0,0.0,0.0,0.0,0.0,0.0,0.0,0.0,0.0,0.0,0.0,0.0,0.0,0.0,0.0,0.0,0.0,0.0,0.0,0.0,0.0,0.0,0.0,0.0,0.0,0.0,0.0,0.0,0.0,0.0,0.0,0.0,0.0,0.0,0.0,0.0,0.0,0.0,0.0,0.0,0.0,0.0,0.0,0.0,0.0,0.0,0.0,0.0,0.0,0.0,0.0,0.0,0.0,0.0,0.0,0.0,0.0,0.0,0.0,0.0,0.0,0.0,0.0,0.0,0.0,0.0,0.0,0.0,0.0,0.0,0.0,0.0,0.0,0.0,0.0,0.0,0.0,0.0,0.0,0.0,0.0,0.0,0.0,0.0,0.0,0.0,0.0,0.0,0.0,0.0,0.0,0.0,0.0,0.0,0.0,0.0,0.0,0.0,0.0,0.0,0.0,0.0,0.0,0.0,0.0,0.0,0.0,0.0,0.0,0.0,0.0,0.0,0.0,0.0,0.0,0.0,0.0,0.0,0.0,0.0,0.0,0.0,0.0,0.0,0.0,0.0,0.0,0.0,0.0,0.0,0.0,0.0,0.0,0.0,0.0,0.0,0.0,0.0,0.0,0.0,0.0,0.0,0.0,0.0,0.0,0.0,0.0,0.0,0.0,0.0,0.0,0.0,0.0,0.0,0.0,0.0,0.0,0.0,0.0,0.0,0.0,0.0,0.0,0.0,0.0,0.0,0.0,0.0,0.0,0.0,0.0,0.0,0.0,0.0,0.0,0.0,0.0,0.0,0.0,0.0,0.0,0.0,0.0,0.0,0.0,0.0,0.0,0.0,0.0,0.0,0.0,0.0,0.0,0.0,0.0,0.0,0.0,0.0,0.0,0.0,0.0,0.0,0.0,0.0,0.0,0.0,0.0,0.0,0.0,0.0,0.0,0.0,0.0,0.0,0.0,0.0,0.0,0.0,0.0,0.0,0.0,0.0,0.0,0.0,0.0,0.0,0.0,0.0,0.0,0.0,0.0,0.0,0.0,0.0,0.0,0.0,0.0,0.0,0.0,0.0,0.0,0.0,0.0,0.0,0.0,0.0,0.0,0.0,0.0,0.0,0.0,0.0,0.0,0.0,0.0,0.0,0.0,0.0,0.0,0.0,0.0,0.0,0.0,0.0,0.0,0.0,0.0,0.0,0.0,0.0,0.0,0.0,0.0,0.0,0.0,0.0,0.0,0.0,0.0,0.0,0.0,0.0,0.0,0.0,0.0,0.0,0.0,0.0,0.0,0.0,0.0,0.0,0.0,0.0,0.0,0.0,0.0,0.0,0.0,0.0,0.0,0.0,0.0,0.0,0.0,0.0,0.0,0.0,0.0,0.0,0.0,0.0,0.0,0.0,0.0,0.0,0.0,0.0,0.0,0.0,0.0,0.0,0.0,0.0,0.0,0.0,0.0,0.0,0.0,0.0,0.0,0.0,0.0,0.0,0.0,0.0,0.0,0.0,0.0,0.0,0.0,0.0,0.0,0.0,0.0,0.0,0.0,0.0,0.0,0.0,0.0,0.0,0.0,0.0,0.0,0.0,0.0,0.0,0.0,0.0,0.0,0.0,0.0,0.0,0.0,0.0,0.0,0.0,0.0,0.0,0.0,0.0,0.0,0.0,0.0,0.0,0.0,0.0,0.0,0.0,0.0,0.0,0.0,0.0,0.0,0.0,0.0,0.0,0.0,0.0,0.0,0.0,0.0,0.0,0.0,0.0,0.0,0.0,0.0,0.0,0.0,0.0,0.0,0.0,0.0,0.0,0.0,0.0,0.0,0.0,0.0,0.0,0.0,0.0,0.0,0.0,0.0,0.0,0.0,0.0,0.0,0.0,0.0,0.0,0.0,0.0,0.0,0.0,0.0,0.0,0.0,0.0,0.0,0.0,0.0,0.0,0.0,0.0,0.0,0.0,0.0,0.0,0.0,0.0,0.0,0.0,0.0,0.0,0.0,0.0,0.0,0.0,0.0,0.0,0.0,0.0,0.0,0.0,0.0,0.0,0.0,0.0,0.0,0.0,0.0,0.0,0.0,0.0,0.0,0.0,0.0,0.0,0.0,0.0,0.0,0.0,-5.0271,0.0,0.0,0.0,0.0,0.0,0.0,0.0,0.0,0.0,0.0,0.0,0.0,0.0,0.0,0.0,0.0,0.0,0.0,0.0,0.0,0.0,0.0,0.0,0.0,0.0,0.0,0.0,0.0,0.0,0.0,0.0,0.0,0.0,0.0,0.0,0.0,0.0,0.0,0.0,0.0,0.0,0.0,0.0,0.0,0.0,0.0,0.0,0.0,0.0,0.0,0.0,0.0,0.0,0.0,0.0,0.0,0.0,0.0,0.0,0.0,0.0,0.0,0.0,0.0,0.0,0.0,0.0,0.0,0.0,0.0,0.0,0.0,0.0,0.0,0.0,0.0,0.0,0.0,0.0,0.0,0.0,0.0,0.0,0.0,0.0,0.0,0.0,0.0,0.0,0.0,0.0,0.0,0.0,0.0,0.0,0.0,0.0,0.0,0.0,0.0,0.0,0.0,0.0,0.0,0.0,0.0,0.0,0.0,0.0,0.0,-5.0875,-5.0685,-5.0342,-5.0175,-5.0283,0.0,0.0,0.0,0.0,0.0,0.0,0.0,0.0,0.0,0.0,0.0,0.0,0.0,0.0,0.0,0.0,0.0,0.0,0.0,0.0,0.0,0.0,0.0,0.0,0.0,0.0,0.0,0.0,0.0,0.0,0.0,0.0,0.0,0.0,0.0,0.0,0.0,0.0,0.0,0.0,0.0,0.0,0.0,0.0,0.0,0.0,0.0,0.0,0.0,0.0,0.0,0.0,0.0,0.0,0.0,0.0,0.0,0.0,0.0,0.0,0.0,0.0,0.0,0.0,0.0,0.0,0.0,0.0,0.0,0.0,0.0,0.0,0.0,0.0,0.0,0.0,0.0,0.0,0.0,0.0,0.0,0.0,0.0,0.0,0.0,0.0,0.0,0.0,0.0,0.0,0.0,0.0,0.0,0.0,0.0,0.0,0.0,0.0,0.0,0.0,0.0,0.0,0.0,0.0,0.0,0.0,0.0,0.0,0.0,0.0,0.0,0.0,-5.0063,-5.0151,-5.0309,0.0,0.0,0.0,0.0,0.0,0.0,0.0,0.0,0.0,0.0,0.0,0.0,0.0,0.0,0.0,0.0,0.0,0.0,0.0,0.0,0.0,0.0,0.0,0.0,0.0,0.0,0.0,0.0,0.0,0.0,0.0,0.0,0.0,0.0,0.0,0.0,0.0,0.0,0.0,0.0,0.0,0.0,0.0,0.0,0.0,0.0,0.0,0.0,0.0,0.0,0.0,0.0,0.0,0.0,0.0,0.0,0.0,0.0,0.0,0.0,0.0,0.0,0.0,0.0,0.0,0.0,0.0,0.0,0.0,0.0,0.0,0.0,0.0,0.0,0.0,0.0,0.0,0.0,0.0,0.0,0.0,0.0,0.0,0.0,0.0,0.0,0.0,0.0,0.0,0.0,0.0,0.0,0.0,0.0,0.0,0.0,0.0,0.0,0.0,0.0,0.0,0.0,0.0,0.0,0.0,0.0,0.0,0.0,0.0,0.0,-4.9854,-4.9906,-5.0025,0.0,-5.0309,0.0,0.0,0.0,0.0,0.0,0.0,0.0,0.0,0.0,0.0,0.0,0.0,0.0,0.0,0.0,0.0,0.0,0.0,0.0,0.0,0.0,0.0,0.0,0.0,0.0,0.0,0.0,0.0,0.0,0.0,0.0,0.0,0.0,0.0,0.0,0.0,0.0,0.0,0.0,0.0,0.0,0.0,0.0,0.0,0.0,0.0,0.0,0.0,0.0,0.0,0.0,0.0,0.0,0.0,0.0,0.0,0.0,0.0,0.0,0.0,0.0,0.0,0.0,0.0,0.0,0.0,0.0,0.0,0.0,0.0,0.0,0.0,0.0,0.0,0.0,0.0,0.0,0.0,0.0,0.0,0.0,0.0,0.0,0.0,0.0,0.0,0.0,0.0,0.0,0.0,0.0,0.0,0.0,0.0,0.0,0.0,0.0,0.0,0.0,0.0,0.0,0.0,0.0,0.0,0.0,0.0,0.0,0.0,0.0,0.0,-4.9778,-4.9893,-5.0063,-5.0188,0.0,0.0,0.0,0.0,0.0,0.0,0.0,0.0,0.0,0.0,0.0,0.0,0.0,0.0,0.0,0.0,0.0,0.0,0.0,0.0,0.0,0.0,0.0,0.0,0.0,0.0,0.0,0.0,0.0,0.0,0.0,0.0,0.0,0.0,0.0,0.0,0.0,0.0,0.0,0.0,0.0,0.0,0.0,0.0,0.0,0.0,0.0,0.0,0.0,0.0,0.0,0.0,0.0,0.0,0.0,0.0,0.0,0.0,0.0,0.0,0.0,0.0,0.0,0.0,0.0,0.0,0.0,0.0,0.0,0.0,0.0,0.0,0.0,0.0,0.0,0.0,0.0,0.0,0.0,0.0,0.0,0.0,0.0,0.0,0.0,0.0,0.0,0.0,0.0,0.0,0.0,0.0,0.0,0.0,0.0,0.0,0.0,0.0,0.0,0.0,0.0,0.0,0.0,0.0,0.0,0.0,0.0,0.0,0.0,0.0,-4.9559,-4.9792,-4.9933,-5.0089,-5.0123,-4.9977,0.0,0.0,0.0,0.0,0.0,0.0,0.0,0.0,0.0,0.0,0.0,0.0,0.0,0.0,0.0,0.0,0.0,0.0,0.0,0.0,0.0,0.0,0.0,0.0,0.0,0.0,0.0,0.0,0.0,0.0,0.0,0.0,0.0,0.0,0.0,0.0,0.0,0.0,0.0,0.0,0.0,0.0,0.0,0.0,0.0,0.0,0.0,0.0,0.0,0.0,0.0,0.0,0.0,0.0,0.0,0.0,0.0,0.0,0.0,0.0,0.0,0.0,0.0,0.0,0.0,0.0,0.0,0.0,0.0,0.0,0.0,0.0,0.0,0.0,0.0,0.0,0.0,0.0,0.0,0.0,0.0,0.0,0.0,0.0,0.0,0.0,0.0,0.0,0.0,0.0,0.0,0.0,0.0,0.0,0.0,0.0,0.0,0.0,0.0,0.0,0.0,0.0,0.0,0.0,0.0,0.0,0.0,0.0,-4.923,-4.9529,-4.9835,-5.0063,-5.0114,-4.9808,0.0,0.0,0.0,0.0,0.0,0.0,0.0,0.0,0.0,0.0,0.0,0.0,0.0,0.0,0.0,0.0,0.0,0.0,0.0,0.0,0.0,0.0,0.0,0.0,0.0,0.0,0.0,0.0,0.0,0.0,0.0,0.0,0.0,0.0,0.0,0.0,0.0,0.0,0.0,0.0,0.0,0.0,0.0,0.0,0.0,0.0,0.0,0.0,0.0,0.0,0.0,0.0,0.0,0.0,0.0,0.0,0.0,0.0,0.0,0.0,0.0,0.0,0.0,0.0,0.0,0.0,0.0,0.0,0.0,0.0,0.0,0.0,0.0,0.0,0.0,0.0,0.0,0.0,0.0,0.0,0.0,0.0,0.0,0.0,0.0,0.0,0.0,0.0,0.0,0.0,0.0,0.0,0.0,0.0,0.0,0.0,0.0,0.0,0.0,0.0,0.0,0.0,0.0,0.0,0.0,0.0,0.0,0.0,0.0,-4.9214,-4.9529,-4.9783,-5.005,-5.0101,-4.9783,0.0,0.0,0.0,0.0,0.0,0.0,0.0,0.0,0.0,0.0,0.0,0.0,0.0,0.0,0.0,0.0,0.0,0.0,0.0,0.0,0.0,0.0,0.0,0.0,0.0,0.0,0.0,0.0,0.0,0.0,0.0,0.0,0.0,0.0,0.0,0.0,0.0,0.0,0.0,0.0,0.0,0.0,0.0,0.0,0.0,0.0,0.0,0.0,0.0,0.0,0.0,0.0,0.0,0.0,0.0,0.0,0.0,0.0,0.0,0.0,0.0,0.0,0.0,0.0,0.0,0.0,0.0,0.0,0.0,0.0,0.0,0.0,0.0,0.0,0.0,0.0,0.0,0.0,0.0,0.0,0.0,0.0,0.0,0.0,0.0,0.0,0.0,0.0,0.0,0.0,0.0,0.0,0.0,0.0,0.0,0.0,0.0,0.0,0.0,0.0,0.0,0.0,0.0,0.0,0.0,0.0,0.0,0.0,0.0,-4.9241,0.0,-4.9792,-4.9946,-5.0038,-4.9619,0.0,0.0,0.0,0.0,0.0,0.0,0.0,0.0,0.0,0.0,0.0,0.0,0.0,0.0,0.0,0.0,0.0,0.0,0.0,0.0,0.0,0.0,0.0,0.0,0.0,0.0,0.0,0.0,0.0,0.0,0.0,0.0,0.0,0.0,0.0,0.0,0.0,0.0,0.0,0.0,0.0,0.0,0.0,0.0,0.0,0.0,0.0,0.0,0.0,0.0,0.0,0.0,0.0,0.0,0.0,0.0,0.0,0.0,0.0,0.0,0.0,0.0,0.0,0.0,0.0,0.0,0.0,0.0,0.0,0.0,0.0,0.0,0.0,0.0,0.0,0.0,0.0,0.0,0.0,0.0,0.0,0.0,0.0,0.0,0.0,0.0,0.0,0.0,0.0,0.0,0.0,0.0,0.0,0.0,0.0,0.0,0.0,0.0,0.0,0.0,0.0,0.0,0.0,0.0,0.0,0.0,0.0,0.0,-4.9098,-4.9421,-4.9642,-4.9877,-4.9917,-5.0088,-4.9378,0.0,0.0,0.0,0.0,0.0,0.0,0.0,0.0,0.0,0.0,0.0,0.0,0.0,0.0,0.0,0.0,0.0,0.0,0.0,0.0,0.0,0.0,0.0,0.0,0.0,0.0,0.0,0.0,0.0,0.0,0.0,0.0,0.0,0.0,0.0,0.0,0.0,0.0,0.0,0.0,0.0,0.0,0.0,0.0,0.0,0.0,0.0,0.0,0.0,0.0,0.0,0.0,0.0,0.0,0.0,0.0,0.0,0.0,0.0,0.0,0.0,0.0,0.0,0.0,0.0,0.0,0.0,0.0,0.0,0.0,0.0,0.0,0.0,0.0,0.0,0.0,0.0,0.0,0.0,0.0,0.0,0.0,0.0,0.0,0.0,0.0,0.0,0.0,0.0,0.0,0.0,0.0,0.0,0.0,0.0,0.0,0.0,0.0,0.0,0.0,0.0,0.0,0.0,0.0,0.0,0.0,0.0,0.0,0.0,-5.0167,-5.0857,-5.1013,-5.0667,-5.0765,-5.0062,0.0,0.0,0.0,0.0,0.0,0.0,0.0,0.0,0.0,0.0,0.0,0.0,0.0,0.0,0.0,0.0,0.0,0.0,0.0,0.0,0.0,0.0,0.0,0.0,0.0,0.0,0.0,0.0,0.0,0.0,0.0,0.0,0.0,0.0,0.0,0.0,0.0,0.0,0.0,0.0,0.0,0.0,0.0,0.0,0.0,0.0,0.0,0.0,0.0,0.0,0.0,0.0,0.0,0.0,0.0,0.0,0.0,0.0,0.0,0.0,0.0,0.0,0.0,0.0,0.0,0.0,0.0,0.0,0.0,0.0,0.0,0.0,0.0,0.0,0.0,0.0,0.0,0.0,0.0,0.0,0.0,0.0,0.0,0.0,0.0,0.0,0.0,0.0,0.0,0.0,0.0,0.0,0.0,0.0,0.0,0.0,0.0,0.0,0.0,0.0,0.0,0.0,0.0,0.0,0.0,0.0,0.0,0.0,0.0,-5.1703,-5.1869,-5.1748,-5.1322,-5.1182,-5.0513,-4.9315,0.0,0.0,0.0,0.0,0.0,0.0,0.0,0.0,0.0,0.0,0.0,0.0,0.0,0.0,0.0,0.0,0.0,0.0,0.0,0.0,0.0,0.0,0.0,0.0,0.0,0.0,0.0,0.0,0.0,0.0,0.0,0.0,0.0,0.0,0.0,0.0,0.0,0.0,0.0,0.0,0.0,0.0,0.0,0.0,0.0,0.0,0.0,0.0,0.0,0.0,0.0,0.0,0.0,0.0,0.0,0.0,0.0,0.0,0.0,0.0,0.0,0.0,0.0,0.0,0.0,0.0,0.0,0.0,0.0,0.0,0.0,0.0,0.0,0.0,0.0,0.0,0.0,0.0,0.0,0.0,0.0,0.0,0.0,0.0,0.0,0.0,0.0,0.0,0.0,0.0,0.0,0.0,0.0,0.0,0.0,0.0,0.0,0.0,0.0,0.0,0.0,0.0,0.0,0.0,0.0,0.0,0.0,0.0,-5.3923,-5.2799,-5.2236,-5.2118,-5.1624,-5.0913,0.0,0.0,0.0,0.0,0.0,0.0,0.0,0.0,0.0,0.0,0.0,0.0,0.0,0.0,0.0,0.0,0.0,0.0,0.0,0.0,0.0,0.0,0.0,0.0,0.0,0.0,0.0,0.0,0.0,0.0,0.0,0.0,0.0,0.0,0.0,0.0,0.0,0.0,0.0,0.0,0.0,0.0,0.0,0.0,0.0,0.0,0.0,0.0,0.0,0.0,0.0,0.0,0.0,0.0,0.0,0.0,0.0,0.0,0.0,0.0,0.0,0.0,0.0,0.0,0.0,0.0,0.0,0.0,0.0,0.0,0.0,0.0,0.0,0.0,0.0,0.0,0.0,0.0,0.0,0.0,0.0,0.0,0.0,0.0,0.0,0.0,0.0,0.0,0.0,0.0,0.0,0.0,0.0,0.0,0.0,0.0,0.0,0.0,0.0,0.0,0.0,0.0,0.0,0.0,0.0,0.0,0.0,0.0,0.0,-5.5441,-5.5822,-5.5604,-5.4637,-5.3912,-5.2981,0.0,0.0,0.0,0.0,0.0,0.0,0.0,0.0,0.0,0.0,0.0,0.0,0.0,0.0,0.0,0.0,0.0,0.0,0.0,0.0,0.0,0.0,0.0,0.0,0.0,0.0,0.0,0.0,0.0,0.0,0.0,0.0,0.0,0.0,0.0,0.0,0.0,0.0,0.0,0.0,0.0,0.0,0.0,0.0,0.0,0.0,0.0,0.0,0.0,0.0,0.0,0.0,0.0,0.0,0.0,0.0,0.0,0.0,0.0,0.0,0.0,0.0,0.0,0.0,0.0,0.0,0.0,0.0,0.0,0.0,0.0,0.0,0.0,0.0,0.0,0.0,0.0,0.0,0.0,0.0,0.0,0.0,0.0,0.0,0.0,0.0,0.0,0.0,0.0,0.0,0.0,0.0,0.0,0.0,0.0,0.0,0.0,0.0,0.0,0.0,0.0,0.0,0.0,0.0,0.0,0.0,0.0,0.0,-5.5186,-5.6958,-5.8291,-5.8648,-5.7958,-5.5937,-5.4246,0.0,0.0,0.0,0.0,0.0,0.0,0.0,0.0,0.0,0.0,0.0,0.0,0.0,0.0,0.0,0.0,0.0,0.0,0.0,0.0,0.0,0.0,0.0,0.0,0.0,0.0,0.0,0.0,0.0,0.0,0.0,0.0,0.0,0.0,0.0,0.0,0.0,0.0,0.0,0.0,0.0,0.0,0.0,0.0,0.0,0.0,0.0,0.0,0.0,0.0,0.0,0.0,0.0,0.0,0.0,0.0,0.0,0.0,0.0,0.0,0.0,0.0,0.0,0.0,0.0,0.0,0.0,0.0,0.0,0.0,0.0,0.0,0.0,0.0,0.0,0.0,0.0,0.0,0.0,0.0,0.0,0.0,0.0,0.0,0.0,0.0,0.0,0.0,0.0,0.0,0.0,0.0,0.0,0.0,0.0,0.0,0.0,0.0,0.0,0.0,0.0,0.0,0.0,0.0,0.0,0.0,0.0,0.0,-5.6706,-5.8436,-6.0174,-6.1145,-6.1261,-5.7771,-5.5139,0.0,0.0,0.0,0.0,0.0,0.0,0.0,0.0,0.0,0.0,0.0,0.0,0.0,0.0,0.0,0.0,0.0,0.0,0.0,0.0,0.0,0.0,0.0,0.0,0.0,0.0,0.0,0.0,0.0,0.0,0.0,0.0,0.0,0.0,0.0,0.0,0.0,0.0,0.0,0.0,0.0,0.0,0.0,0.0,0.0,0.0,0.0,0.0,0.0,0.0,0.0,0.0,0.0,0.0,0.0,0.0,0.0,0.0,0.0,0.0,0.0,0.0,0.0,0.0,0.0,0.0,0.0,0.0,0.0,0.0,0.0,0.0,0.0,0.0,0.0,0.0,0.0,0.0,0.0,0.0,0.0,0.0,0.0,0.0,0.0,0.0,0.0,0.0,0.0,0.0,0.0,0.0,0.0,0.0,0.0,0.0,0.0,0.0,0.0,0.0,0.0,0.0,0.0,0.0,0.0,0.0,0.0,0.0,-5.772,-6.002,-6.1098,-6.2096,-6.3022,-5.9333,-5.6649,0.0,0.0,0.0,0.0,0.0,0.0,0.0,0.0,0.0,0.0,0.0,0.0,0.0,0.0,0.0,0.0,0.0,0.0,0.0,0.0,0.0,0.0,0.0,0.0,0.0,0.0,0.0,0.0,0.0,0.0,0.0,0.0,0.0,0.0,0.0,0.0,0.0,0.0,0.0,0.0,0.0,0.0,0.0,0.0,0.0,0.0,0.0,0.0,-4.7954,0.0,0.0,0.0,0.0,0.0,0.0,0.0,0.0,0.0,0.0,0.0,0.0,0.0,0.0,0.0,0.0,0.0,0.0,0.0,0.0,0.0,0.0,0.0,0.0,0.0,0.0,0.0,0.0,0.0,0.0,0.0,0.0,0.0,0.0,0.0,0.0,0.0,0.0,0.0,0.0,0.0,0.0,0.0,0.0,0.0,0.0,0.0,0.0,0.0,0.0,0.0,0.0,0.0,0.0,0.0,0.0,0.0,0.0,0.0,-5.8534,-6.1016,-6.191,-6.2865,-6.3789,-6.0577,-5.7788,0.0,0.0,0.0,0.0,0.0,0.0,0.0,0.0,0.0,0.0,0.0,0.0,0.0,0.0,0.0,0.0,0.0,0.0,0.0,0.0,0.0,0.0,0.0,0.0,0.0,0.0,0.0,0.0,0.0,0.0,0.0,0.0,0.0,0.0,0.0,0.0,0.0,0.0,0.0,0.0,0.0,0.0,0.0,0.0,0.0,0.0,0.0,0.0,0.0,0.0,0.0,0.0,0.0,0.0,0.0,0.0,0.0,0.0,0.0,0.0,0.0,0.0,0.0,0.0,0.0,0.0,0.0,0.0,0.0,0.0,0.0,0.0,0.0,0.0,0.0,0.0,0.0,0.0,0.0,0.0,0.0,0.0,0.0,0.0,0.0,0.0,0.0,0.0,0.0,0.0,0.0,0.0,0.0,0.0,0.0,0.0,0.0,0.0,0.0,0.0,0.0,0.0,0.0,0.0,0.0,0.0,0.0,-5.6381,-5.9208,-6.1667,-6.2561,-6.3493,-6.4487,-6.1618,-5.8764,-5.6012,0.0,0.0,0.0,0.0,0.0,0.0,0.0,0.0,0.0,0.0,0.0,0.0,0.0,0.0,0.0,0.0,0.0,0.0,0.0,0.0,0.0,0.0,0.0,0.0,0.0,0.0,0.0,0.0,0.0,0.0,0.0,0.0,0.0,0.0,0.0,0.0,0.0,0.0,-4.5778,-4.6663,0.0,0.0,0.0,0.0,0.0,0.0,0.0,0.0,-4.8937,0.0,0.0,0.0,0.0,0.0,0.0,0.0,0.0,0.0,0.0,0.0,0.0,0.0,0.0,0.0,0.0,0.0,0.0,0.0,0.0,0.0,0.0,0.0,0.0,0.0,0.0,0.0,0.0,0.0,0.0,0.0,0.0,0.0,0.0,0.0,0.0,0.0,0.0,0.0,0.0,0.0,0.0,0.0,0.0,0.0,0.0,0.0,0.0,0.0,0.0,0.0,0.0,0.0,0.0,0.0,0.0,-5.3167,-5.6381,-5.9501,-6.2511,-6.2757,-6.3652,-6.5238,-6.2331,-5.9588,-5.7299,0.0,0.0,0.0,0.0,0.0,0.0,0.0,0.0,0.0,0.0,0.0,0.0,0.0,0.0,0.0,0.0,0.0,0.0,0.0,0.0,0.0,0.0,0.0,0.0,0.0,0.0,0.0,0.0,0.0,0.0,0.0,0.0,0.0,0.0,0.0,0.0,0.0,0.0,0.0,-4.8009,-4.9067,0.0,0.0,0.0,0.0,0.0,0.0,0.0,0.0,-4.9727,0.0,0.0,0.0,0.0,0.0,0.0,0.0,0.0,0.0,0.0,0.0,0.0,0.0,0.0,0.0,0.0,0.0,0.0,0.0,0.0,0.0,0.0,0.0,0.0,0.0,0.0,0.0,0.0,0.0,0.0,0.0,0.0,0.0,0.0,0.0,0.0,0.0,0.0,0.0,0.0,0.0,0.0,0.0,0.0,0.0,0.0,0.0,0.0,0.0,0.0,0.0,0.0,0.0,0.0,0.0,-5.3188,-5.6345,-5.9355,-6.2071,-6.2585,-6.3468,-6.4771,-6.2224,-5.9982,0.0,0.0,0.0,0.0,0.0,0.0,0.0,0.0,0.0,0.0,0.0,0.0,0.0,0.0,0.0,0.0,0.0,0.0,0.0,0.0,0.0,0.0,0.0,0.0,0.0,0.0,0.0,0.0,0.0,0.0,0.0,0.0,0.0,0.0,0.0,0.0,0.0,0.0,0.0,0.0,-4.9279,-5.026,-5.073,0.0,0.0,0.0,0.0,0.0,0.0,-5.218,-5.1984,0.0,0.0,0.0,0.0,0.0,0.0,0.0,0.0,0.0,0.0,0.0,0.0,0.0,0.0,0.0,0.0,0.0,0.0,0.0,0.0,0.0,0.0,0.0,0.0,0.0,0.0,0.0,0.0,0.0,0.0,0.0,0.0,0.0,0.0,0.0,0.0,0.0,0.0,0.0,0.0,0.0,0.0,0.0,0.0,0.0,0.0,0.0,0.0,0.0,0.0,0.0,0.0,0.0,0.0,0.0,-5.3167,-5.6381,-5.9171,-6.1484,-6.2401,-6.3259,-6.4119,-6.1993,-6.0122,0.0,0.0,0.0,0.0,0.0,0.0,0.0,0.0,0.0,0.0,0.0,0.0,0.0,0.0,0.0,0.0,0.0,0.0,0.0,0.0,0.0,0.0,0.0,0.0,0.0,0.0,0.0,0.0,0.0,0.0,0.0,0.0,0.0,0.0,0.0,0.0,0.0,0.0,0.0,0.0,0.0,-5.126,-5.2117,-5.2868,0.0,0.0,0.0,0.0,-5.367,-5.3775,0.0,0.0,0.0,0.0,0.0,0.0,0.0,0.0,0.0,0.0,0.0,0.0,0.0,0.0,0.0,0.0,0.0,0.0,0.0,0.0,0.0,0.0,0.0,0.0,0.0,0.0,0.0,0.0,0.0,0.0,0.0,0.0,0.0,0.0,0.0,0.0,0.0,0.0,0.0,0.0,0.0,0.0,0.0,0.0,0.0,0.0,0.0,0.0,0.0,0.0,0.0,0.0,0.0,0.0,0.0,0.0,-5.3188,-5.6381,-5.9171,-6.1484,-6.2401,-6.3259,-6.4119,-6.1993,-6.01,0.0,0.0,0.0,0.0,0.0,0.0,0.0,0.0,0.0,0.0,0.0,0.0,0.0,0.0,0.0,0.0,0.0,0.0,0.0,0.0,0.0,0.0,0.0,0.0,0.0,0.0,0.0,0.0,0.0,0.0,0.0,0.0,0.0,0.0,0.0,0.0,0.0,0.0,0.0,0.0,0.0,-5.2107,-5.3003,-5.3253,-5.3317,0.0,0.0,-5.3635,-5.3676,-5.3778,0.0,0.0,0.0,0.0,0.0,0.0,0.0,0.0,0.0,0.0,0.0,0.0,0.0,0.0,0.0,0.0,0.0,0.0,0.0,0.0,0.0,0.0,0.0,0.0,0.0,0.0,0.0,0.0,0.0,0.0,0.0,0.0,0.0,0.0,0.0,0.0,0.0,0.0,0.0,0.0,0.0,0.0,0.0,0.0,0.0,0.0,0.0,0.0,0.0,0.0,0.0,0.0,0.0,0.0,0.0,-4.9921,-5.3167,-5.6381,-5.8951,-6.086,-6.2144,-6.3014,-6.3394,-6.1711,-6.0055,0.0,0.0,0.0,0.0,0.0,0.0,0.0,0.0,0.0,0.0,0.0,0.0,0.0,0.0,0.0,0.0,0.0,0.0,0.0,0.0,0.0,0.0,0.0,0.0,0.0,0.0,0.0,0.0,0.0,0.0,0.0,0.0,0.0,0.0,0.0,0.0,0.0,0.0,0.0,0.0,0.0,0.0,-5.3874,-5.4833,0.0,0.0,0.0,-5.6474,-5.658,0.0,0.0,0.0,0.0,0.0,0.0,0.0,0.0,0.0,0.0,0.0,0.0,0.0,0.0,0.0,0.0,0.0,0.0,0.0,0.0,0.0,0.0,0.0,0.0,0.0,0.0,0.0,0.0,0.0,0.0,0.0,0.0,0.0,0.0,0.0,0.0,0.0,0.0,0.0,0.0,0.0,0.0,0.0,0.0,0.0,0.0,0.0,0.0,0.0,0.0,0.0,0.0,0.0,0.0,0.0,0.0,0.0,-5.3151,-5.6381,-5.8767,-6.0382,-6.1998,-6.2805,-6.2805,-6.1479,0.0,0.0,0.0,0.0,0.0,0.0,0.0,0.0,0.0,0.0,0.0,0.0,0.0,0.0,0.0,0.0,0.0,0.0,0.0,0.0,0.0,0.0,0.0,0.0,0.0,0.0,0.0,-4.8162,0.0,0.0,0.0,0.0,0.0,0.0,0.0,0.0,0.0,0.0,0.0,0.0,0.0,0.0,-5.4863,-5.5297,-5.6554,-5.7466,0.0,0.0,-5.8643,-5.8738,-5.8723,-5.8738,0.0,0.0,0.0,0.0,0.0,0.0,0.0,0.0,0.0,0.0,0.0,0.0,0.0,0.0,0.0,0.0,0.0,0.0,0.0,0.0,0.0,0.0,0.0,0.0,0.0,0.0,0.0,0.0,0.0,0.0,0.0,0.0,0.0,0.0,0.0,0.0,0.0,0.0,0.0,0.0,0.0,0.0,0.0,0.0,0.0,0.0,0.0,0.0,0.0,0.0,0.0,0.0,0.0,0.0,-4.9921,-5.3167,-5.6381,-5.8804,-6.0382,-6.1998,-6.2805,-6.2768,-6.1479,-6.0402,0.0,0.0,0.0,0.0,0.0,0.0,0.0,0.0,0.0,0.0,0.0,0.0,0.0,0.0,0.0,0.0,0.0,0.0,0.0,0.0,0.0,0.0,0.0,0.0,0.0,0.0,0.0,0.0,0.0,0.0,0.0,0.0,0.0,0.0,0.0,0.0,0.0,0.0,0.0,0.0,0.0,-5.6045,-5.7716,-5.8054,-5.816,0.0,-5.8433,-5.8604,-5.8613,-5.8682,-5.8692,-5.8731,0.0,0.0,0.0,0.0,0.0,0.0,0.0,0.0,0.0,0.0,0.0,0.0,0.0,0.0,0.0,0.0,0.0,0.0,0.0,0.0,0.0,0.0,0.0,0.0,0.0,0.0,0.0,0.0,0.0,0.0,0.0,0.0,0.0,0.0,0.0,0.0,0.0,0.0,0.0,0.0,0.0,0.0,0.0,0.0,0.0,0.0,0.0,0.0,0.0,0.0,0.0,0.0,0.0,-4.9921,-5.3167,-5.6381,-5.8767,-6.0382,-6.1961,-6.2805,-6.2805,-6.1432,-6.0333,0.0,0.0,0.0,0.0,0.0,0.0,0.0,0.0,0.0,0.0,0.0,0.0,0.0,0.0,0.0,0.0,0.0,0.0,0.0,0.0,0.0,0.0,0.0,0.0,0.0,0.0,0.0,0.0,-5.168,-5.2182,-5.2755,0.0,0.0,0.0,0.0,0.0,0.0,0.0,0.0,0.0,0.0,-5.7276,-5.7991,-5.8611,0.0,0.0,-5.9616,-6.0065,-6.0094,-6.0529,-6.0887,-6.0925,-6.1312,0.0,0.0,0.0,0.0,0.0,0.0,0.0,0.0,0.0,0.0,0.0,0.0,0.0,0.0,0.0,0.0,0.0,0.0,0.0,0.0,0.0,0.0,0.0,0.0,0.0,0.0,0.0,0.0,0.0,0.0,0.0,0.0,0.0,0.0,0.0,0.0,0.0,0.0,0.0,0.0,0.0,0.0,0.0,0.0,0.0,0.0,0.0,0.0,0.0,0.0,0.0,0.0,-5.0415,-5.3167,-5.6602,-5.9024,-6.0382,-6.1998,-6.2805,-6.2768,-6.1605,-6.0655,0.0,0.0,0.0,0.0,0.0,0.0,0.0,0.0,0.0,0.0,0.0,0.0,0.0,0.0,0.0,0.0,0.0,0.0,0.0,0.0,0.0,0.0,0.0,0.0,0.0,0.0,0.0,0.0,-5.3685,-5.3989,-5.464,0.0,0.0,0.0,0.0,0.0,0.0,0.0,0.0,0.0,0.0,-5.8425,-5.8719,-5.9574,-6.016,-6.0184,-6.1058,-6.1687,-6.1692,-6.2193,-6.259,-6.2671,0.0,0.0,0.0,0.0,0.0,0.0,0.0,0.0,0.0,0.0,0.0,0.0,0.0,0.0,0.0,0.0,0.0,0.0,0.0,0.0,0.0,0.0,0.0,0.0,0.0,0.0,0.0,0.0,0.0,0.0,-4.7149,0.0,0.0,0.0,0.0,0.0,0.0,0.0,0.0,0.0,0.0,0.0,0.0,0.0,0.0,0.0,0.0,0.0,0.0,0.0,0.0,0.0,0.0,-5.1573,-5.3225,-5.713,-5.9575,-6.0419,-6.1998,-6.2805,-6.2805,-6.212,-6.1429,-6.0734,0.0,0.0,0.0,0.0,0.0,0.0,0.0,0.0,0.0,0.0,0.0,0.0,0.0,0.0,0.0,0.0,0.0,0.0,0.0,0.0,0.0,0.0,0.0,0.0,0.0,0.0,-5.6801,-5.6945,-5.6995,0.0,0.0,0.0,0.0,0.0,0.0,0.0,0.0,0.0,0.0,-5.9015,-5.9442,-6.0313,-6.113,-6.1669,-6.1735,-6.2592,-6.3243,-6.3205,-6.3349,-6.3494,0.0,0.0,0.0,0.0,0.0,0.0,0.0,0.0,0.0,0.0,0.0,0.0,0.0,0.0,0.0,0.0,0.0,0.0,0.0,0.0,0.0,0.0,0.0,0.0,0.0,0.0,0.0,-5.194,-5.1189,0.0,0.0,0.0,0.0,0.0,0.0,0.0,0.0,0.0,0.0,0.0,-5.3151,-5.2637,0.0,0.0,0.0,0.0,0.0,0.0,0.0,0.0,0.0,0.0,0.0,0.0,-5.2123,-5.4803,-5.7703,-5.9845,-6.1153,-6.2254,-6.2805,-6.2805,-6.2047,-6.1137,-6.0018,0.0,0.0,0.0,0.0,0.0,0.0,0.0,0.0,0.0,0.0,0.0,0.0,0.0,0.0,0.0,0.0,0.0,0.0,0.0,0.0,0.0,0.0,0.0,0.0,0.0,-5.7075,0.0,0.0,0.0,0.0,0.0,0.0,0.0,0.0,0.0,0.0,0.0,-5.8995,-6.047,-6.0704,-6.1015,-6.1965,-6.2366,-6.256,0.0,0.0,0.0,0.0,0.0,0.0,0.0,0.0,0.0,0.0,0.0,0.0,0.0,0.0,-6.6998,-6.693,-6.6984,-6.7067,-6.7135,0.0,0.0,0.0,0.0,0.0,0.0,0.0,0.0,0.0,0.0,0.0,0.0,0.0,0.0,-5.4252,0.0,-5.3246,0.0,0.0,0.0,0.0,0.0,0.0,0.0,0.0,-5.462,-5.5133,-5.5611,-5.5133,-5.5133,0.0,-5.484,-5.2968,0.0,0.0,0.0,0.0,0.0,0.0,0.0,0.0,-5.3225,-5.5596,-5.8253,-6.0272,-6.1557,-6.2401,-6.2805,-6.2805,-6.2083,-6.1137,-6.0032,-5.89,-5.8025,0.0,0.0,0.0,0.0,0.0,0.0,0.0,0.0,0.0,0.0,0.0,0.0,0.0,0.0,0.0,0.0,0.0,0.0,0.0,0.0,0.0,0.0,0.0,-5.8765,0.0,0.0,0.0,0.0,0.0,0.0,0.0,0.0,0.0,-6.0269,-6.0089,-6.0547,-6.1721,-6.1949,-6.2222,-6.2801,0.0,0.0,0.0,0.0,0.0,0.0,0.0,-6.5288,-6.5604,-6.6113,-6.6847,-6.7802,-6.8394,-6.8898,-6.9208,0.0,0.0,-6.8829,-6.884,-6.8885,-6.8946,-6.9049,-6.9031,-6.8849,-6.886,-6.8821,0.0,0.0,0.0,0.0,0.0,0.0,0.0,0.0,-5.7813,-5.7262,0.0,-5.5757,0.0,0.0,0.0,0.0,0.0,-5.5721,0.0,0.0,-5.8107,-5.8143,-5.818,-5.818,-5.818,-5.8143,-5.7373,-5.6528,-5.5574,-5.2564,0.0,0.0,0.0,0.0,0.0,0.0,-5.484,-5.5794,-5.8804,-6.0786,-6.163,-6.2401,-6.2805,-6.2805,-6.2156,-6.1503,-6.0845,-6.0093,-5.9017,-5.7658,-5.7546,0.0,0.0,0.0,0.0,0.0,0.0,0.0,0.0,0.0,0.0,0.0,0.0,0.0,0.0,0.0,0.0,0.0,0.0,0.0,0.0,-6.1726,0.0,0.0,0.0,0.0,0.0,0.0,0.0,0.0,0.0,0.0,-6.2463,-6.2499,-6.2595,-6.2633,0.0,0.0,0.0,0.0,-6.4273,-6.4331,-6.5053,-6.5663,-6.5795,-6.5998,-6.6403,-6.7288,0.0,0.0,-6.8881,-6.9095,-6.9438,-7.0254,-7.047,-7.0166,-6.9347,-6.9312,-6.9267,-6.9338,-6.9474,-6.9628,-7.0488,-7.0801,-7.1019,-6.4751,0.0,0.0,0.0,0.0,-5.9538,-6.0015,-6.0272,-6.108,-6.0529,-5.9024,-5.9024,0.0,0.0,0.0,0.0,0.0,0.0,-5.9281,-5.9795,-6.0896,-6.1741,-6.2328,-6.1704,-6.1741,-6.2291,-6.0896,-5.9832,-5.8951,-5.6932,-5.4252,-5.0986,0.0,0.0,0.0,0.0,-5.5647,-5.8107,-5.9648,-6.108,-6.2438,-6.2695,-6.2805,-6.2805,-6.2156,-6.1761,-6.1657,-6.0389,-5.9536,-5.9234,-5.8661,0.0,0.0,0.0,0.0,0.0,0.0,0.0,0.0,0.0,0.0,0.0,0.0,0.0,0.0,0.0,0.0,0.0,0.0,0.0,-6.1646,-6.2291,-6.2745,0.0,0.0,0.0,0.0,0.0,0.0,0.0,0.0,0.0,-6.4217,-6.3242,-6.2775,0.0,0.0,-6.3925,-6.4596,-6.4923,-6.5135,-6.515,-6.5995,0.0,-6.6705,-6.7429,-6.8066,-6.8369,-6.8985,-6.9623,-6.995,-7.0544,-7.1271,-7.2153,-7.2306,-7.2401,-7.2762,-7.2315,-7.1983,-7.2038,-7.2482,-7.2977,-7.3303,-7.3395,-7.364,-7.0073,-6.6916,-6.453,-6.3246,-6.2879,-6.3356,-6.3539,-6.3576,-6.4053,-6.3356,-6.1887,-6.1851,-6.1153,-5.9905,-5.9905,0.0,0.0,0.0,-6.2034,-6.2401,-6.3356,-6.409,-6.453,-6.4053,-6.4053,-6.4494,-6.3209,-6.2144,-6.1337,-5.9722,-5.7409,-5.4436,0.0,0.0,-5.4142,-5.495,-5.6638,-5.9111,-6.0015,-6.119,-6.2743,-6.2805,-6.2805,-6.2805,-6.2402,-6.2155,-6.1989,-6.1098,-6.0567,-6.0422,-5.9961,-5.9701,0.0,0.0,0.0,0.0,0.0,0.0,0.0,0.0,0.0,0.0,0.0,-5.995,-6.0434,0.0,0.0,0.0,-6.2209,-6.2591,-6.311,-6.3739,0.0,0.0,0.0,0.0,0.0,0.0,0.0,-6.6466,-6.6141,-6.5945,-6.5977,-6.5171,-6.4666,-6.4921,-6.5023,-6.5406,-6.6338,0.0,-6.6557,-6.6576,-6.719,-6.7629,-6.7742,-6.8315,-6.8926,-6.9362,-7.0557,-7.14,-7.1485,-7.2228,-7.3041,-7.3529,-7.3675,-7.3813,-7.4359,-7.4281,-7.4055,-7.379,-7.4073,-7.4639,-7.533,-7.5532,-7.5926,-7.4625,-7.3487,-6.9045,-6.7063,-6.688,-6.6806,-6.6806,-6.6769,-6.6806,-6.5925,-6.4494,-6.4494,-6.398,-6.3074,-6.3099,0.0,-6.431,-6.442,-6.4861,-6.5569,-6.5668,-6.5668,-6.5705,-6.5632,-6.5595,-6.5595,-6.4714,-6.387,-6.3062,-6.141,-5.9832,-5.8364,-5.6712,-5.5831,-5.5757,-5.6418,-5.7593,-5.9184,-6.0015,-6.119,-6.2743,-6.2805,-6.2805,-6.2805,-6.2805,-6.2598,-6.2137,-6.205,-6.1795,-6.1314,-6.1261,-6.1187,-6.1187,0.0,0.0,0.0,0.0,0.0,0.0,0.0,0.0,0.0,0.0,0.0,0.0,0.0,0.0,0.0,-6.378,0.0,-6.5457,-6.5697,0.0,0.0,0.0,-6.7219,-6.7201,-6.7278,-6.7335,-6.7297,0.0,0.0,-6.7514,-6.7669,-6.7556,-6.6793,-6.6742,-6.7126,-6.7982,-6.8035,-6.8133,-6.8175,-6.8423,-6.8578,-6.8783,-6.9002,-6.9544,-7.0564,-7.1998,-7.298,-7.3153,-7.3817,-7.4429,-7.4589,-7.4623,-7.4681,-7.4681,-7.5443,-7.5766,-7.5004,-7.4892,-7.5371,-7.6904,-7.7339,-7.7849,-7.6276,-7.5359,-7.3634,-7.1835,-7.0146,-6.9522,-6.9229,-6.9229,-6.9265,-6.8678,-6.776,-6.776,-6.6953,-6.5632,-6.5632,-6.5742,-6.5962,-6.721,-6.7871,-6.8091,-6.8678,-6.8972,-6.8935,-6.8348,-6.8054,-6.7981,-6.6623,-6.5815,-6.5521,-6.3356,-6.2034,-6.1594,-5.9465,-5.774,-5.6565,-5.6712,-5.757,-5.9184,-6.0015,-6.119,-6.2732,-6.2805,-6.2805,-6.2805,-6.2904,-6.2916,-6.2912,-6.2401,-6.2145,-6.2094,-6.1521,-6.1187,-6.1187,-6.1187,0.0,0.0,0.0,0.0,0.0,0.0,0.0,0.0,0.0,-6.2641,-6.3238,0.0,-6.4631,0.0,-6.5653,-6.638,-6.6648,-6.6745,0.0,0.0,-6.7615,-6.8069,-6.8148,-6.8206,-6.83,-6.8411,-6.7949,-6.7673,-6.774,-6.779,-6.7992,-6.8476,-6.7996,-6.7737,-6.8059,-6.8118,-6.822,-6.8448,-6.9065,-6.9594,-6.9733,-7.0399,-7.1264,-7.2309,-7.2857,-7.3319,-7.4043,-7.4332,-7.4694,-7.5332,-7.5506,-7.5751,-7.6297,-7.6705,-7.7026,-7.7375,-7.7454,-7.7769,-7.8866,-7.9062,-7.9414,-7.7965,-7.7121,-7.5946,-7.4661,-7.334,-7.2202,-7.1468,-7.1138,-7.0807,-7.0183,-6.9412,-6.9412,-6.8935,-6.8128,-6.8091,-6.8091,-6.8164,-6.9045,-6.9449,-6.9449,-6.9889,-7.011,-7.0073,-6.9265,-6.8898,-6.8862,-6.765,-6.6843,-6.6402,-6.4751,-6.3539,-6.278,-6.1117,-5.9648,-5.8437,-5.7703,-5.796,-5.9184,-6.0346,-6.1557,-6.2768,-6.2805,-6.2805,-6.2805,-6.2929,-6.3051,-6.3171,-6.2905,-6.2798,-6.2911,-6.2524,-6.2264,-6.2264,-6.2308,-6.233,0.0,0.0,0.0,0.0,0.0,0.0,0.0,0.0,0.0,0.0,0.0,-6.6045,-6.6148,-6.6646,-6.714,-6.7577,-6.7712,-6.7921,-6.83,-6.883,-6.9171,-6.9265,-6.9283,-6.9319,-6.9411,-6.9081,-6.8862,-6.8913,-6.8979,-6.9234,-6.9741,-6.9444,-6.9184,-6.9229,-6.9304,-6.9404,-6.9578,-7.0066,-7.0501,-7.068,-7.1573,-7.2405,-7.3064,-7.3797,-7.4489,-7.5003,-7.5404,-7.5804,-7.6281,-7.6378,-7.6505,-7.7013,-7.7181,-7.746,-7.8202,-7.8749,-7.9296,-8.0078,-8.0273,-8.0547,-7.9396,-7.8589,-7.6937,-7.6276,-7.613,-7.4551,-7.3377,-7.2606,-7.1798,-7.1064,-7.0403,-7.0293,-7.0257,-7.0257,-7.0257,-7.0257,-7.0257,-7.0367,-7.0403,-7.0403,-7.0403,-7.0403,-7.0367,-6.9486,-6.9045,-6.9009,-6.8128,-6.732,-6.6623,-6.5852,-6.4651,-6.3135,-6.2218,-6.1374,-6.0529,-5.9061,-5.8694,-5.9515,-6.0896,-6.1998,-6.2805,-6.2805,-6.2805,-6.2805,-6.2953,-6.3075,-6.3208,-6.3336,-6.3488,-6.3579,-6.3602,-6.3602,-6.3624,-6.3825,-6.3966,0.0,-6.4843,0.0,0.0,0.0,0.0,0.0,0.0,0.0,0.0,-6.6921,-6.7196,-6.7408,-6.7447,-6.7749,-6.8467,-6.8679,-6.9095,-6.9834,-7.0096,-7.0185,-7.0185,-7.0203,-7.0203,-7.0241,-7.0289,-7.0341,-7.0298,-7.049,-7.0569,-7.0562,-7.0563,-7.0531,-7.0661,-7.0666,-7.0728,-7.0992,-7.1093,-7.1225,-7.1702,-7.2446,-7.3075,-7.3602,-7.4689,-7.5807,-7.5943,-7.6546,-7.7062,-7.7065,-7.7007,-7.7058,-7.7097,-7.7146,-7.75,-7.832,-7.8984,-7.9726,-8.0664,-8.1094,-8.1406,-7.969,-7.9396,-7.7781,-7.7053,-7.6943,-7.5359,-7.4221,-7.3413,-7.2606,-7.2202,-7.1982,-7.1358,-7.1101,-7.1101,-7.1101,-7.1101,-7.1101,-7.1762,-7.2055,-7.2055,-7.2055,-7.2055,-7.1945,-7.055,-6.9853,-6.9779,-6.8385,-6.7614,-6.743,-6.6659,-6.5778,-6.4824,-6.3319,-6.2181,-6.1374,0.0,0.0,0.0,-6.1447,-6.1998,-6.2743,-6.2805,-6.2805,-6.2805,-6.3026,0.0,-6.3194,-6.3442,-6.3557,-6.3579,-6.3602,0.0,0.0,0.0,0.0,0.0,0.0,0.0,0.0,0.0,0.0,0.0,-6.8648,-6.8439,-6.7158,-6.765,-6.8389,-6.915,-6.9303,-6.9456,-6.9645,-6.9793,-6.9941,-7.0093,-7.0205,-7.0185,-7.0185,-7.0255,-7.0289,-7.0251,-7.0336,-7.0457,-7.0598,-7.0554,-7.0654,-7.0716,-7.0714,-7.0758,-7.0772,-7.0787,-7.0871,-7.1056,-7.1247,-7.1727,-7.2524,-7.2857,-7.3594,-7.487,-7.5482,-7.6084,-7.6659,-7.6903,-7.7101,-7.7101,-7.7085,-7.7097,-7.7099,-7.7146,-7.7461,-7.832,-7.8633,-7.918,-8.0664,-8.1562,-8.2109,-7.9543,0.0,-7.7855,-7.731,0.0,-7.5616,-7.4661,-7.4184,-7.301,-7.2532,-7.2459,-7.2092,-7.1908,-7.1908,-7.1908,-7.1908,-7.1908,-7.2312,-7.2532,-7.2532,-7.2532,-7.2532,-7.2459,-7.1284,-7.0477,-7.0036,-6.8862,-6.8054,-6.7677,-6.688,-6.6292,-6.5888,-6.464,-6.3649,-6.2842,-6.2034,-6.1594,-6.1594,-6.1594,-6.1998,-6.2768,-6.2805,-6.2805,-6.2805,-6.3051,0.0,0.0,0.0,0.0,0.0,0.0,0.0,0.0,-6.5269,0.0,-6.5994,-6.685,-6.7464,-6.7567,-6.8381,-6.8915,-6.9015,-6.9492,-6.9398,-6.843,-6.881,-6.9284,-6.9816,-6.9985,-7.0059,-7.0114,-7.0545,-7.0903,-7.0903,-7.1336,-7.1582,-7.1599,-7.1617,-7.1629,-7.168,-7.1729,-7.1778,-7.1857,-7.1536,-7.1375,-7.1343,-7.107,-7.0843,-7.0843,-7.0843,-7.0912,-7.1081,-7.1313,-7.1648,-7.2197,-7.3161,-7.386,-7.4938,-7.5829,-7.6513,-7.7004,-7.7095,-7.7101,-7.7104,-7.7085,-7.7097,-7.7099,-7.7146,-7.7344,-7.7773,-7.8203,-7.8711,-7.9687,-8.0742,-8.1797,-7.9323,-7.8516,-7.764,-7.731,-7.7163,-7.5586,-7.4735,-7.4404,0.0,0.0,0.0,-7.2532,-7.2532,-7.2532,-7.2532,-7.2532,-7.2532,-7.2532,-7.2532,-7.2532,-7.2532,-7.2532,-7.2459,-7.166,-7.0954,-7.0293,-6.9339,-6.8568,-6.7871,-6.71,-6.6623,-6.6439,-6.5852,-6.5118,-6.431,-6.3613,-6.2915,-6.2291,-6.1961,-6.2144,-6.278,-6.2805,-6.2805,-6.2805,-6.3051,-6.3268,-6.3416,-6.3688,-6.3899,-6.407,-6.4793,-6.5218,-6.53,-6.6282,-6.6903,-6.7067,-6.7923,-6.8477,-6.854,-6.9202,-6.964,-6.9758,-7.0043,-7.0099,-6.9777,-6.9854,-7.0023,-7.0211,-7.0378,-7.0507,-7.0639,-7.1357,-7.1828,-7.1866,-7.2546,-7.2979,-7.2979,-7.2996,-7.2969,-7.3073,-7.3013,-7.3137,-7.31,-7.2509,-7.2107,-7.2006,-7.1395,-7.0898,-7.0898,-7.0925,-7.0979,-7.1093,-7.1313,-7.1571,-7.1969,-7.2951,-7.4133,-7.4722,-7.5859,-7.6817,-7.7032,-7.7089,-7.7101,-7.7101,-7.7085,-7.7096,-7.7099,-7.7146,-7.7226,-7.7226,-7.7734,-7.832,-7.8594,-7.957,-8.082,-7.9323,-7.8552,-7.764,-7.731,-7.7163,-7.5579,-7.4147,-7.2826,-7.2606,-7.2532,-7.2532,-7.2532,-7.2532,-7.2532,-7.2532,-7.2532,-7.2532,-7.2532,-7.2532,-7.2532,-7.2532,-7.2532,-7.2459,-7.1688,-7.1248,-7.1027,-6.9633,-6.8862,-6.8641,-6.7907,-6.7173,-6.6586,-6.6366,-6.5925,-6.5191,-6.5007,-6.4897,-6.4787,-6.3367,-6.267,-6.2805,-6.2805,-6.2805,-6.2805,-6.3088,-6.3527,-6.4192,-6.4503,-6.5022,-6.5783,-6.5955,-6.6142,-6.64,-6.7278,-6.7856,-6.8036,-6.8892,-6.9428,-6.949,-6.9641,-6.9758,-6.9985,-7.0742,-7.0836,-7.006,-7.0096,-7.0454,-7.1118,-7.1322,-7.1679,-7.2327,-7.2643,-7.2809,-7.2809,-7.2941,-7.3017,-7.311,-7.3139,-7.3226,-7.3259,-7.3153,-7.3292,-7.3368,-7.2669,-7.2213,-7.2101,-7.1462,-7.0898,-7.0912,-7.1005,-7.1068,-7.113,-7.1352,-7.1814,-7.2323,-7.2858,-7.3769,-7.5285,-7.5689,-7.6271,-7.6872,-7.7046,-7.7098,-7.7101,-7.7085,-7.7096,-7.7099,-7.7146,-7.7187,-7.7226,-7.7383,-7.7656,-7.8242,-7.875,-7.9453,-7.8662,-7.7892,-7.7457,-7.731,-7.7163,-7.5586,-7.4001,-7.2569,-7.2532,-7.2532,-7.2532,-7.2532,-7.2532,-7.2532,-7.2532,-7.2532,-7.2532,-7.2532,-7.2532,-7.2532,-7.2532,-7.2532,-7.2496,-7.2129,-7.1725,-7.1256,-7.0559,-6.9779,-6.8935,-6.8531,-6.7944,-6.7173,-6.6733,-6.6329,-6.5962,-6.5521,-6.5338,-6.5275,-6.453,-6.4138,-6.4163,-6.4163,-6.4163,-6.4163,-6.434,-6.4672,-6.5078,-6.5247,-6.5622,-6.6178,-6.6694,-6.7076,-6.7353,-6.8232,-6.883,-6.9011,-6.9411,-6.9699,-6.9854,-7.0346,-7.0668,-7.0798,-7.1611,-7.2008,-7.1535,-7.1571,-7.1758,-7.214,-7.2286,-7.2491,-7.2889,-7.3344,-7.3667,-7.3628,-7.41,-7.4384,-7.4401,-7.4468,-7.4549,-7.4596,-7.4628,-7.4689,-7.4764,-7.3649,-7.2895,-7.2808,-7.1822,-7.0937,-7.0898,-7.0979,-7.1056,-7.1106,-7.128,-7.1591,-7.2034,-7.2593,-7.3314,-7.4203,-7.5117,-7.582,-7.6392,-7.6724,-7.705,-7.7101,-7.7085,-7.7096,-7.7099,-7.7146,-7.7187,-7.7226,-7.7226,-7.7422,-7.7734,-7.8125,-7.9062,-7.8075,-7.731,-7.731,-7.709,-7.665,-7.5469,-7.4001,-7.2569,-7.2532,-7.2532,-7.2532,-7.2532,-7.2532,-7.2532,-7.2532,-7.2532,-7.2532,-7.2532,-7.2532,-7.2532,-7.2532,-7.2532,-7.2532,-7.2532,-7.2165,-7.1586,-7.1366,-7.066,-6.9559,-6.9265,-6.8752,-6.7944,-6.7173,-6.6769,-6.6769,-6.6145,-6.5852,-6.5852,-6.5852,-6.5668,-6.5338,-6.5338,-6.5301,-6.5301,-6.543,-6.5655,-6.5965,-6.605,-6.6317,-6.682,-6.7508,-6.7987,-6.8307,-6.9035,-6.9519,-6.9679,-6.9758,-6.9929,-7.0325,-7.1195,-7.1743,-7.1743,-7.2594,-7.3105,-7.3143,-7.3295,-7.3295,-7.316,-7.3212,-7.3361,-7.3628,-7.4142,-7.4524,-7.4542,-7.5145,-7.5518,-7.5595,-7.5715,-7.5779,-7.5879,-7.591,-7.5902,-7.5731,-7.4553,-7.3322,-7.2668,-7.1706,-7.0975,-7.0912,-7.0952,-7.1018,-7.1093,-7.1247,-7.1435,-7.1541,-7.2064,-7.2687,-7.2997,-7.435,-7.5333,-7.5829,-7.6517,-7.7039,-7.7098,-7.7085,-7.7096,-7.7099,-7.7146,-7.7187,-7.7226,-7.7226,-7.7226,-7.7305,-7.793,-7.9023,-7.8112,-7.7347,-7.731,-7.643,-7.5249,-7.4992,-7.4001,-7.2606,-7.2532,-7.2532,-7.2532,-7.2532,-7.2532,-7.2532,-7.2532,-7.2532,-7.2532,-7.2532,-7.2532,-7.2532,-7.2532,-7.2532,-7.2532,-7.2532,-7.2459,-7.2275,-7.1688,-7.1248,-7.0917,-7.0293,-6.9559,-6.8788,-6.7981,-6.754,-6.754,-6.7467,-6.743,-6.7467,-6.7467,-6.6769,-6.5411,-6.5338,-6.5338,-6.5338,-6.5467,-6.5913,-6.674,-6.6902,-6.7516,-6.8516,-6.8674,-6.893,-6.9219,-6.9478,-6.9617,-6.9719,-6.9873,-7.0325,-7.1195,-7.214,-7.2688,-7.2726,-7.3521,-7.407,-7.4108,-7.4757,-7.4889,-7.4261,-7.4087,-7.4393,-7.5136,-7.534,-7.5391,-7.5353,-7.5551,-7.5676,-7.5731,-7.5794,-7.5879,-7.5879,-7.5955,-7.6015,-7.5822,-7.4553,-7.2976,-7.1706,-7.1245,-7.0898,-7.0898,-7.0952,-7.0992,-7.1043,-7.1178,-7.1334,-7.1485,-7.1586,-7.2096,-7.284,-7.3847,-7.4761,-7.5581,-7.6396,-7.7078,-7.7095,-7.7085,-7.7097,-7.71,-7.7148,-7.7187,-7.7226,-7.7226,-7.7226,-7.7305,-7.7812,-7.8984,-7.7604,-7.731,-7.731,-7.6644,-7.5616,-7.5102,-7.4258,-7.3193,-7.2679,-7.2532,-7.2532,-7.2532,-7.2532,-7.2532,-7.2532,-7.2532,-7.2532,-7.2532,-7.2532,-7.2532,-7.2532,-7.2532,-7.2532,-7.2532,-7.2532,-7.2496,-7.2165,-7.1762,-7.1219,-7.0477,-6.9706,-6.8972,-6.8568,-6.8164,-6.7724,-6.7687,-6.7687,-6.7687,-6.7687,-6.7357,-6.6806,-6.6696,-6.6696,-6.6696,-6.6749,-6.7053,-6.7553,-6.7665,-6.8074,-6.8838,-6.8921,-6.9065,-6.9495,-6.9556,-6.9697,-6.991,-7.057,-7.1096,-7.1512,-7.2838,-7.3615,-7.3615,-7.4452,-7.4966,-7.4966,-7.531,-7.5327,-7.5111,-7.5051,-7.5204,-7.551,-7.5633,-7.5644,-7.5644,-7.5747,-7.5794,-7.581,-7.591,-7.597,-7.597,-7.6,-7.5976,-7.5745,-7.4553,-7.3091,-7.1822,-7.1283,-7.1014,-7.0937,-7.0925,-7.0952,-7.1005,-7.1106,-7.1224,-7.1345,-7.1474,-7.1728,-7.2275,-7.3451,-7.4617,-7.5006,-7.6219,-7.7024,-7.7082,-7.7081,-7.7097,-7.7097,-7.7148,-7.7226,-7.7226,-7.7226,-7.7226,-7.7226,-7.75,-7.8242,-7.731,-7.731,-7.731,-7.6864,-7.6056,-7.5469,-7.4661,-7.3707,-7.3046,-7.2716,-7.2532,-7.2532,-7.2532,-7.2532,-7.2532,-7.2532,-7.2532,-7.2532,-7.2532,-7.2532,-7.2532,-7.2532,-7.2532,-7.2532,-7.2532,-7.2532,-7.2496,-7.2202,-7.1578,-7.0807,-7.011,-6.9596,-6.9339,-6.8825,-6.8091,-6.8017,-6.7907,-6.7687,-6.7687,-6.7687,-6.765,-6.7687,-6.7687,-6.7687,-6.7687,-6.7847,-6.807,-6.807,-6.8358,-6.8875,-6.8921,-6.9109,-6.9556,-6.9635,-6.9812,-7.0401,-7.1342,-7.2057,-7.2303,-7.3709,-7.4545,-7.4584,-7.5157,-7.5518,-7.5518,-7.5497,-7.5532,-7.5544,-7.5633,-7.5666,-7.5649,-7.5715,-7.5763,-7.5779,-7.5841,-7.5925,-7.5925,-7.5985,-7.5976,-7.5976,-7.5976,-7.5899,-7.5553,-7.4591,-7.3514,-7.2706,-7.2052,-7.1629,-7.1629,-7.1668,-7.1681,-7.1659,-7.1763,-7.1632,-7.1424,-7.1396,-7.1502,-7.1947,-7.3137,-7.4327,-7.4533,-7.5918,-7.6973,-7.7082,-7.7081,-7.7096,-7.7099,-7.7148,-7.7226,-7.7226,-7.7226,-7.7226,-7.7226,-7.7226,-7.7578,-7.731,-7.731,-7.731,-7.6864,-7.613,-7.6019,-7.5175,-7.3854,-7.367,-7.323,-7.2606,-7.2569,-7.2532,-7.2532,-7.2532,-7.2532,-7.2532,-7.2532,-7.2532,-7.2532,-7.2532,-7.2532,-7.2532,-7.2532,-7.2532,-7.2532,-7.2496,-7.2459,-7.2349,-7.1651,-7.1248,-7.1109,-7.0403,-6.9633,-6.8935,-6.8788,-6.8458,-6.7834,-6.7724,-6.7687,-6.7687,-6.7687,-6.7687,-6.7687,-6.7687,-6.7847,-6.8081,-6.807,-6.8321,-6.8898,-6.8921,-6.9109,-6.9536,-6.9597,-7.0136,-7.1196,-7.2178,-7.3122,-7.3938,-7.4851,-7.5348,-7.5403,-7.5442,-7.5518,-7.5518,-7.5549,-7.5583,-7.5599,-7.5785,-7.5833,-7.5763,-7.581,-7.5879,-7.5895,-7.5917,-7.6,-7.5962,-7.5962,-7.5976,-7.5976,-7.5976,-7.5745,-7.4976,-7.4707,-7.4245,-7.3668,-7.336,-7.3245,-7.3129,-7.3206,-7.3168,-7.3182,-7.3174,-7.2971,-7.1711,-7.1577,-7.1601,-7.1896,-7.2912,-7.4233,-7.491,-7.564,-7.6496,-7.7078,-7.7081,-7.7096,-7.71,-7.7148,-7.7187,-7.7226,-7.7226,-7.7226,-7.7226,-7.7226,-7.75,-7.731,-7.731,-7.731,-7.709,-7.6827,-7.6313,-7.5763,-7.5212,-7.4698,-7.4001,-7.334,-7.3266,-7.2973,-7.2532,-7.2532,-7.2532,-7.2532,-7.2532,-7.2532,-7.2532,-7.2532,-7.2532,-7.2532,-7.2532,-7.2532,-7.2532,-7.2532,-7.2532,-7.2496,-7.2202,-7.1798,-7.1358,-7.1027,-7.0477,-6.9743,-6.9155,-6.8752,-6.8458,-6.7981,-6.7687,-6.7687,-6.7687,-6.7687,-6.7687,-6.7687,-6.7794,-6.7978,-6.8044,-6.8284,-6.8626,-6.8791,-6.9065,-6.9453,-6.9815,-7.0421,-7.1365,-7.2345,-7.3289,-7.4163,-7.5004,-7.5518,-7.5518,-7.5518,-7.5535,-7.5549,-7.5583,-7.5649,-7.5785,-7.5848,-7.5895,-7.5902,-7.5955,-7.597,-7.597,-7.5962,-7.5976,-7.5976,-7.5976,-7.5976,-7.5976,-7.5976,-7.5822,-7.5515,-7.5053,-7.463,-7.4284,-7.3808,-7.3577,-7.3514,-7.3514,-7.3591,-7.3514,-7.3532,-7.342,-7.2984,-7.2407,-7.2218,-7.2221,-7.2854,-7.3916,-7.4703,-7.5925,-7.6868,-7.7024,-7.7071,-7.7096,-7.7139,-7.7148,-7.7187,-7.7226,-7.7226,-7.7226,-7.7226,-7.7226,-7.7344,-7.731,-7.731,-7.731,-7.731,-7.72,-7.6754,-7.635,-7.6056,-7.5506,-7.4845,-7.4184,-7.4074,-7.378,-7.334,-7.3266,-7.3303,-7.3193,-7.2789,-7.2532,-7.2532,-7.2532,-7.2532,-7.2532,-7.2532,-7.2532,-7.2532,-7.2532,-7.2532,-7.2532,-7.2532,-7.2239,-7.1696,-7.1688,-7.1284,-7.0513,-6.9926,-6.9486,-6.8935,-6.8348,-6.7981,-6.776,-6.7687,-6.7687,-6.7687,-6.7687,-6.7767,-6.7899,-6.8055,-6.8222,-6.8468,-6.8744,-6.9065,-6.9436,-6.991,-7.0644,-7.1725,-7.2515,-7.3458,-7.4507,-7.5195,-7.5518,-7.5518,-7.5497,-7.5587,-7.5599,-7.5649,-7.5769,-7.5864,-7.5925,-7.5955,-7.5962,-7.5976,-7.5976,-7.5976,-7.5976,-7.5976,-7.5976,-7.5976,-7.5976,-7.5976,-7.5976,-7.5976,-7.5938,-7.5476,-7.5207,-7.513,-7.463,-7.4322,-7.4322,-7.4322,-7.4322,-7.4322,-7.4442,-7.4329,-7.3998,-7.3625,-7.3203,-7.3119,-7.3461,-7.4248,-7.4895,-7.6163,-7.6892,-7.6973,-7.7053,-7.7087,-7.7142,-7.7186,-7.7187,-7.7226,-7.7226,-7.7226,-7.7226,-7.7226,-7.7305,-7.731,-7.731,-7.731,-7.731,-7.7273,-7.72,-7.6827,-7.624,-7.613,-7.5652,-7.4955,-7.4918,-7.4808,-7.4771,-7.4625,-7.4742,-7.4441,-7.334,-7.2716,-7.2642,-7.2532,-7.2532,-7.2532,-7.2532,-7.2532,-7.2532,-7.2532,-7.2532,-7.2532,-7.2532,-7.2459,-7.2459,-7.2386,-7.2018,-7.1321,-7.1138,-7.044,-6.9376,-6.8935,-6.8495,-6.7797,-6.7724,-6.7687,-6.7687,-6.7687,-6.7767,-6.7899,-6.7993,-6.8197,-6.8481,-6.8744,-6.9109,-6.9536,-6.991,-7.0856,-7.2296,-7.2767,-7.3733,-7.5157,-7.5442,-7.5518,-7.5497,-7.5549,-7.5599,-7.5649,-7.5785,-7.5879,-7.591,-7.5955,-7.5976,-7.5976,-7.5976,-7.5976,-7.5976,-7.5976,-7.5976,-7.5976,-7.5976,-7.5976,-7.5976,-7.5976,-7.5976,-7.5976,-7.5899,-7.5822,-7.5784,-7.5745,-7.5668,-7.5592,-7.5553,-7.5861,-7.5822,-7.5568,-7.525,-7.5036,-7.4796,-7.441,-7.4181,-7.4614,-7.5175,-7.5401,-7.6287,-7.6799,-7.7004,-7.7062,-7.7093,-7.7182,-7.7187,-7.7187,-7.7226,-7.7226,-7.7226,-7.7226,-7.7226,-7.7226,-7.7855,-7.731,-7.731,-7.731,-7.731,-7.731,-7.7127,-7.6943,-7.6907,-7.646,-7.5836,-7.5726,-7.5432,-7.4992,-7.4888,-7.4888,-7.4845,-7.4368,-7.3891,-7.334,-7.2789,-7.2532,-7.2532,-7.2532,-7.2532,-7.2532,-7.2532,-7.2532,-7.2532,-7.2532,-7.2532,-7.2532,-7.2532,-7.2386,-7.2092,-7.1586,-7.0962,-7.0485,-6.9449,-6.8752,-6.8458,-6.7981,-6.7687,-6.7687,-6.7687,-6.7741,-6.7767,-6.8004,-6.8121,-6.8222,-6.865,-6.9109,-6.9611,-7.0345,-7.1352,-7.2545,-7.3339,-7.4191,-7.5271,-7.5518,-7.5535,-7.5549,-7.5583,-7.5666,-7.5785,-7.5848,-7.591,-7.597,-7.5962,-7.5976,-7.5976,-7.5976,-7.5976,-7.5976,-7.5976,-7.5976,-7.5976,-7.5976,-7.5976,-7.5976,-7.5976,-7.5976,-7.5976,-7.5976,-7.5976,-7.5976,-7.5976,-7.5976,-7.5976,-7.5976,-7.5976,-7.5976,-7.5938,-7.5952,-7.561,-7.5463,-7.5337,-7.5062,-7.5365,-7.5643,-7.5922,-7.6215,-7.6732,-7.7008,-7.7068,-7.7132,-7.7182,-7.7226,-7.7226,-7.7226,-7.7226,-7.7226,-7.7226,-7.7226,-7.7226,-7.8295,-7.7781,-7.742,-7.731,-7.731,-7.731,-7.731,-7.731,-7.731,-7.7047,-7.6607,-7.6533,-7.6276,-7.5842,-7.5799,-7.5799,-7.5732,-7.5542,-7.5065,-7.4441,-7.3377,-7.2973,-7.2899,-7.2606,-7.2532,-7.2532,-7.2532,-7.2532,-7.2532,-7.2532,-7.2532,-7.2532,-7.2532,-7.2496,-7.2496,-7.2018,-7.1623,-7.1183,-7.033,-6.9669,-6.9265,-6.8568,-6.8128,-6.8091,-6.7871,-6.7687,-6.7714,-6.7926,-6.8018,-6.8171,-6.8613,-6.9266,-7.0009,-7.074,-7.1693,-7.2945,-7.3722,-7.446,-7.533,-7.5535,-7.557,-7.5599,-7.5649,-7.5731,-7.5879,-7.591,-7.597,-7.6,-7.5976,-7.5976,-7.5976,-7.5976,-7.5976,-7.5976,-7.5976,-7.5976,-7.5976,-7.5976,-7.5976,-7.5976,-7.5976,-7.5976,-7.5976,-7.5976,-7.5976,-7.5976,-7.5976,-7.5976,-7.5976,-7.5976,-7.5976,-7.5976,-7.5976,-7.5976,-7.6029,-7.6038,-7.6147,-7.5992,-7.5929,-7.6061,-7.6199,-7.6504,-7.6909,-7.7012,-7.7071,-7.7091,-7.7148,-7.7187,-7.7226,-7.7226,-7.7226,-7.7226,-7.7226,-7.7226,-7.7305,-7.8626,-7.8479,-7.7671,-7.731,-7.731,-7.731,-7.731,-7.731,-7.731,-7.7273,-7.7237,-7.7163,-7.72,-7.7237,-7.7017,-7.7017,-7.7127,-7.6497,-7.613,-7.5689,-7.4661,-7.3854,-7.3523,-7.2863,-7.2532,-7.2532,-7.2532,-7.2532,-7.2532,-7.2532,-7.2532,-7.2532,-7.2532,-7.2532,-7.2496,-7.2496,-7.2092,-7.1513,-7.1256,-7.0807,-7.0146,-6.9376,-6.8972,-6.8935,-6.8238,-6.7871,-6.7898,-6.7947,-6.7993,-6.8171,-6.8707,-6.9497,-7.0495,-7.0924,-7.1956,-7.3668,-7.3934,-7.4539,-7.5292,-7.5587,-7.5599,-7.5649,-7.5785,-7.5895,-7.591,-7.597,-7.5962,-7.5976,-7.5976,-7.5976,-7.5976,-7.5976,-7.5976,-7.5976,-7.5976,-7.5976,-7.5976,-7.5976,-7.5976,-7.5976,-7.5976,-7.5976,-7.5976,-7.5976,-7.5976,-7.5976,-7.5976,-7.5976,-7.5976,-7.5976,-7.5976,-7.5976,-7.5976,-7.5976,-7.6029,-7.609,-7.6198,-7.6225,-7.6216,-7.6361,-7.6432,-7.6706,-7.6909,-7.7012,-7.7073,-7.7091,-7.7109,-7.7148,-7.7187,-7.7226,-7.7226,-7.7226,-7.7226,-7.7226,-7.7539,-7.914,-7.8516,-7.764,-7.731,-7.731,-7.731,-7.731,-7.731,-7.731,-7.731,-7.731,-7.731,-7.731,-7.731,-7.731,-7.731,-7.72,-7.7053,-7.7011,-7.6827,-7.5983,-7.4735,-7.3744,-7.2899,-7.2532,-7.2532,-7.2532,-7.2532,-7.2532,-7.2532,-7.2532,-7.2532,-7.2532,-7.2532,-7.2532,-7.2532,-7.2422,-7.2129,-7.155,-7.1256,-7.0954,-7.0183,-6.9779,-6.9706,-6.9009,-6.8641,-6.8558,-6.822,-6.8183,-6.8395,-6.8744,-6.9462,-7.0675,-7.1426,-7.2465,-7.3745,-7.4543,-7.5016,-7.5421,-7.5583,-7.5649,-7.5817,-7.5864,-7.591,-7.5985,-7.5962,-7.5976,-7.5976,-7.5976,-7.5976,-7.5976,-7.5976,-7.5976,-7.5976,-7.5976,-7.5976,-7.5976,-7.5976,-7.5976,-7.5976,-7.5976,-7.5976,-7.5976,-7.5976,-7.5976,-7.5976,-7.5976,-7.5976,-7.5976,-7.5976,-7.5976,-7.5976,-7.5976,-7.5976,-7.6005,-7.6118,-7.6198,-7.6238,-7.6359,-7.6526,-7.666,-7.6833,-7.695,-7.7016,-7.7076,-7.7097,-7.7103,-7.7148,-7.7187,-7.7226,-7.7226,-7.7226,-7.7226,-7.7226,-7.7695,-7.9507,-7.8993,-7.7818,-7.731,-7.731,-7.731,-7.731,-7.731,-7.731,-7.731,-7.731,-7.731,-7.731,-7.731,-7.731,-7.731,-7.731,-7.731,-7.7273,-7.7163,-7.6423,-7.5175,-7.3927,-7.3156,-7.2826,-7.2532,-7.2532,-7.2532,-7.2532,-7.2532,-7.2532,-7.2532,-7.2532,-7.2532,-7.2532,-7.2532,-7.2532,-7.2422,-7.2018,-7.1798,-7.1762,-7.1027,-7.066,-7.044,-6.9853,-6.9412,-6.9366,-6.9205,-6.9085,-6.91,-6.9327,-7.0053,-7.1513,-7.2234,-7.3184,-7.4353,-7.498,-7.5338,-7.5549,-7.5633,-7.5715,-7.5864,-7.591,-7.597,-7.5962,-7.5976,-7.5976,-7.5976,-7.5976,-7.5976,-7.5976,-7.5976,-7.5976,-7.5976,-7.5976,-7.5976,-7.5976,-7.5976,-7.5976,-7.5976,-7.5976,-7.5976,-7.5976,-7.5976,-7.5976,-7.5976,-7.5976,-7.5976,-7.5976,-7.5976,-7.5976,-7.5976,-7.5976,-7.5976,-7.602,-7.6118,-7.6225,-7.6263,-7.6416,-7.6643,-7.6801,-7.6897,-7.6965,-7.7024,-7.7076,-7.7099,-7.7103,-7.7148,-7.7187,-7.7226,-7.7226,-7.7226,-7.7226,-7.7383,-7.7851,-7.9837,-7.9653,-7.8112,-7.7384,-7.731,-7.731,-7.731,-7.731,-7.731,-7.731,-7.731,-7.731,-7.731,-7.731,-7.731,-7.731,-7.731,-7.731,-7.731,-7.709,-7.657,-7.5542,-7.4331,-7.3744,-7.3266,-7.2789,-7.2606,-7.2532,-7.2532,-7.2532,-7.2532,-7.2532,-7.2532,-7.2532,-7.2532,-7.2532,-7.2532,-7.2532,-7.2459,-7.2349,-7.2275,-7.1762,-7.1468,-7.1321,-7.066,-7.0146,-7.0119,-7.02,-7.0243,-6.9942,-7.0124,-7.1139,-7.2755,-7.322,-7.3927,-7.4848,-7.5245,-7.5427,-7.5599,-7.5699,-7.5779,-7.591,-7.597,-7.5976,-7.5976,-7.5976,-7.5976,-7.5976,-7.5976,-7.5976,-7.5976,-7.5976,-7.5976,-7.5976,-7.5976,-7.5976,-7.5976,-7.5976,-7.5976,-7.5976,-7.5976,-7.5976,-7.5976,-7.5976,-7.5976,-7.5976,-7.5976,-7.5976,-7.5976,-7.5976,-7.5976,-7.5976,-7.5976,-7.5976,-7.6034,-7.6104,-7.6212,-7.6313,-7.6493,-7.6708,-7.6832,-7.6942,-7.697,-7.7032,-7.7076,-7.7094,-7.7099,-7.7148,-7.7187,-7.7226,-7.7226,-7.7226,-7.7226,-7.7578,-7.8008,-8.0388,-7.969,-7.8736,-7.7928,-7.7347,-7.731,-7.731,-7.731,-7.731,-7.731,-7.731,-7.731,-7.731,-7.731,-7.731,-7.731,-7.731,-7.731,-7.731,-7.7273,-7.7163,-7.6533,-7.5432,-7.4441,-7.367,-7.334,-7.2789,-7.2532,-7.2532,-7.2569,-7.2532,-7.2532,-7.2532,-7.2532,-7.2532,-7.2532,-7.2532,-7.2532,-7.2532,-7.2532,-7.2532,-7.2349,-7.2165,-7.2092,-7.1431,-7.077,-7.0275,-7.0347,-7.0756,-7.1098,-7.1256,-7.179,-7.2816,-7.3312,-7.4003,-7.4905,-7.5376,-7.5514,-7.5644,-7.5779,-7.5895,-7.597,-7.6,-7.5976,-7.5976,-7.5976,-7.5976,-7.5976,-7.5976,-7.5976,-7.5976,-7.5976,-7.5976,-7.5976,-7.5976,-7.5976,-7.5976,-7.5976,-7.5976,-7.5976,-7.5976,-7.5976,-7.5976,-7.5976,-7.5976,-7.5976,-7.5976,-7.5976,-7.5976,-7.5976,-7.5976,-7.5976,-7.5976,-7.5976,-7.602,-7.6118,-7.6263,-7.6374,-7.6534,-7.6734,-7.6855,-7.6954,-7.698,-7.7032,-7.7073,-7.7087,-7.7097,-7.7148,-7.7226,-7.7226,-7.7226,-7.7226,-7.7305,-7.7695,-7.8281,-8.0534,-7.9727,-7.8919,-7.8112,-7.7347,-7.731,-7.731,-7.731,-7.731,-7.731,-7.731,-7.731,-7.731,-7.731,-7.731,-7.731,-7.731,-7.731,-7.731,-7.731,-7.7273,-7.7017,-7.6607,-7.5469,-7.4661,-7.4221,-7.345,-7.3083,-7.301,-7.2716,-7.2532,-7.2532,-7.2532,-7.2532,-7.2532,-7.2532,-7.2532,-7.2532,-7.2532,-7.2532,-7.2532,-7.2532,-7.2532,-7.2496,-7.2092,-7.1615,-7.1349,-7.1526,-7.1884,-7.2193,-7.2397,-7.2739,-7.3394,-7.3824,-7.4422,-7.5019,-7.5448,-7.5583,-7.5715,-7.581,-7.5925,-7.6,-7.5976,-7.5976,-7.5976,-7.5976,-7.5976,-7.5976,-7.5976,-7.5976,-7.5976,-7.5976,-7.5976,-7.5976,-7.5976,-7.5976,-7.5976,-7.5976,-7.5976,-7.5976,-7.5976,-7.5976,-7.5976,-7.5976,-7.5976,-7.5976,-7.5976,-7.5976,-7.5976,-7.5976,-7.5976,-7.5976,-7.5976,-7.5991,-7.6044,-7.6131,-7.6313,-7.6405,-7.6555,-7.6734,-7.6879,-7.6942,-7.6985,-7.7032,-7.7068,-7.7089,-7.7109,-7.7148,-7.7226,-7.7226,-7.7226,-7.7226,-7.7422,-7.789,-7.8594,-8.0534,-7.9727,-7.8919,-7.8112,-7.7347,-7.731,-7.731,-7.731,-7.731,-7.731,-7.731,-7.731,-7.731,-7.731,-7.731,-7.731,-7.731,-7.731,-7.731,-7.731,-7.731,-7.7237,-7.698,-7.646,-7.5909,-7.5212,-7.4331,-7.3927,-7.3707,-7.323,-7.3083,-7.2789,-7.2716,-7.2679,-7.2569,-7.2532,-7.2532,-7.2532,-7.2532,-7.2532,-7.2532,-7.2532,-7.2532,-7.2496,-7.2459,-7.2386,-7.2333,-7.253,-7.2844,-7.3009,-7.3487,-7.3826,-7.4122,-7.4525,-7.4899,-7.519,-7.5427,-7.5616,-7.5692,-7.5826,-7.5955,-7.5976,-7.5976,-7.5976,-7.5976,-7.5976,-7.5976,-7.5976,-7.5976,-7.5976,-7.5976,-7.5976,-7.5976,-7.5976,-7.5976,-7.5976,-7.5976,-7.5976,-7.5976,-7.5976,-7.5976,-7.5976,-7.5976,-7.5976,-7.5976,-7.5976,-7.5976,-7.5976,-7.5976,-7.5976,-7.5976,-7.5976,-7.5976,-7.6048,-7.6076,-7.6118,-7.6301,-7.6477,-7.6614,-7.6717,-7.6864,-7.693,-7.697,-7.702,-7.7056,-7.7085,-7.7101,-7.7148,-7.7187,-7.7187,-7.7265,-7.7305,-7.7656,-7.8125,-7.8945,-8.0534,-7.9727,-7.8919,-7.8112,-7.7347,-7.731,-7.731,-7.731,-7.731,-7.731,-7.731,-7.731,-7.731,-7.731,-7.731,-7.731,-7.731,-7.731,-7.731,-7.731,-7.731,-7.731,-7.7237,-7.709,-7.687,-7.654,-7.5542,-7.4808,-7.4698,-7.4551,-7.3964,-7.3597,-7.3487,-7.3266,-7.2753,-7.2532,-7.2569,-7.2532,-7.2532,-7.2532,-7.2532,-7.2532,-7.2532,-7.2532,-7.2532,-7.2532,-7.2524,-7.2667,-7.2807,-7.3009,-7.341,-7.3728,-7.4043,-7.4476,-7.4836,-7.5152,-7.5445,-7.5633,-7.5692,-7.5872,-7.5947,-7.5976,-7.5976,-7.5976,-7.5976,-7.5976,-7.5976,-7.5976,-7.5976,-7.5976,-7.5976,-7.5976,-7.5976,-7.5976,-7.5976,-7.5976,-7.5976,-7.5976,-7.5976,-7.5976,-7.5976,-7.5976,-7.5976,-7.5976,-7.5976,-7.5976,-7.5976,-7.5976,-7.5976,-7.5976,-7.5976,-7.5976,-7.5976,-7.6062,-7.6145,-7.6185,-7.6276,-7.6466,-7.6604,-7.6699,-7.6809,-7.6871,-7.695,-7.7008,-7.7059,-7.7091,-7.7103,-7.7186,-7.7187,-7.7226,-7.7305,-7.7422,-7.8008,-7.8594,-7.9531,-8.0534,-7.9758,-7.8919,-7.8112,-7.7384,-7.731,-7.731,-7.731,-7.731,-7.731,-7.731,-7.731,-7.731,-7.731,-7.731,-7.731,-7.731,-7.731,-7.731,-7.731,-7.731,-7.731,-7.731,-7.731,-7.731,-7.709,-7.6466,-7.5836,-7.5506,-7.5028,-7.4771,-7.4441,-7.4331,-7.3927,-7.3303,-7.3156,-7.2863,-7.2679,-7.2532,-7.2532,-7.2532,-7.2532,-7.2532,-7.2532,-7.2532,-7.2532,-7.2524,-7.2638,-7.2779,-7.3037,-7.341,-7.3715,-7.4019,-7.4365,-7.4754,-7.5075,-7.5409,-7.5633,-7.5708,-7.5887,-7.5976,-7.5976,-7.5976,-7.5976,-7.5976,-7.5976,-7.5976,-7.5976,-7.5976,-7.5976,-7.5976,-7.5976,-7.5976,-7.5976,-7.5976,-7.5976,-7.5976,-7.5976,-7.5976,-7.5976,-7.5976,-7.5976,-7.5976,-7.5976,-7.5976,-7.5976,-7.5976,-7.5976,-7.5976,-7.5976,-7.5976,-7.5976,-7.5976,-7.6048,-7.6131,-7.6185,-7.6263,-7.6444,-7.6583,-7.6681,-7.6801,-7.6865,-7.6939,-7.6999,-7.7053,-7.7091,-7.7139,-7.7145,-7.7186,-7.7226,-7.7265,-7.75,-7.832,-7.914,-8.0,-8.0277,-7.947,-7.8662,-7.7965,-7.7347,-7.731,-7.731,-7.731,-7.731,-7.731,-7.731,-7.731,-7.731,-7.731,-7.731,-7.731,-7.731,-7.731,-7.731,-7.731,-7.731,-7.731,-7.731,-7.731,-7.731,-7.7273,-7.7163,-7.6943,-7.6387,-7.5873,-7.5432,-7.5175,-7.5139,-7.4735,-7.4111,-7.3964,-7.345,-7.301,-7.2753,-7.2716,-7.2569,-7.2532,-7.2532,-7.2532,-7.2532,-7.2532,-7.2496,-7.2582,-7.2751,-7.3,-7.332,-7.3653,-7.3947,-7.4297,-7.4649,-7.4977,-7.5338,-7.5566,-7.5747,-7.5856,-7.5985,-7.5976,-7.5976,-7.5976,-7.5976,-7.5976,-7.5976,-7.5976,-7.5976,-7.5976,-7.5976,-7.5976,-7.5976,-7.5976,-7.5976,-7.5976,-7.5976,-7.5976,-7.5976,-7.5976,-7.5976,-7.5976,-7.5976,-7.5976,-7.5976,-7.5976,-7.5976,-7.5976,-7.5976,-7.5976,-7.5976,-7.5976,-7.5991,-7.602,-7.609,-7.6172,-7.6263,-7.6421,-7.6553,-7.6691,-7.6793,-7.6865,-7.6939,-7.6995,-7.7046,-7.7083,-7.7133,-7.7142,-7.7186,-7.7226,-7.7226,-7.7734,-7.875,-7.9414,-8.0117,-7.947,-7.8662,-7.7818,-7.7384,-7.731,-7.731,-7.731,-7.731,-7.731,-7.731,-7.731,-7.731,-7.731,-7.731,-7.731,-7.731,-7.731,-7.731,-7.731,-7.731,-7.731,-7.731,-7.731,-7.731,-7.731,-7.731,-7.731,-7.7273,-7.7011,-7.6833,-7.657,-7.6093,-7.5909,-7.5579,-7.4845,-7.4771,-7.4331,-7.3707,-7.356,-7.323,-7.2716,-7.2606,-7.2569,-7.2532,-7.2532,-7.2532,-7.2496,-7.2553,-7.2695,-7.3009,-7.3204,-7.349,-7.3826,-7.4275,-7.4547,-7.4839,-7.5133,-7.5462,-7.5699,-7.5826,-7.5955,-7.6,-7.5976,-7.5976,-7.5976,-7.5976,-7.5976,-7.5976,-7.5976,-7.5976,-7.5976,-7.5976,-7.5976,-7.5976,-7.5976,-7.5976,-7.5976,-7.5976,-7.5976,-7.5976,-7.5976,-7.5976,-7.5976,-7.5976,-7.5976,-7.5976,-7.5976,-7.5976,-7.5976,-7.5976,-7.5976,-7.5976,-7.5976,-7.6005,-7.6062,-7.6131,-7.625,-7.6397,-7.6521,-7.6672,-7.6777,-7.6858,-7.6939,-7.6999,-7.7046,-7.7076,-7.7094,-7.7142,-7.7186,-7.7305,-7.7383,-7.8242,-7.9336,-7.9883,-8.039,-7.8919,-7.8516,-7.764,-7.731,-7.731,-7.731,-7.731,-7.731,-7.731,-7.731,-7.731,-7.731,-7.731,-7.731,-7.731,-7.731,-7.731,-7.731,-7.731,-7.731,-7.731,-7.731,-7.731,-7.731,-7.731,-7.731,-7.731,-7.731,-7.731,-7.7273,-7.7084,-7.6864,-7.6717,-7.6387,-7.5652,-7.5579,-7.5102,-7.4625,-7.4331,-7.3964,-7.3413,-7.3156,-7.2973,-7.2569,-7.2532,-7.2532,-7.2496,-7.2582,-7.2723,-7.3037,-7.3294,-7.3603,-7.3899,-7.4297,-7.4627,-7.4899,-7.5152,-7.5407,-7.5699,-7.5794,-7.5925,-7.5947,-7.5976,-7.5976,-7.5976,-7.5976,-7.5976,-7.5976,-7.5976,-7.5976,-7.5976,-7.5976,-7.5976,-7.5976,-7.5976,-7.5976,-7.5976,-7.5976,-7.5976,-7.5976,-7.5976,-7.5976,-7.5976,-7.5976,-7.5976,-7.5976,-7.5976,-7.5976,-7.5976,-7.5976,-7.5976,-7.5976,-7.5976,-7.5991,-7.6048,-7.6143,-7.6212,-7.635,-7.6499,-7.6633,-7.6768,-7.6844,-7.6933,-7.6995,-7.7039,-7.7073,-7.7094,-7.7101,-7.7145,-7.7383,-7.7617,-7.8555,-7.9492,-8.0351,-8.0937,-7.8479,-7.8222,-7.753,-7.731,-7.731,-7.731,-7.731,-7.731,-7.731,-7.731,-7.731,-7.731,-7.731,-7.731,-7.731,-7.731,-7.731,-7.731,-7.731,-7.731,-7.731,-7.731,-7.731,-7.731,-7.731,-7.731,-7.731,-7.731,-7.731,-7.7273,-7.7273,-7.731,-7.7163,-7.6907,-7.657,-7.635,-7.6019,-7.5285,-7.4955,-7.4515,-7.4111,-7.4001,-7.3523,-7.3083,-7.2789,-7.2716,-7.2561,-7.2638,-7.2779,-7.3037,-7.3346,-7.3678,-7.3971,-7.432,-7.467,-7.4919,-7.5171,-7.5445,-7.5666,-7.581,-7.5887,-7.5947,-7.5976,-7.5976,-7.5976,-7.5976,-7.5976,-7.5976,-7.5976,-7.5976,-7.5976,-7.5976,-7.5976,-7.5976,-7.5976,-7.5976,-7.5976,-7.5976,-7.5976,-7.5976,-7.5976,-7.5976,-7.5976,-7.5976,-7.5976,-7.5976,-7.5976,-7.5976,-7.5976,-7.5976,-7.5976,-7.5976,-7.5976,-7.5976,-7.602,-7.6129,-7.6198,-7.6313,-7.6466,-7.6614,-7.6752,-7.6837,-7.6939,-7.6995,-7.7039,-7.7073,-7.7094,-7.7099,-7.7148,-7.7383,-7.7734,-7.8633,-7.957,-8.0547,-8.1367,-7.8112,-7.7384,-7.731,-7.731,-7.731,-7.731,-7.731,-7.731,-7.731,-7.731,-7.731,-7.731,-7.731,-7.731,-7.731,-7.731,-7.731,-7.731,-7.731,-7.731,-7.731,-7.731,-7.731,-7.731,-7.731,-7.731,-7.731,-7.731,-7.731,-7.731,-7.731,-7.731,-7.731,-7.7237,-7.7127,-7.6943,-7.6717,-7.6019,-7.5542,-7.5139,-7.4882,-7.4771,-7.4404,-7.378,-7.356,-7.3303,-7.2569,-7.2777,-7.2872,-7.3101,-7.3435,-7.3753,-7.4043,-7.4365,-7.4712,-7.4959,-7.5208,-7.5442,-7.5644,-7.581,-7.5925,-7.5947,-7.5976,-7.5976,-7.5976,-7.5976,-7.5976,-7.5976,-7.5976,-7.5976,-7.5976,-7.5976,-7.5976,-7.5976,-7.5976,-7.5976,-7.5976,-7.5976,-7.5976,-7.5976,-7.5976,-7.5976,-7.5976,-7.5976,-7.5976,-7.5976,-7.5976,-7.5976,-7.5976,-7.5976,-7.5976,-7.5976,-7.5976,-7.5976,-7.6029,-7.6076,-7.6185,-7.6301,-7.6444,-7.6583,-7.6717,-7.6816,-7.6939,-7.6995,-7.7039,-7.7073,-7.7093,-7.7097,-7.7187,-7.7383,-7.7969,-7.9062,-8.0117,-8.1172,-8.1797,-7.7604,-7.731,-7.731,-7.731,-7.731,-7.731,-7.731,-7.731,-7.731,-7.731,-7.731,-7.731,-7.731,-7.731,-7.731,-7.731,-7.731,-7.731,-7.731,-7.731,-7.731,-7.731,-7.731,-7.731,-7.731,-7.731,-7.731,-7.731,-7.731,-7.731,-7.731,-7.731,-7.731,-7.7273,-7.7273,-7.731,-7.7053,-7.6907,-7.6466,-7.6203,-7.5689,-7.5616,-7.5249,-7.4515,-7.4595,-7.4183,-7.355,-7.3665,-7.3535,-7.3453,-7.3601,-7.3888,-7.416,-7.4454,-7.4774,-7.5113,-7.5358,-7.5625,-7.5737,-7.5848,-7.5925,-7.5962,-7.5976,-7.6053,-7.6169,-7.6053,-7.6015,-7.5976,-7.6092,-7.6207,-7.6053,-7.6015,-7.5976,-7.5976,-7.6053,-7.6169,-7.6169,-7.6284,-7.6169,-7.6284,-7.6092,-7.5976,-7.5976,-7.5976,-7.5976,-7.5976,-7.5976,-7.5976,-7.5976,-7.5976,-7.5976,-7.5976,-7.5976,-7.5976,-7.5991,-7.609,-7.6185,-7.6301,-7.6421,-7.6573,-7.6717,-7.683,-7.6939,-7.6995,-7.7039,-7.7073,-7.7089,-7.7096,-7.7226,-7.75,-7.8476,-7.9805,-8.082,-8.1758,-8.2265,-7.731,-7.731,-7.731,-7.731,-7.731,-7.731,-7.731,-7.731,-7.731,-7.731,-7.731,-7.731,-7.731,-7.731,-7.731,-7.731,-7.731,-7.731,-7.731,-7.731,-7.731,-7.731,-7.731,-7.731,-7.731,-7.731,-7.731,-7.731,-7.731,-7.731,-7.731,-7.731,-7.731,-7.731,-7.731,-7.731,-7.731,-7.731,-7.7237,-7.709,-7.6497,-7.652,-7.6183,-7.5551,-7.5558,-7.5138,-7.4642,-7.4552,-7.4337,-7.4078,-7.4038,-7.4172,-7.435,-7.4547,-7.4857,-7.5266,-7.5656,-7.5978,-7.6114,-7.6225,-7.6455,-7.6899,-7.6899,-7.6861,-7.6746,-7.6707,-7.6976,-7.6899,-7.6861,-7.6707,-7.6669,-7.6938,-7.7015,-7.7169,-7.713,-7.7169,-7.6976,-7.6938,-7.6707,-7.6553,-7.6322,-7.6015,-7.6015,-7.6015,-7.6015,-7.6015,-7.5976,-7.5976,-7.5976,-7.5976,-7.5976,-7.5976,-7.5976,-7.5976,-7.5991,-7.6104,-7.6198,-7.6263,-7.6397,-7.6583,-7.6696,-7.6837,-7.6939,-7.6995,-7.7039,-7.7073,-7.7089,-7.7137,-7.734,-7.7617,-7.8945,-8.0469,-8.1289,-8.2148,-8.2656,-7.731,-7.731,-7.731,-7.731,-7.731,-7.731,-7.731,-7.731,-7.731,-7.731,-7.731,-7.731,-7.731,-7.731,-7.731,-7.731,-7.731,-7.731,-7.731,-7.731,-7.731,-7.731,-7.731,-7.731,-7.731,-7.731,-7.731,-7.731,-7.731,-7.731,-7.731,-7.731,-7.731,-7.731,-7.731,-7.731,-7.731,-7.731,-7.731,-7.72,-7.7225,-7.7273,-7.6861,-7.6582,-7.6515,-7.6158,-7.5587,-7.5551,-7.5298,-7.4815,-7.4884,-7.4908,-7.4794,-7.4962,-7.5198,-7.5494,-7.6418,-7.6875,-7.7051,-7.7209,-7.7615,-7.7977,-7.7861,-7.7977,-7.8207,-7.8284,-7.813,-7.7823,-7.8015,-7.8169,-7.8284,-7.8284,-7.8169,-7.8092,-7.8015,-7.7938,-7.7707,-7.7592,-7.7361,-7.7246,-7.6592,-7.6092,-7.6053,-7.6053,-7.6053,-7.6053,-7.6015,-7.5976,-7.6015,-7.5976,-7.5976,-7.5976,-7.5976,-7.5976,-7.6005,-7.6118,-7.6212,-7.6263,-7.6397,-7.6573,-7.6726,-7.6823,-7.6921,-7.699,-7.7036,-7.7065,-7.7124,-7.7177,-7.7887,-7.875,-7.9805,-8.1054,-8.1836,-8.2461,-8.289,-7.731,-7.731,-7.731,-7.731,-7.731,-7.731,-7.731,-7.731,-7.731,-7.731,-7.731,-7.731,-7.731,-7.731,-7.731,-7.731,-7.731,-7.731,-7.731,-7.731,-7.731,-7.731,-7.731,-7.731,-7.731,-7.731,-7.731,-7.731,-7.731,-7.731,-7.731,-7.731,-7.731,-7.731,-7.731,-7.731,-7.731,-7.731,-7.7341,-7.7372,-7.75,-7.7554,-7.7496,-7.7282,-7.7427,-7.7077,-7.6402,-7.6505,-7.626,-7.5738,-7.5806,-7.5793,-7.5894,-7.6144,-7.6414,-7.6789,-7.76,-7.8179,-7.8583,-7.8923,-7.8746,-7.8746,-7.8631,-7.8669,-7.853,-7.8492,-7.8492,-7.8592,-7.8746,-7.8707,-7.8453,-7.8477,-7.84,-7.8361,-7.8323,-7.8323,-7.8207,-7.8184,-7.8107,-7.8092,-7.7669,-7.7169,-7.6976,-7.6823,-7.6746,-7.6476,-7.6438,-7.613,-7.6015,-7.6015,-7.5976,-7.5976,-7.5976,-7.5976,-7.602,-7.6118,-7.6185,-7.6225,-7.6397,-7.6594,-7.6696,-7.6816,-7.6915,-7.699,-7.7028,-7.7095,-7.7399,-7.7884,-7.91,-8.0117,-8.082,-8.1367,-8.2031,-8.2578,-8.3008,-7.731,-7.731,-7.731,-7.731,-7.731,-7.731,-7.731,-7.731,-7.731,-7.731,-7.731,-7.731,-7.731,-7.731,-7.731,-7.731,-7.731,-7.731,-7.731,-7.731,-7.731,-7.731,-7.731,-7.731,-7.731,-7.731,-7.731,-7.731,-7.731,-7.731,-7.731,-7.731,-7.731,-7.731,-7.731,-7.731,-7.731,-7.7304,-7.7372,-7.7463,-7.7584,-7.7673,-7.7791,-7.7834,-7.7875,-7.7803,-7.7497,-7.7347,-7.726,-7.6838,-7.6693,-7.6779,-7.7032,-7.7187,-7.7421,-7.7722,-7.8438,-7.9117,-7.9845,-8.0154,-7.99,-7.9631,-7.94,-7.94,-7.94,-7.9592,-7.9554,-7.9515,-7.9323,-7.9323,-7.9323,-7.9285,-7.9246,-7.9246,-7.9285,-7.9323,-7.9285,-7.9285,-7.8938,-7.8938,-7.8631,-7.8207,-7.7861,-7.7746,-7.7592,-7.7246,-7.6938,-7.6553,-7.6207,-7.613,-7.6053,-7.5976,-7.5976,-7.5976,-7.602,-7.6118,-7.6172,-7.6198,-7.6397,-7.6604,-7.6726,-7.6801,-7.6903,-7.6985,-7.7063,-7.7293,-7.7874,-7.8594,-7.9687,-8.0547,-8.125,-8.1758,-8.2226,-8.2734,-8.3203,-7.72,-7.7237,-7.7273,-7.7237,-7.731,-7.731,-7.731,-7.731,-7.731,-7.731,-7.731,-7.731,-7.731,-7.731,-7.731,-7.731,-7.731,-7.731,-7.731,-7.731,-7.731,-7.731,-7.731,-7.731,-7.731,-7.731,-7.731,-7.731,-7.731,-7.731,-7.731,-7.731,-7.731,-7.731,-7.731,-7.7341,-7.7372,-7.7402,-7.7463,-7.7584,-7.7703,-7.7842,-7.7957,-7.8043,-7.8127,-7.8174,-7.8063,-7.8081,-7.791,-7.767,-7.7539,-7.7378,-7.7287,-7.7235,-7.7493,-7.8027,-7.9048,-7.9889,-8.0542,-8.0815,-8.09,-8.0592,-8.0785,-8.0977,-8.0862,-8.0592,-8.0516,-8.0554,-8.0516,-8.0708,-8.0862,-8.0785,-8.0708,-8.0708,-8.0746,-8.0708,-8.0669,-8.0439,-7.9977,-7.9669,-7.9246,-7.8861,-7.8669,-7.8515,-7.84,-7.7977,-7.763,-7.7361,-7.6976,-7.6438,-7.6284,-7.5976,-7.5976,-7.5976,-7.6034,-7.6156,-7.6172,-7.6198,-7.6421,-7.6614,-7.6726,-7.6786,-7.6897,-7.7014,-7.7137,-7.7531,-7.8383,-7.9219,-8.0078,-8.0937,-8.1797,-8.2265,-8.2773,-8.3125,-8.3633,-7.5946,-7.6423,-7.646,-7.679,-7.7237,-7.7273,-7.731,-7.731,-7.731,-7.731,-7.731,-7.731,-7.731,-7.731,-7.731,-7.731,-7.731,-7.731,-7.731,-7.731,-7.731,-7.731,-7.731,-7.731,-7.731,-7.731,-7.731,-7.731,-7.731,-7.731,-7.731,-7.731,-7.731,-7.731,-7.7372,-7.7433,-7.7463,-7.7524,-7.762,-7.7703,-7.785,-7.7957,-7.8071,-7.8193,-7.8248,-7.8304,-7.8304,-7.8304,-7.8218,-7.8357,-7.8308,-7.8366,-7.8812,-7.892,-7.9161,-7.9667,-8.0211,-8.0613,-8.0888,-8.1007,-8.1093,-8.1093,-8.1093,-8.1093,-8.1093,-8.1093,-8.1093,-8.1093,-8.1093,-8.1093,-8.1093,-8.1093,-8.1093,-8.1093,-8.1093,-8.1054,-8.1016,-8.0862,-8.0477,-8.04,-7.9939,-7.9746,-7.9554,-7.9438,-7.9285,-7.8784,-7.8438,-7.8207,-7.7784,-7.7246,-7.6823,-7.6553,-7.6207,-7.6284,-7.6149,-7.6181,-7.6197,-7.6238,-7.6444,-7.6604,-7.6717,-7.6786,-7.6891,-7.7131,-7.7465,-7.8245,-7.9205,-7.9961,-8.0625,-8.1679,-8.2578,-8.2929,-8.332,-8.375,-8.4258,-7.5212,-7.5616,-7.5652,-7.6093,-7.6827,-7.7163,-7.731,-7.731,-7.731,-7.731,-7.731,-7.731,-7.731,-7.731,-7.731,-7.731,-7.731,-7.731,-7.731,-7.731,-7.731,-7.731,-7.731,-7.731,-7.731,-7.731,-7.731,-7.731,-7.731,-7.731,-7.731,-7.731,-7.731,-7.731,-7.7372,-7.7463,-7.7614,-7.7673,-7.7762,-7.7842,-7.7957,-7.8071,-7.8221,-7.8276,-7.8276,-7.8304,-7.8304,-7.8304,-7.8441,-7.8655,-7.8682,-7.8903,-7.9369,-7.9645,-7.9886,-8.0258,-8.0537,-8.0698,-8.0877,-8.0991,-8.1077,-8.1131,-8.117,-8.1093,-8.1093,-8.1093,-8.1093,-8.1093,-8.1093,-8.1093,-8.1093,-8.1093,-8.1093,-8.1093,-8.1093,-8.1093,-8.1093,-8.1093,-8.1054,-8.1054,-8.09,-8.0708,-8.0554,-8.04,-8.0285,-7.9977,-7.9708,-7.9438,-7.89,-7.8207,-7.7784,-7.7476,-7.6976,-7.663,-7.6496,-7.6437,-7.639,-7.6443,-7.6444,-7.6594,-7.6699,-7.6934,-7.7164,-7.7575,-7.7996,-7.8879,-7.987,-8.0425,-8.1133,-8.2187,-8.3086,-8.3554,-8.4062,-8.4726,-8.5273,-7.4735,-7.4808,-7.4882,-7.5432,-7.6166,-7.6864,-7.72,-7.731,-7.731,-7.731,-7.731,-7.731,-7.731,-7.731,-7.731,-7.731,-7.731,-7.731,-7.731,-7.731,-7.731,-7.731,-7.731,-7.731,-7.731,-7.731,-7.731,-7.731,-7.731,-7.731,-7.731,-7.731,-7.731,-7.7341,-7.7402,-7.7554,-7.7703,-7.785,-7.7928,-7.8043,-7.8071,-7.8193,-7.8304,-7.8276,-7.8304,-7.8304,-7.8304,-7.8369,-7.8451,-7.8602,-7.876,-7.8915,-7.9321,-7.9734,-8.0051,-8.0409,-8.0789,-8.1065,-8.1282,-8.1513,-8.1577,-8.1516,-8.1323,-8.1593,-8.1747,-8.1246,-8.1131,-8.1093,-8.1093,-8.1093,-8.1093,-8.1362,-8.1477,-8.14,-8.1323,-8.1246,-8.1131,-8.1093,-8.1093,-8.1093,-8.1054,-8.09,-8.09,-8.0708,-8.0669,-8.0823,-8.0746,-8.0439,-8.0015,-7.9246,-7.8707,-7.8361,-7.7784,-7.7337,-7.7328,-7.7193,-7.6814,-7.6752,-7.6842,-7.7136,-7.7601,-7.7641,-7.7514,-7.816,-7.8891,-7.9621,-8.0455,-8.1011,-8.1679,-8.25,-8.3359,-8.4062,-8.4765,-8.5508,-8.6094,-7.345,-7.4037,-7.4661,-7.5395,-7.6093,-7.6313,-7.6754,-7.7273,-7.731,-7.7273,-7.731,-7.731,-7.731,-7.731,-7.731,-7.731,-7.731,-7.731,-7.731,-7.731,-7.731,-7.731,-7.731,-7.731,-7.731,-7.731,-7.731,-7.731,-7.731,-7.731,-7.731,-7.731,-7.7341,-7.7372,-7.7493,-7.7643,-7.782,-7.7928,-7.8108,-7.8193,-7.8221,-7.8248,-7.8304,-7.8304,-7.8304,-7.8304,-7.8304,-7.8304,-7.8468,-7.8629,-7.8682,-7.8991,-7.943,-7.9816,-8.0051,-8.0369,-8.1268,-8.1678,-8.1956,-8.2342,-8.2615,-8.2824,-8.2862,-8.2939,-8.267,-8.167,-8.117,-8.117,-8.1208,-8.1208,-8.1323,-8.167,-8.19,-8.1785,-8.167,-8.1477,-8.1285,-8.1246,-8.1208,-8.1131,-8.1131,-8.1131,-8.1131,-8.1093,-8.1093,-8.1054,-8.1054,-8.09,-8.0823,-8.0285,-7.9515,-7.9092,-7.8554,-7.8184,-7.8137,-7.7964,-7.7585,-7.7795,-7.8019,-7.829,-7.8542,-7.8511,-7.8553,-7.9222,-7.9938,-8.0475,-8.1039,-8.1633,-8.2304,-8.2969,-8.3945,-8.4804,-8.5547,-8.6328,-8.6797,-7.2753,-7.3266,-7.4037,-7.4625,-7.5065,-7.5432,-7.6019,-7.668,-7.679,-7.6974,-7.7273,-7.731,-7.731,-7.731,-7.731,-7.731,-7.731,-7.731,-7.731,-7.731,-7.731,-7.731,-7.731,-7.731,-7.731,-7.731,-7.731,-7.731,-7.731,-7.731,-7.731,-7.731,-7.7341,-7.7402,-7.7584,-7.7732,-7.7871,-7.8014,-7.8221,-7.8276,-7.8304,-7.8304,-7.8304,-7.8304,-7.8313,-7.8341,-7.8304,-7.8304,-7.8468,-7.8869,-7.9186,-7.9654,-8.0193,-8.0779,-8.1149,-8.155,-8.211,-8.2633,-8.2838,-8.3209,-8.3708,-8.3747,-8.3632,-8.3439,-8.3362,-8.2554,-8.2516,-8.2516,-8.2477,-8.2516,-8.2516,-8.2785,-8.2824,-8.2708,-8.2708,-8.2631,-8.2554,-8.2516,-8.2208,-8.1785,-8.167,-8.1477,-8.14,-8.1093,-8.1093,-8.1093,-8.1093,-8.1093,-8.1093,-8.1093,-8.04,-7.9862,-7.9361,-7.9092,-7.903,-7.8773,-7.8409,-7.8696,-7.9129,-7.9057,-7.9109,-7.9364,-7.9661,-8.0181,-8.0637,-8.1019,-8.1584,-8.2179,-8.2732,-8.332,-8.4453,-8.5625,-8.6328,-8.6914,-8.7187,-7.2532,-7.2606,-7.3266,-7.3634,-7.378,-7.4441,-7.5212,-7.5909,-7.6056,-7.6497,-7.7053,-7.72,-7.7273,-7.731,-7.731,-7.731,-7.731,-7.731,-7.731,-7.731,-7.731,-7.731,-7.731,-7.731,-7.731,-7.731,-7.731,-7.731,-7.731,-7.731,-7.731,-7.731,-7.7372,-7.7402,-7.7584,-7.7732,-7.7871,-7.8043,-7.8221,-7.8276,-7.8304,-7.8341,-7.8415,-7.8425,-7.8462,-7.8462,-7.8564,-7.8666,-7.8776,-7.9306,-8.0053,-8.0517,-8.1009,-8.1589,-8.2038,-8.2464,-8.3066,-8.3403,-8.3588,-8.3917,-8.4061,-8.4055,-8.3901,-8.3901,-8.3901,-8.3901,-8.3862,-8.3785,-8.3785,-8.3516,-8.3555,-8.3708,-8.3708,-8.3516,-8.3555,-8.3593,-8.3555,-8.3516,-8.3016,-8.2477,-8.2285,-8.2093,-8.167,-8.1362,-8.1208,-8.1208,-8.1131,-8.1093,-8.1093,-8.1093,-8.0785,-8.0516,-8.0208,-8.0015,-7.9939,-7.9736,-7.9387,-7.9649,-7.9981,-7.9786,-7.9781,-8.0312,-8.0695,-8.0952,-8.1375,-8.1641,-8.2127,-8.2762,-8.3238,-8.3828,-8.4883,-8.6015,-8.6601,-8.7109,-8.7344,-7.2532,-7.2532,-7.2679,-7.3083,-7.367,-7.3854,-7.4404,-7.5175,-7.5836,-7.624,-7.6533,-7.7053,-7.731,-7.731,-7.731,-7.731,-7.731,-7.731,-7.731,-7.731,-7.731,-7.731,-7.731,-7.731,-7.731,-7.731,-7.731,-7.731,-7.731,-7.731,-7.731,-7.731,-7.731,-7.7426,-7.7695,-7.7813,-7.7937,-7.8136,-7.8248,-7.8313,-7.8388,-7.8499,-7.8787,-7.8945,-7.9279,-7.9688,-8.0022,-8.0208,-8.0442,-8.079,-8.1168,-8.1532,-8.1925,-8.2331,-8.2803,-8.3264,-8.3869,-8.4228,-8.445,-8.4933,-8.5077,-8.5209,-8.5209,-8.5286,-8.5286,-8.5324,-8.5247,-8.5093,-8.4824,-8.4016,-8.3978,-8.4478,-8.4593,-8.4093,-8.3862,-8.3862,-8.3862,-8.3862,-8.3632,-8.3401,-8.3285,-8.2862,-8.2285,-8.2016,-8.1823,-8.167,-8.1323,-8.1323,-8.1285,-8.1208,-8.1131,-8.0977,-8.0862,-8.0939,-8.0823,-8.0767,-8.0611,-8.0769,-8.0832,-8.0766,-8.0948,-8.15,-8.1839,-8.1685,-8.184,-8.211,-8.2671,-8.327,-8.398,-8.457,-8.539,-8.6289,-8.6914,-8.7265,-8.7422]},{"header":{"parameterUnit":"m.s-1","parameterCategory":1,"la1":31.0,"la2":29.5877,"lo1":-88.7671,"lo2":-86.6584,"dy":0.0162,"dx":0.0185,"nx":115,"ny":88,"refTime":"2024-02-24T06:00:00:Z","depth":0,"parameterNumber":3,"parameterNumberName":"V-component_of_WINDS"},"data":[0.0,0.0,0.0,0.0,0.0,0.0,0.0,0.0,0.0,0.0,0.0,0.0,0.0,0.0,0.0,0.0,0.0,0.0,0.0,0.0,0.0,0.0,0.0,0.0,0.0,0.0,0.0,0.0,0.0,0.0,0.0,0.0,0.0,0.0,0.0,0.0,0.0,0.0,0.0,0.0,0.0,0.0,0.0,0.0,0.0,0.0,0.0,0.0,0.0,0.0,0.0,0.0,0.0,0.0,0.0,0.0,0.0,0.0,0.0,0.0,0.0,0.0,0.0,0.0,0.0,0.0,0.0,0.0,0.0,0.0,0.0,0.0,0.0,0.0,0.0,0.0,0.0,0.0,0.0,0.0,0.0,0.0,0.0,0.0,0.0,0.0,0.0,0.0,0.0,0.0,0.0,0.0,0.0,0.0,0.0,0.0,0.0,0.0,0.0,0.0,0.0,0.0,0.0,0.0,0.0,0.0,0.0,0.0,0.0,0.0,0.0,0.0,0.0,0.0,0.0,0.0,0.0,0.0,0.0,0.0,0.0,0.0,0.0,0.0,0.0,0.0,0.0,0.0,0.0,0.0,0.0,0.0,0.0,0.0,0.0,0.0,0.0,0.0,0.0,0.0,0.0,0.0,0.0,0.0,0.0,0.0,0.0,0.0,0.0,0.0,0.0,0.0,0.0,0.0,0.0,0.0,0.0,0.0,0.0,0.0,0.0,0.0,0.0,0.0,0.0,0.0,0.0,0.0,0.0,0.0,0.0,0.0,0.0,0.0,0.0,0.0,0.0,0.0,0.0,0.0,0.0,0.0,0.0,0.0,0.0,0.0,0.0,0.0,0.0,0.0,0.0,0.0,0.0,0.0,0.0,0.0,0.0,0.0,0.0,0.0,0.0,0.0,0.0,0.0,0.0,0.0,0.0,0.0,0.0,0.0,0.0,0.0,0.0,0.0,0.0,0.0,0.0,0.0,0.0,0.0,0.0,0.0,0.0,0.0,0.0,0.0,0.0,0.0,0.0,0.0,0.0,0.0,0.0,0.0,0.0,0.0,0.0,0.0,0.0,0.0,0.0,0.0,0.0,0.0,0.0,0.0,0.0,0.0,0.0,0.0,0.0,0.0,0.0,0.0,0.0,0.0,0.0,0.0,0.0,0.0,0.0,0.0,0.0,0.0,0.0,0.0,0.0,0.0,0.0,0.0,0.0,0.0,0.0,0.0,0.0,0.0,0.0,0.0,0.0,0.0,0.0,0.0,0.0,0.0,0.0,0.0,0.0,0.0,0.0,0.0,0.0,0.0,0.0,0.0,0.0,0.0,0.0,0.0,0.0,0.0,0.0,0.0,0.0,0.0,0.0,0.0,0.0,0.0,0.0,0.0,0.0,0.0,0.0,0.0,0.0,0.0,0.0,0.0,0.0,0.0,0.0,0.0,0.0,0.0,0.0,0.0,0.0,0.0,0.0,0.0,0.0,0.0,0.0,0.0,0.0,0.0,0.0,0.0,0.0,0.0,0.0,0.0,0.0,0.0,0.0,0.0,0.0,0.0,0.0,0.0,0.0,0.0,0.0,0.0,0.0,0.0,0.0,0.0,0.0,0.0,0.0,0.0,0.0,0.0,0.0,0.0,0.0,0.0,0.0,0.0,0.0,0.0,0.0,0.0,0.0,0.0,0.0,0.0,0.0,0.0,0.0,0.0,0.0,0.0,0.0,0.0,0.0,0.0,0.0,0.0,0.0,0.0,0.0,0.0,0.0,0.0,0.0,0.0,0.0,0.0,0.0,0.0,0.0,0.0,0.0,0.0,0.0,0.0,0.0,0.0,0.0,0.0,0.0,0.0,0.0,0.0,0.0,0.0,0.0,0.0,0.0,0.0,0.0,0.0,0.0,0.0,0.0,0.0,0.0,0.0,0.0,0.0,0.0,0.0,0.0,0.0,0.0,0.0,0.0,0.0,0.0,0.0,0.0,0.0,0.0,0.0,0.0,0.0,0.0,0.0,0.0,0.0,0.0,0.0,0.0,0.0,0.0,0.0,0.0,0.0,0.0,0.0,0.0,0.0,0.0,0.0,0.0,0.0,0.0,0.0,0.0,0.0,0.0,0.0,0.0,0.0,0.0,0.0,0.0,0.0,0.0,0.0,0.0,0.0,0.0,0.0,0.0,0.0,0.0,0.0,0.0,0.0,0.0,0.0,0.0,0.0,0.0,0.0,0.0,0.0,0.0,0.0,0.0,0.0,0.0,0.0,0.0,0.0,0.0,0.0,0.0,0.0,0.0,0.0,0.0,0.0,0.0,0.0,0.0,0.0,0.0,0.0,0.0,0.0,0.0,0.0,0.0,0.0,0.0,0.0,0.0,0.0,0.0,0.0,0.0,0.0,0.0,0.0,0.0,0.0,0.0,0.0,0.0,0.0,0.0,0.0,0.0,0.0,0.0,0.0,0.0,0.0,0.0,0.0,0.0,0.0,0.0,0.0,0.0,0.0,0.0,0.0,0.0,0.0,0.0,0.0,0.0,0.0,0.0,0.0,0.0,0.0,0.0,0.0,0.0,0.0,0.0,0.0,0.0,0.0,0.0,0.0,0.0,0.0,0.0,0.0,0.0,0.0,0.0,0.0,0.0,0.0,0.0,0.0,0.0,0.0,0.0,0.0,0.0,0.0,0.0,0.0,0.0,0.0,0.0,0.0,0.0,0.0,0.0,0.0,0.0,0.0,0.0,0.0,0.0,0.0,0.0,0.0,0.0,0.0,0.0,0.0,0.0,0.0,0.0,0.0,0.0,0.0,0.0,0.0,0.0,0.0,0.0,0.0,0.0,0.0,0.0,0.0,0.0,0.0,0.0,0.0,0.0,0.0,0.0,0.0,0.0,0.0,0.0,0.0,0.0,0.0,0.0,0.0,0.0,0.0,0.0,0.0,0.0,0.0,0.0,0.0,0.0,0.0,0.0,0.0,0.0,0.0,0.0,0.0,0.0,0.0,0.0,0.0,0.0,0.0,0.0,0.0,0.0,0.0,0.0,0.0,0.0,0.0,0.0,0.0,0.0,0.0,0.0,0.0,0.0,0.0,0.0,0.0,0.0,0.0,0.0,0.0,0.0,0.0,0.0,0.0,0.0,0.0,0.0,0.0,0.0,0.0,0.0,0.0,0.0,0.0,0.0,0.0,0.0,0.0,0.0,0.0,0.0,0.0,0.0,0.0,0.0,0.0,0.0,0.0,0.0,0.0,0.0,0.0,0.0,0.0,0.0,0.0,0.0,0.0,0.0,0.0,0.0,0.0,0.0,0.0,0.0,0.0,0.0,0.0,0.0,0.0,0.0,0.0,0.0,0.0,0.0,0.0,0.0,0.0,0.0,0.0,0.0,0.0,0.0,0.0,0.0,0.0,0.0,0.0,0.0,0.0,0.0,0.0,0.0,0.0,0.0,0.0,0.0,0.0,0.0,0.0,0.0,0.0,0.0,0.0,0.0,0.0,0.0,0.0,0.0,0.0,0.0,0.0,0.0,0.0,0.0,0.0,0.0,0.0,0.0,0.0,0.0,0.0,0.0,0.0,0.0,0.0,0.0,0.0,0.0,0.0,0.0,0.0,0.0,0.0,0.0,0.0,0.0,0.0,0.0,0.0,0.0,0.0,0.0,0.0,0.0,0.0,0.0,0.0,0.0,0.0,0.0,0.0,0.0,0.0,0.0,0.0,0.0,0.0,0.0,0.0,0.0,0.0,0.0,0.0,0.0,0.0,0.0,0.0,0.0,0.0,0.0,0.0,0.0,0.0,0.0,0.0,0.0,0.0,0.0,0.0,0.0,0.0,0.0,0.0,0.0,0.0,0.0,0.0,0.0,0.0,0.0,0.0,0.0,0.0,0.0,0.0,0.0,0.0,0.0,0.0,0.0,0.0,0.0,0.0,0.0,0.0,0.0,0.0,0.0,0.0,0.0,0.0,0.0,0.0,0.0,0.0,0.0,0.0,0.0,0.0,0.0,0.0,0.0,0.0,0.0,0.0,0.0,0.0,0.0,0.0,0.0,0.0,0.0,0.0,0.0,0.0,0.0,0.0,0.0,0.0,0.0,0.0,0.0,0.0,0.0,0.0,0.0,0.0,0.0,0.0,0.0,0.0,0.0,0.0,0.0,0.0,0.0,0.0,0.0,0.0,0.0,0.0,0.0,0.0,0.0,0.0,0.0,0.0,0.0,0.0,0.0,0.0,0.0,0.0,0.0,0.0,0.0,0.0,0.0,0.0,0.0,0.0,0.0,0.0,0.0,0.0,0.0,0.0,-1.0743,0.0,0.0,0.0,0.0,0.0,0.0,0.0,0.0,0.0,0.0,0.0,0.0,0.0,0.0,0.0,0.0,0.0,0.0,0.0,0.0,0.0,0.0,0.0,0.0,0.0,0.0,0.0,0.0,0.0,0.0,0.0,0.0,0.0,0.0,0.0,0.0,0.0,0.0,0.0,0.0,0.0,0.0,0.0,0.0,0.0,0.0,0.0,0.0,0.0,0.0,0.0,0.0,0.0,0.0,0.0,0.0,0.0,0.0,0.0,0.0,0.0,0.0,0.0,0.0,0.0,0.0,0.0,0.0,0.0,0.0,0.0,0.0,0.0,0.0,0.0,0.0,0.0,0.0,0.0,0.0,0.0,0.0,0.0,0.0,0.0,0.0,0.0,0.0,0.0,0.0,0.0,0.0,0.0,0.0,0.0,0.0,0.0,0.0,0.0,0.0,0.0,0.0,0.0,0.0,0.0,0.0,0.0,0.0,0.0,0.0,-1.2802,-1.176,-1.1507,-1.1181,-1.0688,0.0,0.0,0.0,0.0,0.0,0.0,0.0,0.0,0.0,0.0,0.0,0.0,0.0,0.0,0.0,0.0,0.0,0.0,0.0,0.0,0.0,0.0,0.0,0.0,0.0,0.0,0.0,0.0,0.0,0.0,0.0,0.0,0.0,0.0,0.0,0.0,0.0,0.0,0.0,0.0,0.0,0.0,0.0,0.0,0.0,0.0,0.0,0.0,0.0,0.0,0.0,0.0,0.0,0.0,0.0,0.0,0.0,0.0,0.0,0.0,0.0,0.0,0.0,0.0,0.0,0.0,0.0,0.0,0.0,0.0,0.0,0.0,0.0,0.0,0.0,0.0,0.0,0.0,0.0,0.0,0.0,0.0,0.0,0.0,0.0,0.0,0.0,0.0,0.0,0.0,0.0,0.0,0.0,0.0,0.0,0.0,0.0,0.0,0.0,0.0,0.0,0.0,0.0,0.0,0.0,0.0,0.0,0.0,0.0,0.0,0.0,0.0,-1.1673,-1.1291,-1.0751,0.0,0.0,0.0,0.0,0.0,0.0,0.0,0.0,0.0,0.0,0.0,0.0,0.0,0.0,0.0,0.0,0.0,0.0,0.0,0.0,0.0,0.0,0.0,0.0,0.0,0.0,0.0,0.0,0.0,0.0,0.0,0.0,0.0,0.0,0.0,0.0,0.0,0.0,0.0,0.0,0.0,0.0,0.0,0.0,0.0,0.0,0.0,0.0,0.0,0.0,0.0,0.0,0.0,0.0,0.0,0.0,0.0,0.0,0.0,0.0,0.0,0.0,0.0,0.0,0.0,0.0,0.0,0.0,0.0,0.0,0.0,0.0,0.0,0.0,0.0,0.0,0.0,0.0,0.0,0.0,0.0,0.0,0.0,0.0,0.0,0.0,0.0,0.0,0.0,0.0,0.0,0.0,0.0,0.0,0.0,0.0,0.0,0.0,0.0,0.0,0.0,0.0,0.0,0.0,0.0,0.0,0.0,0.0,0.0,0.0,-1.3009,-1.2327,-1.1837,0.0,-1.0751,0.0,0.0,0.0,0.0,0.0,0.0,0.0,0.0,0.0,0.0,0.0,0.0,0.0,0.0,0.0,0.0,0.0,0.0,0.0,0.0,0.0,0.0,0.0,0.0,0.0,0.0,0.0,0.0,0.0,0.0,0.0,0.0,0.0,0.0,0.0,0.0,0.0,0.0,0.0,0.0,0.0,0.0,0.0,0.0,0.0,0.0,0.0,0.0,0.0,0.0,0.0,0.0,0.0,0.0,0.0,0.0,0.0,0.0,0.0,0.0,0.0,0.0,0.0,0.0,0.0,0.0,0.0,0.0,0.0,0.0,0.0,0.0,0.0,0.0,0.0,0.0,0.0,0.0,0.0,0.0,0.0,0.0,0.0,0.0,0.0,0.0,0.0,0.0,0.0,0.0,0.0,0.0,0.0,0.0,0.0,0.0,0.0,0.0,0.0,0.0,0.0,0.0,0.0,0.0,0.0,0.0,0.0,0.0,0.0,0.0,-1.2989,-1.2382,-1.1673,-1.1126,0.0,0.0,0.0,0.0,0.0,0.0,0.0,0.0,0.0,0.0,0.0,0.0,0.0,0.0,0.0,0.0,0.0,0.0,0.0,0.0,0.0,0.0,0.0,0.0,0.0,0.0,0.0,0.0,0.0,0.0,0.0,0.0,0.0,0.0,0.0,0.0,0.0,0.0,0.0,0.0,0.0,0.0,0.0,0.0,0.0,0.0,0.0,0.0,0.0,0.0,0.0,0.0,0.0,0.0,0.0,0.0,0.0,0.0,0.0,0.0,0.0,0.0,0.0,0.0,0.0,0.0,0.0,0.0,0.0,0.0,0.0,0.0,0.0,0.0,0.0,0.0,0.0,0.0,0.0,0.0,0.0,0.0,0.0,0.0,0.0,0.0,0.0,0.0,0.0,0.0,0.0,0.0,0.0,0.0,0.0,0.0,0.0,0.0,0.0,0.0,0.0,0.0,0.0,0.0,0.0,0.0,0.0,0.0,0.0,0.0,-1.3802,-1.2935,-1.2219,-1.1564,-1.1055,-1.0623,0.0,0.0,0.0,0.0,0.0,0.0,0.0,0.0,0.0,0.0,0.0,0.0,0.0,0.0,0.0,0.0,0.0,0.0,0.0,0.0,0.0,0.0,0.0,0.0,0.0,0.0,0.0,0.0,0.0,0.0,0.0,0.0,0.0,0.0,0.0,0.0,0.0,0.0,0.0,0.0,0.0,0.0,0.0,0.0,0.0,0.0,0.0,0.0,0.0,0.0,0.0,0.0,0.0,0.0,0.0,0.0,0.0,0.0,0.0,0.0,0.0,0.0,0.0,0.0,0.0,0.0,0.0,0.0,0.0,0.0,0.0,0.0,0.0,0.0,0.0,0.0,0.0,0.0,0.0,0.0,0.0,0.0,0.0,0.0,0.0,0.0,0.0,0.0,0.0,0.0,0.0,0.0,0.0,0.0,0.0,0.0,0.0,0.0,0.0,0.0,0.0,0.0,0.0,0.0,0.0,0.0,0.0,0.0,-1.4934,-1.391,-1.2772,-1.1673,-1.1627,-1.1213,0.0,0.0,0.0,0.0,0.0,0.0,0.0,0.0,0.0,0.0,0.0,0.0,0.0,0.0,0.0,0.0,0.0,0.0,0.0,0.0,0.0,0.0,0.0,0.0,0.0,0.0,0.0,0.0,0.0,0.0,0.0,0.0,0.0,0.0,0.0,0.0,0.0,0.0,0.0,0.0,0.0,0.0,0.0,0.0,0.0,0.0,0.0,0.0,0.0,0.0,0.0,0.0,0.0,0.0,0.0,0.0,0.0,0.0,0.0,0.0,0.0,0.0,0.0,0.0,0.0,0.0,0.0,0.0,0.0,0.0,0.0,0.0,0.0,0.0,0.0,0.0,0.0,0.0,0.0,0.0,0.0,0.0,0.0,0.0,0.0,0.0,0.0,0.0,0.0,0.0,0.0,0.0,0.0,0.0,0.0,0.0,0.0,0.0,0.0,0.0,0.0,0.0,0.0,0.0,0.0,0.0,0.0,0.0,0.0,-1.4987,-1.391,-1.2817,-1.19,-1.1682,-1.1322,0.0,0.0,0.0,0.0,0.0,0.0,0.0,0.0,0.0,0.0,0.0,0.0,0.0,0.0,0.0,0.0,0.0,0.0,0.0,0.0,0.0,0.0,0.0,0.0,0.0,0.0,0.0,0.0,0.0,0.0,0.0,0.0,0.0,0.0,0.0,0.0,0.0,0.0,0.0,0.0,0.0,0.0,0.0,0.0,0.0,0.0,0.0,0.0,0.0,0.0,0.0,0.0,0.0,0.0,0.0,0.0,0.0,0.0,0.0,0.0,0.0,0.0,0.0,0.0,0.0,0.0,0.0,0.0,0.0,0.0,0.0,0.0,0.0,0.0,0.0,0.0,0.0,0.0,0.0,0.0,0.0,0.0,0.0,0.0,0.0,0.0,0.0,0.0,0.0,0.0,0.0,0.0,0.0,0.0,0.0,0.0,0.0,0.0,0.0,0.0,0.0,0.0,0.0,0.0,0.0,0.0,0.0,0.0,0.0,-1.4761,0.0,-1.2935,-1.2164,-1.1782,-1.1341,0.0,0.0,0.0,0.0,0.0,0.0,0.0,0.0,0.0,0.0,0.0,0.0,0.0,0.0,0.0,0.0,0.0,0.0,0.0,0.0,0.0,0.0,0.0,0.0,0.0,0.0,0.0,0.0,0.0,0.0,0.0,0.0,0.0,0.0,0.0,0.0,0.0,0.0,0.0,0.0,0.0,0.0,0.0,0.0,0.0,0.0,0.0,0.0,0.0,0.0,0.0,0.0,0.0,0.0,0.0,0.0,0.0,0.0,0.0,0.0,0.0,0.0,0.0,0.0,0.0,0.0,0.0,0.0,0.0,0.0,0.0,0.0,0.0,0.0,0.0,0.0,0.0,0.0,0.0,0.0,0.0,0.0,0.0,0.0,0.0,0.0,0.0,0.0,0.0,0.0,0.0,0.0,0.0,0.0,0.0,0.0,0.0,0.0,0.0,0.0,0.0,0.0,0.0,0.0,0.0,0.0,0.0,0.0,-1.5363,-1.4288,-1.365,-1.3073,-1.2446,-1.191,-1.1343,0.0,0.0,0.0,0.0,0.0,0.0,0.0,0.0,0.0,0.0,0.0,0.0,0.0,0.0,0.0,0.0,0.0,0.0,0.0,0.0,0.0,0.0,0.0,0.0,0.0,0.0,0.0,0.0,0.0,0.0,0.0,0.0,0.0,0.0,0.0,0.0,0.0,0.0,0.0,0.0,0.0,0.0,0.0,0.0,0.0,0.0,0.0,0.0,0.0,0.0,0.0,0.0,0.0,0.0,0.0,0.0,0.0,0.0,0.0,0.0,0.0,0.0,0.0,0.0,0.0,0.0,0.0,0.0,0.0,0.0,0.0,0.0,0.0,0.0,0.0,0.0,0.0,0.0,0.0,0.0,0.0,0.0,0.0,0.0,0.0,0.0,0.0,0.0,0.0,0.0,0.0,0.0,0.0,0.0,0.0,0.0,0.0,0.0,0.0,0.0,0.0,0.0,0.0,0.0,0.0,0.0,0.0,0.0,0.0,-1.4801,-1.4523,-1.3968,-1.2986,-1.2598,-1.2019,0.0,0.0,0.0,0.0,0.0,0.0,0.0,0.0,0.0,0.0,0.0,0.0,0.0,0.0,0.0,0.0,0.0,0.0,0.0,0.0,0.0,0.0,0.0,0.0,0.0,0.0,0.0,0.0,0.0,0.0,0.0,0.0,0.0,0.0,0.0,0.0,0.0,0.0,0.0,0.0,0.0,0.0,0.0,0.0,0.0,0.0,0.0,0.0,0.0,0.0,0.0,0.0,0.0,0.0,0.0,0.0,0.0,0.0,0.0,0.0,0.0,0.0,0.0,0.0,0.0,0.0,0.0,0.0,0.0,0.0,0.0,0.0,0.0,0.0,0.0,0.0,0.0,0.0,0.0,0.0,0.0,0.0,0.0,0.0,0.0,0.0,0.0,0.0,0.0,0.0,0.0,0.0,0.0,0.0,0.0,0.0,0.0,0.0,0.0,0.0,0.0,0.0,0.0,0.0,0.0,0.0,0.0,0.0,0.0,-1.5931,-1.5241,-1.4533,-1.3872,-1.3177,-1.2477,-1.1783,0.0,0.0,0.0,0.0,0.0,0.0,0.0,0.0,0.0,0.0,0.0,0.0,0.0,0.0,0.0,0.0,0.0,0.0,0.0,0.0,0.0,0.0,0.0,0.0,0.0,0.0,0.0,0.0,0.0,0.0,0.0,0.0,0.0,0.0,0.0,0.0,0.0,0.0,0.0,0.0,0.0,0.0,0.0,0.0,0.0,0.0,0.0,0.0,0.0,0.0,0.0,0.0,0.0,0.0,0.0,0.0,0.0,0.0,0.0,0.0,0.0,0.0,0.0,0.0,0.0,0.0,0.0,0.0,0.0,0.0,0.0,0.0,0.0,0.0,0.0,0.0,0.0,0.0,0.0,0.0,0.0,0.0,0.0,0.0,0.0,0.0,0.0,0.0,0.0,0.0,0.0,0.0,0.0,0.0,0.0,0.0,0.0,0.0,0.0,0.0,0.0,0.0,0.0,0.0,0.0,0.0,0.0,0.0,-1.7586,-1.5953,-1.5102,-1.4945,-1.3652,-1.2812,0.0,0.0,0.0,0.0,0.0,0.0,0.0,0.0,0.0,0.0,0.0,0.0,0.0,0.0,0.0,0.0,0.0,0.0,0.0,0.0,0.0,0.0,0.0,0.0,0.0,0.0,0.0,0.0,0.0,0.0,0.0,0.0,0.0,0.0,0.0,0.0,0.0,0.0,0.0,0.0,0.0,0.0,0.0,0.0,0.0,0.0,0.0,0.0,0.0,0.0,0.0,0.0,0.0,0.0,0.0,0.0,0.0,0.0,0.0,0.0,0.0,0.0,0.0,0.0,0.0,0.0,0.0,0.0,0.0,0.0,0.0,0.0,0.0,0.0,0.0,0.0,0.0,0.0,0.0,0.0,0.0,0.0,0.0,0.0,0.0,0.0,0.0,0.0,0.0,0.0,0.0,0.0,0.0,0.0,0.0,0.0,0.0,0.0,0.0,0.0,0.0,0.0,0.0,0.0,0.0,0.0,0.0,0.0,0.0,-1.8349,-1.7936,-1.7066,-1.5796,-1.5205,-1.432,0.0,0.0,0.0,0.0,0.0,0.0,0.0,0.0,0.0,0.0,0.0,0.0,0.0,0.0,0.0,0.0,0.0,0.0,0.0,0.0,0.0,0.0,0.0,0.0,0.0,0.0,0.0,0.0,0.0,0.0,0.0,0.0,0.0,0.0,0.0,0.0,0.0,0.0,0.0,0.0,0.0,0.0,0.0,0.0,0.0,0.0,0.0,0.0,0.0,0.0,0.0,0.0,0.0,0.0,0.0,0.0,0.0,0.0,0.0,0.0,0.0,0.0,0.0,0.0,0.0,0.0,0.0,0.0,0.0,0.0,0.0,0.0,0.0,0.0,0.0,0.0,0.0,0.0,0.0,0.0,0.0,0.0,0.0,0.0,0.0,0.0,0.0,0.0,0.0,0.0,0.0,0.0,0.0,0.0,0.0,0.0,0.0,0.0,0.0,0.0,0.0,0.0,0.0,0.0,0.0,0.0,0.0,0.0,-1.9339,-1.9473,-1.9433,-1.8844,-1.765,-1.6503,-1.5171,0.0,0.0,0.0,0.0,0.0,0.0,0.0,0.0,0.0,0.0,0.0,0.0,0.0,0.0,0.0,0.0,0.0,0.0,0.0,0.0,0.0,0.0,0.0,0.0,0.0,0.0,0.0,0.0,0.0,0.0,0.0,0.0,0.0,0.0,0.0,0.0,0.0,0.0,0.0,0.0,0.0,0.0,0.0,0.0,0.0,0.0,0.0,0.0,0.0,0.0,0.0,0.0,0.0,0.0,0.0,0.0,0.0,0.0,0.0,0.0,0.0,0.0,0.0,0.0,0.0,0.0,0.0,0.0,0.0,0.0,0.0,0.0,0.0,0.0,0.0,0.0,0.0,0.0,0.0,0.0,0.0,0.0,0.0,0.0,0.0,0.0,0.0,0.0,0.0,0.0,0.0,0.0,0.0,0.0,0.0,0.0,0.0,0.0,0.0,0.0,0.0,0.0,0.0,0.0,0.0,0.0,0.0,0.0,-2.0081,-2.0693,-2.0573,-2.0385,-1.9905,-1.7593,-1.5746,0.0,0.0,0.0,0.0,0.0,0.0,0.0,0.0,0.0,0.0,0.0,0.0,0.0,0.0,0.0,0.0,0.0,0.0,0.0,0.0,0.0,0.0,0.0,0.0,0.0,0.0,0.0,0.0,0.0,0.0,0.0,0.0,0.0,0.0,0.0,0.0,0.0,0.0,0.0,0.0,0.0,0.0,0.0,0.0,0.0,0.0,0.0,0.0,0.0,0.0,0.0,0.0,0.0,0.0,0.0,0.0,0.0,0.0,0.0,0.0,0.0,0.0,0.0,0.0,0.0,0.0,0.0,0.0,0.0,0.0,0.0,0.0,0.0,0.0,0.0,0.0,0.0,0.0,0.0,0.0,0.0,0.0,0.0,0.0,0.0,0.0,0.0,0.0,0.0,0.0,0.0,0.0,0.0,0.0,0.0,0.0,0.0,0.0,0.0,0.0,0.0,0.0,0.0,0.0,0.0,0.0,0.0,0.0,-2.0724,-2.1254,-2.1486,-2.123,-2.0553,-1.8494,-1.6848,0.0,0.0,0.0,0.0,0.0,0.0,0.0,0.0,0.0,0.0,0.0,0.0,0.0,0.0,0.0,0.0,0.0,0.0,0.0,0.0,0.0,0.0,0.0,0.0,0.0,0.0,0.0,0.0,0.0,0.0,0.0,0.0,0.0,0.0,0.0,0.0,0.0,0.0,0.0,0.0,0.0,0.0,0.0,0.0,0.0,0.0,0.0,0.0,-0.5941,0.0,0.0,0.0,0.0,0.0,0.0,0.0,0.0,0.0,0.0,0.0,0.0,0.0,0.0,0.0,0.0,0.0,0.0,0.0,0.0,0.0,0.0,0.0,0.0,0.0,0.0,0.0,0.0,0.0,0.0,0.0,0.0,0.0,0.0,0.0,0.0,0.0,0.0,0.0,0.0,0.0,0.0,0.0,0.0,0.0,0.0,0.0,0.0,0.0,0.0,0.0,0.0,0.0,0.0,0.0,0.0,0.0,0.0,0.0,-2.1232,-2.1832,-2.2,-2.1876,-2.1344,-1.961,-1.7805,0.0,0.0,0.0,0.0,0.0,0.0,0.0,0.0,0.0,0.0,0.0,0.0,0.0,0.0,0.0,0.0,0.0,0.0,0.0,0.0,0.0,0.0,0.0,0.0,0.0,0.0,0.0,0.0,0.0,0.0,0.0,0.0,0.0,0.0,0.0,0.0,0.0,0.0,0.0,0.0,0.0,0.0,0.0,0.0,0.0,0.0,0.0,0.0,0.0,0.0,0.0,0.0,0.0,0.0,0.0,0.0,0.0,0.0,0.0,0.0,0.0,0.0,0.0,0.0,0.0,0.0,0.0,0.0,0.0,0.0,0.0,0.0,0.0,0.0,0.0,0.0,0.0,0.0,0.0,0.0,0.0,0.0,0.0,0.0,0.0,0.0,0.0,0.0,0.0,0.0,0.0,0.0,0.0,0.0,0.0,0.0,0.0,0.0,0.0,0.0,0.0,0.0,0.0,0.0,0.0,0.0,0.0,-2.0521,-2.155,-2.2445,-2.2385,-2.2328,-2.2205,-2.0692,-1.874,-1.6525,0.0,0.0,0.0,0.0,0.0,0.0,0.0,0.0,0.0,0.0,0.0,0.0,0.0,0.0,0.0,0.0,0.0,0.0,0.0,0.0,0.0,0.0,0.0,0.0,0.0,0.0,0.0,0.0,0.0,0.0,0.0,0.0,0.0,0.0,0.0,0.0,0.0,0.0,-0.8072,-0.8228,0.0,0.0,0.0,0.0,0.0,0.0,0.0,0.0,-0.4874,0.0,0.0,0.0,0.0,0.0,0.0,0.0,0.0,0.0,0.0,0.0,0.0,0.0,0.0,0.0,0.0,0.0,0.0,0.0,0.0,0.0,0.0,0.0,0.0,0.0,0.0,0.0,0.0,0.0,0.0,0.0,0.0,0.0,0.0,0.0,0.0,0.0,0.0,0.0,0.0,0.0,0.0,0.0,0.0,0.0,0.0,0.0,0.0,0.0,0.0,0.0,0.0,0.0,0.0,0.0,0.0,-1.9417,-2.0521,-2.1657,-2.2752,-2.2764,-2.2697,-2.2543,-2.1386,-1.9866,-1.7929,0.0,0.0,0.0,0.0,0.0,0.0,0.0,0.0,0.0,0.0,0.0,0.0,0.0,0.0,0.0,0.0,0.0,0.0,0.0,0.0,0.0,0.0,0.0,0.0,0.0,0.0,0.0,0.0,0.0,0.0,0.0,0.0,0.0,0.0,0.0,0.0,0.0,0.0,0.0,-0.8465,-0.8541,0.0,0.0,0.0,0.0,0.0,0.0,0.0,0.0,-0.4405,0.0,0.0,0.0,0.0,0.0,0.0,0.0,0.0,0.0,0.0,0.0,0.0,0.0,0.0,0.0,0.0,0.0,0.0,0.0,0.0,0.0,0.0,0.0,0.0,0.0,0.0,0.0,0.0,0.0,0.0,0.0,0.0,0.0,0.0,0.0,0.0,0.0,0.0,0.0,0.0,0.0,0.0,0.0,0.0,0.0,0.0,0.0,0.0,0.0,0.0,0.0,0.0,0.0,0.0,0.0,-1.9359,-2.0508,-2.1603,-2.2592,-2.2779,-2.2865,-2.2698,-2.1577,-2.0288,0.0,0.0,0.0,0.0,0.0,0.0,0.0,0.0,0.0,0.0,0.0,0.0,0.0,0.0,0.0,0.0,0.0,0.0,0.0,0.0,0.0,0.0,0.0,0.0,0.0,0.0,0.0,0.0,0.0,0.0,0.0,0.0,0.0,0.0,0.0,0.0,0.0,0.0,0.0,0.0,-0.8689,-0.8749,-0.8546,0.0,0.0,0.0,0.0,0.0,0.0,-0.5024,-0.4605,0.0,0.0,0.0,0.0,0.0,0.0,0.0,0.0,0.0,0.0,0.0,0.0,0.0,0.0,0.0,0.0,0.0,0.0,0.0,0.0,0.0,0.0,0.0,0.0,0.0,0.0,0.0,0.0,0.0,0.0,0.0,0.0,0.0,0.0,0.0,0.0,0.0,0.0,0.0,0.0,0.0,0.0,0.0,0.0,0.0,0.0,0.0,0.0,0.0,0.0,0.0,0.0,0.0,0.0,0.0,-1.9417,-2.0521,-2.1537,-2.2378,-2.2712,-2.2868,-2.2784,-2.1649,-2.0482,0.0,0.0,0.0,0.0,0.0,0.0,0.0,0.0,0.0,0.0,0.0,0.0,0.0,0.0,0.0,0.0,0.0,0.0,0.0,0.0,0.0,0.0,0.0,0.0,0.0,0.0,0.0,0.0,0.0,0.0,0.0,0.0,0.0,0.0,0.0,0.0,0.0,0.0,0.0,0.0,0.0,-0.8923,-0.878,-0.8551,0.0,0.0,0.0,0.0,-0.5819,-0.5178,0.0,0.0,0.0,0.0,0.0,0.0,0.0,0.0,0.0,0.0,0.0,0.0,0.0,0.0,0.0,0.0,0.0,0.0,0.0,0.0,0.0,0.0,0.0,0.0,0.0,0.0,0.0,0.0,0.0,0.0,0.0,0.0,0.0,0.0,0.0,0.0,0.0,0.0,0.0,0.0,0.0,0.0,0.0,0.0,0.0,0.0,0.0,0.0,0.0,0.0,0.0,0.0,0.0,0.0,0.0,0.0,-1.9359,-2.0521,-2.1537,-2.2378,-2.2712,-2.2868,-2.2784,-2.1649,-2.0548,0.0,0.0,0.0,0.0,0.0,0.0,0.0,0.0,0.0,0.0,0.0,0.0,0.0,0.0,0.0,0.0,0.0,0.0,0.0,0.0,0.0,0.0,0.0,0.0,0.0,0.0,0.0,0.0,0.0,0.0,0.0,0.0,0.0,0.0,0.0,0.0,0.0,0.0,0.0,0.0,0.0,-0.9071,-0.8929,-0.8613,-0.8206,0.0,0.0,-0.6467,-0.6116,-0.5534,0.0,0.0,0.0,0.0,0.0,0.0,0.0,0.0,0.0,0.0,0.0,0.0,0.0,0.0,0.0,0.0,0.0,0.0,0.0,0.0,0.0,0.0,0.0,0.0,0.0,0.0,0.0,0.0,0.0,0.0,0.0,0.0,0.0,0.0,0.0,0.0,0.0,0.0,0.0,0.0,0.0,0.0,0.0,0.0,0.0,0.0,0.0,0.0,0.0,0.0,0.0,0.0,0.0,0.0,0.0,-1.817,-1.9417,-2.0521,-2.1456,-2.2151,-2.2619,-2.2857,-2.2839,-2.1626,-2.0679,0.0,0.0,0.0,0.0,0.0,0.0,0.0,0.0,0.0,0.0,0.0,0.0,0.0,0.0,0.0,0.0,0.0,0.0,0.0,0.0,0.0,0.0,0.0,0.0,0.0,0.0,0.0,0.0,0.0,0.0,0.0,0.0,0.0,0.0,0.0,0.0,0.0,0.0,0.0,0.0,0.0,0.0,-0.9621,-0.9114,0.0,0.0,0.0,-0.7059,-0.6509,0.0,0.0,0.0,0.0,0.0,0.0,0.0,0.0,0.0,0.0,0.0,0.0,0.0,0.0,0.0,0.0,0.0,0.0,0.0,0.0,0.0,0.0,0.0,0.0,0.0,0.0,0.0,0.0,0.0,0.0,0.0,0.0,0.0,0.0,0.0,0.0,0.0,0.0,0.0,0.0,0.0,0.0,0.0,0.0,0.0,0.0,0.0,0.0,0.0,0.0,0.0,0.0,0.0,0.0,0.0,0.0,0.0,-1.9345,-2.0521,-2.139,-2.1977,-2.2565,-2.2859,-2.2859,-2.1696,0.0,0.0,0.0,0.0,0.0,0.0,0.0,0.0,0.0,0.0,0.0,0.0,0.0,0.0,0.0,0.0,0.0,0.0,0.0,0.0,0.0,0.0,0.0,0.0,0.0,0.0,0.0,-1.1396,0.0,0.0,0.0,0.0,0.0,0.0,0.0,0.0,0.0,0.0,0.0,0.0,0.0,0.0,-1.0292,-1.0311,-0.9718,-0.923,0.0,0.0,-0.7655,-0.7212,-0.7015,-0.6887,0.0,0.0,0.0,0.0,0.0,0.0,0.0,0.0,0.0,0.0,0.0,0.0,0.0,0.0,0.0,0.0,0.0,0.0,0.0,0.0,0.0,0.0,0.0,0.0,0.0,0.0,0.0,0.0,0.0,0.0,0.0,0.0,0.0,0.0,0.0,0.0,0.0,0.0,0.0,0.0,0.0,0.0,0.0,0.0,0.0,0.0,0.0,0.0,0.0,0.0,0.0,0.0,0.0,0.0,-1.817,-1.9417,-2.0521,-2.1403,-2.1977,-2.2565,-2.2859,-2.2846,-2.1696,-2.0872,0.0,0.0,0.0,0.0,0.0,0.0,0.0,0.0,0.0,0.0,0.0,0.0,0.0,0.0,0.0,0.0,0.0,0.0,0.0,0.0,0.0,0.0,0.0,0.0,0.0,0.0,0.0,0.0,0.0,0.0,0.0,0.0,0.0,0.0,0.0,0.0,0.0,0.0,0.0,0.0,0.0,-1.0767,-1.0762,-1.0433,-1.0059,0.0,-0.8863,-0.8236,-0.8172,-0.766,-0.7271,-0.7276,0.0,0.0,0.0,0.0,0.0,0.0,0.0,0.0,0.0,0.0,0.0,0.0,0.0,0.0,0.0,0.0,0.0,0.0,0.0,0.0,0.0,0.0,0.0,0.0,0.0,0.0,0.0,0.0,0.0,0.0,0.0,0.0,0.0,0.0,0.0,0.0,0.0,0.0,0.0,0.0,0.0,0.0,0.0,0.0,0.0,0.0,0.0,0.0,0.0,0.0,0.0,0.0,0.0,-1.817,-1.9417,-2.0521,-2.139,-2.1977,-2.2552,-2.2859,-2.2859,-2.183,-2.1069,0.0,0.0,0.0,0.0,0.0,0.0,0.0,0.0,0.0,0.0,0.0,0.0,0.0,0.0,0.0,0.0,0.0,0.0,0.0,0.0,0.0,0.0,0.0,0.0,0.0,0.0,0.0,0.0,-1.3125,-1.2889,-1.2848,0.0,0.0,0.0,0.0,0.0,0.0,0.0,0.0,0.0,0.0,-1.1393,-1.1404,-1.0863,0.0,0.0,-0.9642,-0.9044,-0.8847,-0.8844,-0.8828,-0.8562,-0.889,0.0,0.0,0.0,0.0,0.0,0.0,0.0,0.0,0.0,0.0,0.0,0.0,0.0,0.0,0.0,0.0,0.0,0.0,0.0,0.0,0.0,0.0,0.0,0.0,0.0,0.0,0.0,0.0,0.0,0.0,0.0,0.0,0.0,0.0,0.0,0.0,0.0,0.0,0.0,0.0,0.0,0.0,0.0,0.0,0.0,0.0,0.0,0.0,0.0,0.0,0.0,0.0,-1.8412,-1.9417,-2.0601,-2.1483,-2.1977,-2.2565,-2.2859,-2.2846,-2.2043,-2.133,0.0,0.0,0.0,0.0,0.0,0.0,0.0,0.0,0.0,0.0,0.0,0.0,0.0,0.0,0.0,0.0,0.0,0.0,0.0,0.0,0.0,0.0,0.0,0.0,0.0,0.0,0.0,0.0,-1.4259,-1.4025,-1.4004,0.0,0.0,0.0,0.0,0.0,0.0,0.0,0.0,0.0,0.0,-1.2019,-1.1946,-1.1445,-1.1082,-1.0951,-1.0492,-1.0046,-0.9771,-0.985,-0.9843,-0.9576,0.0,0.0,0.0,0.0,0.0,0.0,0.0,0.0,0.0,0.0,0.0,0.0,0.0,0.0,0.0,0.0,0.0,0.0,0.0,0.0,0.0,0.0,0.0,0.0,0.0,0.0,0.0,0.0,0.0,0.0,-1.7219,0.0,0.0,0.0,0.0,0.0,0.0,0.0,0.0,0.0,0.0,0.0,0.0,0.0,0.0,0.0,0.0,0.0,0.0,0.0,0.0,0.0,0.0,-1.8771,-1.9372,-2.0864,-2.1683,-2.1991,-2.2565,-2.2859,-2.2859,-2.2227,-2.1603,-2.0987,0.0,0.0,0.0,0.0,0.0,0.0,0.0,0.0,0.0,0.0,0.0,0.0,0.0,0.0,0.0,0.0,0.0,0.0,0.0,0.0,0.0,0.0,0.0,0.0,0.0,0.0,-1.5752,-1.5525,-1.5339,0.0,0.0,0.0,0.0,0.0,0.0,0.0,0.0,0.0,0.0,-1.2814,-1.2499,-1.2339,-1.2437,-1.2337,-1.2,-1.146,-1.1151,-1.1145,-1.053,-1.0127,0.0,0.0,0.0,0.0,0.0,0.0,0.0,0.0,0.0,0.0,0.0,0.0,0.0,0.0,0.0,0.0,0.0,0.0,0.0,0.0,0.0,0.0,0.0,0.0,0.0,0.0,0.0,-1.8905,-1.8568,0.0,0.0,0.0,0.0,0.0,0.0,0.0,0.0,0.0,0.0,0.0,-1.9345,-1.9158,0.0,0.0,0.0,0.0,0.0,0.0,0.0,0.0,0.0,0.0,0.0,0.0,-1.8971,-1.9947,-2.1002,-2.1856,-2.2258,-2.2659,-2.2859,-2.2859,-2.243,-2.1725,-2.0666,0.0,0.0,0.0,0.0,0.0,0.0,0.0,0.0,0.0,0.0,0.0,0.0,0.0,0.0,0.0,0.0,0.0,0.0,0.0,0.0,0.0,0.0,0.0,0.0,0.0,-1.6366,0.0,0.0,0.0,0.0,0.0,0.0,0.0,0.0,0.0,0.0,0.0,-1.362,-1.3475,-1.3319,-1.3178,-1.303,-1.283,-1.2657,0.0,0.0,0.0,0.0,0.0,0.0,0.0,0.0,0.0,0.0,0.0,0.0,0.0,0.0,-0.9416,-1.0152,-0.9787,-0.9202,-0.869,0.0,0.0,0.0,0.0,0.0,0.0,0.0,0.0,0.0,0.0,0.0,0.0,0.0,0.0,-1.9746,0.0,-1.9314,0.0,0.0,0.0,0.0,0.0,0.0,0.0,0.0,-1.988,-2.0067,-2.0241,-2.0067,-2.0067,0.0,-1.996,-1.9279,0.0,0.0,0.0,0.0,0.0,0.0,0.0,0.0,-1.9372,-2.0167,-2.1203,-2.1937,-2.2405,-2.2712,-2.2859,-2.2859,-2.2443,-2.1725,-2.0744,-1.9708,-1.8994,0.0,0.0,0.0,0.0,0.0,0.0,0.0,0.0,0.0,0.0,0.0,0.0,0.0,0.0,0.0,0.0,0.0,0.0,0.0,0.0,0.0,0.0,0.0,-1.6989,0.0,0.0,0.0,0.0,0.0,0.0,0.0,0.0,0.0,-1.4678,-1.4426,-1.4187,-1.3966,-1.3663,-1.351,-1.342,0.0,0.0,0.0,0.0,0.0,0.0,0.0,-1.0779,-1.0537,-1.0323,-0.9916,-0.9303,-0.9004,-0.8765,-0.8804,0.0,0.0,-0.9291,-0.891,-0.8229,-0.7703,-0.7105,-0.6495,-0.5419,-0.474,-0.4134,0.0,0.0,0.0,0.0,0.0,0.0,0.0,0.0,-2.1042,-2.0842,0.0,-2.0294,0.0,0.0,0.0,0.0,0.0,-2.0281,0.0,0.0,-2.1149,-2.1162,-2.1176,-2.1176,-2.1176,-2.1162,-2.0882,-2.0575,-2.0227,-1.9132,0.0,0.0,0.0,0.0,0.0,0.0,-1.996,-2.0307,-2.1403,-2.2124,-2.2432,-2.2712,-2.2859,-2.2859,-2.224,-2.1628,-2.1025,-2.0326,-1.9604,-1.8734,-1.8698,0.0,0.0,0.0,0.0,0.0,0.0,0.0,0.0,0.0,0.0,0.0,0.0,0.0,0.0,0.0,0.0,0.0,0.0,0.0,0.0,-1.8138,0.0,0.0,0.0,0.0,0.0,0.0,0.0,0.0,0.0,0.0,-1.5574,-1.4932,-1.4523,-1.4532,0.0,0.0,0.0,0.0,-1.3442,-1.3161,-1.294,-1.2466,-1.1749,-1.1266,-1.074,-1.0131,0.0,0.0,-0.7924,-0.7415,-0.7145,-0.7229,-0.663,-0.6525,-0.7978,-0.7591,-0.6898,-0.6142,-0.5926,-0.548,-0.4388,-0.3711,-0.3256,-2.3567,0.0,0.0,0.0,0.0,-2.167,-2.1844,-2.1937,-2.2231,-2.2031,-2.1483,-2.1483,0.0,0.0,0.0,0.0,0.0,0.0,-2.1577,-2.1764,-2.2164,-2.2472,-2.2686,-2.2458,-2.2472,-2.2672,-2.2164,-2.1777,-2.1456,-2.0722,-1.9746,-1.8557,0.0,0.0,0.0,0.0,-2.0254,-2.1149,-2.171,-2.2231,-2.2726,-2.2819,-2.2859,-2.2859,-2.224,-2.1719,-2.1305,-2.0426,-1.9776,-1.9318,-1.906,0.0,0.0,0.0,0.0,0.0,0.0,0.0,0.0,0.0,0.0,0.0,0.0,0.0,0.0,0.0,0.0,0.0,0.0,0.0,-1.8407,-1.8156,-1.7992,0.0,0.0,0.0,0.0,0.0,0.0,0.0,0.0,0.0,-1.5639,-1.5183,-1.4782,0.0,0.0,-1.3952,-1.3804,-1.3578,-1.3326,-1.3255,-1.2604,0.0,-1.1762,-1.0755,-0.9945,-0.9761,-0.87,-0.7625,-0.6735,-0.6249,-0.6,-0.5758,-0.5294,-0.5063,-0.5487,-0.5691,-0.5428,-0.4643,-0.4433,-0.3984,-0.288,-0.2483,-0.2169,-2.5504,-2.4356,-2.3487,-2.302,-2.2886,-2.306,-2.3126,-2.314,-2.3313,-2.306,-2.2525,-2.2512,-2.2258,-2.1804,-2.1804,0.0,0.0,0.0,-2.2579,-2.2712,-2.306,-2.3327,-2.3487,-2.3313,-2.3313,-2.3474,-2.3006,-2.2619,-2.2325,-2.1737,-2.0895,-1.9813,0.0,0.0,-1.9706,-2.0,-2.0615,-2.1588,-2.1844,-2.2271,-2.2914,-2.2859,-2.2859,-2.2859,-2.2481,-2.201,-2.142,-2.0889,-2.0265,-1.9705,-1.9483,-1.9398,0.0,0.0,0.0,0.0,0.0,0.0,0.0,0.0,0.0,0.0,0.0,-1.9262,-1.9418,0.0,0.0,0.0,-1.9242,-1.9061,-1.8694,-1.8352,0.0,0.0,0.0,0.0,0.0,0.0,0.0,-1.7267,-1.6644,-1.6137,-1.584,-1.5346,-1.4929,-1.469,-1.4415,-1.4126,-1.3874,0.0,-1.339,-1.3092,-1.2377,-1.1697,-1.126,-1.0134,-0.9151,-0.8517,-0.7338,-0.6325,-0.5783,-0.5288,-0.4867,-0.4578,-0.4103,-0.3707,-0.3734,-0.373,-0.3557,-0.3383,-0.3153,-0.2688,-0.1808,-0.1483,-0.1325,-2.7161,-2.6747,-2.513,-2.4409,-2.4342,-2.4315,-2.4315,-2.4302,-2.4315,-2.3995,-2.3474,-2.3474,-2.3287,-2.3035,-2.2966,0.0,-2.3407,-2.3447,-2.3607,-2.3946,-2.3901,-2.3901,-2.3915,-2.3888,-2.3875,-2.3875,-2.3554,-2.3247,-2.2953,-2.2352,-2.1777,-2.1243,-2.0641,-2.0321,-2.0294,-2.0535,-2.0962,-2.1614,-2.1844,-2.2271,-2.2914,-2.2859,-2.2859,-2.2859,-2.2859,-2.2398,-2.1471,-2.1365,-2.0901,-1.9996,-1.9905,-1.9881,-1.9881,0.0,0.0,0.0,0.0,0.0,0.0,0.0,0.0,0.0,0.0,0.0,0.0,0.0,0.0,0.0,-1.9044,0.0,-1.9157,-1.8606,0.0,0.0,0.0,-1.7933,-1.7849,-1.7556,-1.7336,-1.7326,0.0,0.0,-1.6131,-1.5467,-1.49,-1.4731,-1.4415,-1.4115,-1.3831,-1.3765,-1.3475,-1.2635,-1.2142,-1.1476,-1.0433,-0.9467,-0.8308,-0.6872,-0.5745,-0.5183,-0.4955,-0.4353,-0.3901,-0.3827,-0.3095,-0.2608,-0.2608,-0.1976,-0.1488,-0.2292,-0.2125,-0.1727,-0.1258,-0.0844,-0.0594,-2.7762,-2.7428,-2.68,-2.6146,-2.5531,-2.5304,-2.5197,-2.5197,-2.5211,-2.4997,-2.4663,-2.4663,-2.4369,-2.3888,-2.3888,-2.3928,-2.4008,-2.4462,-2.4703,-2.4783,-2.4997,-2.5104,-2.509,-2.4877,-2.477,-2.4743,-2.4249,-2.3955,-2.3848,-2.306,-2.2579,-2.2418,-2.1643,-2.1015,-2.0588,-2.0641,-2.1025,-2.1614,-2.1844,-2.2271,-2.2832,-2.2859,-2.2859,-2.2859,-2.2585,-2.2203,-2.1739,-2.1182,-2.0718,-2.025,-1.9989,-1.9881,-1.9881,-1.9881,0.0,0.0,0.0,0.0,0.0,0.0,0.0,0.0,0.0,-1.9301,-1.9485,0.0,-1.9606,0.0,-1.8903,-1.8487,-1.8249,-1.8041,0.0,0.0,-1.8117,-1.808,-1.7783,-1.7401,-1.7029,-1.674,-1.6156,-1.5624,-1.5328,-1.5106,-1.4918,-1.4711,-1.4531,-1.4244,-1.3847,-1.355,-1.3029,-1.2223,-1.1403,-1.0556,-0.9878,-0.8722,-0.7333,-0.577,-0.5254,-0.4806,-0.3799,-0.3489,-0.3261,-0.296,-0.2472,-0.2149,-0.2164,-0.1423,-0.0924,-0.1097,-0.1014,-0.0848,-0.043,0.0,0.0,-2.8377,-2.807,-2.7642,-2.7175,-2.6694,-2.6279,-2.6012,-2.5892,-2.5772,-2.5545,-2.5264,-2.5264,-2.509,-2.4796,-2.4783,-2.4783,-2.481,-2.513,-2.5277,-2.5277,-2.5438,-2.5518,-2.5504,-2.5211,-2.5077,-2.5064,-2.4623,-2.4329,-2.4168,-2.3567,-2.3126,-2.2928,-2.2245,-2.171,-2.1269,-2.1002,-2.1096,-2.1614,-2.1964,-2.2405,-2.2846,-2.2859,-2.2859,-2.2859,-2.2516,-2.2173,-2.1829,-2.1277,-2.086,-2.0517,-2.0315,-2.0231,-2.0231,-2.0095,-2.0027,0.0,0.0,0.0,0.0,0.0,0.0,0.0,0.0,0.0,0.0,0.0,-1.9094,-1.8734,-1.8404,-1.8226,-1.8107,-1.7748,-1.7566,-1.7663,-1.7481,-1.7246,-1.7029,-1.6793,-1.6642,-1.6424,-1.5949,-1.5503,-1.5278,-1.4977,-1.4716,-1.4586,-1.4286,-1.3997,-1.3771,-1.3393,-1.2863,-1.2112,-1.1333,-1.0301,-0.8992,-0.7759,-0.6494,-0.5109,-0.4675,-0.423,-0.3357,-0.3127,-0.2896,-0.2664,-0.2083,-0.1669,-0.168,-0.101,-0.0422,-0.0427,-0.0344,-0.0259,0.0,0.0,0.0,-2.8898,-2.8604,-2.8003,-2.7762,-2.7709,-2.7134,-2.6707,-2.6426,-2.6132,-2.5865,-2.5625,-2.5585,-2.5571,-2.5571,-2.5571,-2.5571,-2.5571,-2.5611,-2.5625,-2.5625,-2.5625,-2.5625,-2.5611,-2.5291,-2.513,-2.5117,-2.4796,-2.4502,-2.4249,-2.3968,-2.3611,-2.2979,-2.2645,-2.2338,-2.2031,-2.1496,-2.1363,-2.1735,-2.2164,-2.2565,-2.2859,-2.2859,-2.2859,-2.2859,-2.2448,-2.2104,-2.1841,-2.1346,-2.1012,-2.0735,-2.0665,-2.0665,-2.0596,-2.0354,-2.0168,0.0,-1.9979,0.0,0.0,0.0,0.0,0.0,0.0,0.0,0.0,-1.8874,-1.832,-1.7983,-1.7836,-1.7916,-1.8106,-1.7442,-1.7067,-1.7169,-1.6586,-1.6203,-1.6203,-1.6127,-1.6127,-1.6136,-1.5744,-1.5514,-1.5344,-1.4822,-1.4438,-1.4276,-1.3876,-1.363,-1.3575,-1.3337,-1.279,-1.196,-1.134,-0.9931,-0.8011,-0.6896,-0.5992,-0.4663,-0.4159,-0.3724,-0.3316,-0.2924,-0.2691,-0.2607,-0.1932,-0.1345,-0.1346,-0.0589,0.0,0.0,0.0,0.0,0.0,0.0,0.0,-2.9005,-2.8898,-2.831,-2.814,-2.81,-2.7428,-2.7014,-2.672,-2.6426,-2.6279,-2.6199,-2.5972,-2.5879,-2.5879,-2.5879,-2.5879,-2.5879,-2.6119,-2.6226,-2.6226,-2.6226,-2.6226,-2.6186,-2.5678,-2.5424,-2.5398,-2.489,-2.4609,-2.4543,-2.4262,-2.3941,-2.3594,-2.3046,-2.2632,-2.2338,0.0,0.0,0.0,-2.2365,-2.2565,-2.2914,-2.2859,-2.2859,-2.2859,-2.2242,0.0,-2.176,-2.1151,-2.0804,-2.0735,-2.0665,0.0,0.0,0.0,0.0,0.0,0.0,0.0,0.0,0.0,0.0,0.0,-1.8635,-1.8659,-1.8309,-1.8285,-1.8245,-1.7964,-1.7681,-1.7398,-1.7122,-1.6675,-1.6389,-1.6424,-1.6289,-1.6203,-1.6203,-1.5897,-1.5744,-1.5735,-1.5352,-1.4976,-1.4684,-1.4515,-1.4214,-1.3906,-1.3505,-1.3274,-1.3197,-1.312,-1.2656,-1.1572,-1.033,-0.8807,-0.7303,-0.6695,-0.5873,-0.4415,-0.3956,-0.3655,-0.3012,-0.277,-0.2692,-0.2692,-0.1934,-0.1346,-0.1262,-0.0589,0.0,0.0,0.0,0.0,0.0,0.0,0.0,-2.8951,0.0,-2.8337,-2.8234,0.0,-2.7522,-2.7175,-2.7001,-2.6573,-2.64,-2.6373,-2.6239,-2.6172,-2.6172,-2.6172,-2.6172,-2.6172,-2.6319,-2.64,-2.64,-2.64,-2.64,-2.6373,-2.5945,-2.5651,-2.5491,-2.5064,-2.477,-2.4549,-2.4342,-2.4128,-2.3981,-2.3527,-2.3166,-2.2873,-2.2579,-2.2418,-2.2418,-2.2418,-2.2565,-2.2846,-2.2859,-2.2859,-2.2859,-2.2173,0.0,0.0,0.0,0.0,0.0,0.0,0.0,0.0,-2.0189,0.0,-1.9548,-1.9406,-1.9106,-1.8738,-1.8723,-1.8546,-1.817,-1.7891,-1.7786,-1.7936,-1.7875,-1.7757,-1.7407,-1.7044,-1.6739,-1.651,-1.6206,-1.6044,-1.6044,-1.5896,-1.5869,-1.5791,-1.5713,-1.547,-1.5236,-1.5001,-1.4767,-1.4375,-1.3986,-1.3793,-1.3545,-1.3092,-1.2811,-1.2811,-1.2811,-1.2424,-1.1417,-0.9864,-0.848,-0.7429,-0.6803,-0.5975,-0.4583,-0.4057,-0.3675,-0.3194,-0.2861,-0.2692,-0.2608,-0.1934,-0.1346,-0.1262,-0.0589,0.0,0.0,0.0,0.0,0.0,0.0,0.0,-2.8871,-2.8577,-2.8355,-2.8234,-2.8181,-2.7604,-2.7201,-2.7081,0.0,0.0,0.0,-2.64,-2.64,-2.64,-2.64,-2.64,-2.64,-2.64,-2.64,-2.64,-2.64,-2.64,-2.6373,-2.6171,-2.5825,-2.5585,-2.5237,-2.4957,-2.4703,-2.4422,-2.4249,-2.4182,-2.3968,-2.3701,-2.3407,-2.3153,-2.2899,-2.2672,-2.2552,-2.2619,-2.2928,-2.2859,-2.2859,-2.2859,-2.2173,-2.1785,-2.1836,-2.1155,-2.0762,-2.074,-2.0662,-2.0485,-2.0354,-1.9949,-1.9501,-1.9073,-1.8916,-1.8669,-1.8285,-1.8381,-1.8253,-1.7797,-1.7139,-1.7072,-1.7721,-1.7416,-1.7054,-1.6775,-1.641,-1.6197,-1.6146,-1.5983,-1.5842,-1.585,-1.5668,-1.5512,-1.5512,-1.5433,-1.5178,-1.4867,-1.4772,-1.4548,-1.4127,-1.3684,-1.3283,-1.3183,-1.283,-1.2501,-1.2501,-1.2347,-1.2037,-1.134,-0.9864,-0.8471,-0.7723,-0.6944,-0.5997,-0.4898,-0.4225,-0.3858,-0.3447,-0.3029,-0.2692,-0.2692,-0.1934,-0.143,-0.1262,-0.0589,0.0,0.0,0.0,0.0,0.0,0.0,0.0,-2.8871,-2.8591,-2.8355,-2.8234,-2.8181,-2.7509,-2.6987,-2.6507,-2.6426,-2.64,-2.64,-2.64,-2.64,-2.64,-2.64,-2.64,-2.64,-2.64,-2.64,-2.64,-2.64,-2.64,-2.6373,-2.6092,-2.5932,-2.5852,-2.5344,-2.5064,-2.4983,-2.4716,-2.4449,-2.4235,-2.4155,-2.3995,-2.3728,-2.3661,-2.3621,-2.3581,-2.3142,-2.2887,-2.2859,-2.2859,-2.2859,-2.2859,-2.2186,-2.1874,-2.2103,-2.1426,-2.097,-2.0899,-2.0875,-2.0538,-1.9826,-1.961,-1.9297,-1.8948,-1.8782,-1.8441,-1.8052,-1.8092,-1.7797,-1.7044,-1.6739,-1.668,-1.6901,-1.6586,-1.6428,-1.6501,-1.6138,-1.5973,-1.6117,-1.5772,-1.5559,-1.5559,-1.5504,-1.552,-1.5457,-1.513,-1.4898,-1.4738,-1.4468,-1.4164,-1.3764,-1.3468,-1.314,-1.2876,-1.2681,-1.2501,-1.2424,-1.1882,-1.1495,-1.1107,-0.9869,-0.8738,-0.808,-0.7096,-0.613,-0.5264,-0.4464,-0.383,-0.3524,-0.3111,-0.2777,-0.2692,-0.1934,-0.143,-0.1262,-0.0589,0.0,0.0,0.0,0.0,0.0,0.0,0.0,-2.8631,-2.835,-2.8288,-2.8234,-2.8181,-2.7604,-2.6934,-2.6413,-2.64,-2.64,-2.64,-2.64,-2.64,-2.64,-2.64,-2.64,-2.64,-2.64,-2.64,-2.64,-2.64,-2.64,-2.6386,-2.6253,-2.6106,-2.6023,-2.5769,-2.5398,-2.509,-2.4943,-2.473,-2.4449,-2.4289,-2.4142,-2.4008,-2.3848,-2.3781,-2.3839,-2.3487,-2.3423,-2.3354,-2.3354,-2.3354,-2.3354,-2.2863,-2.2505,-2.2408,-2.1911,-2.1401,-2.0945,-2.0869,-2.0427,-1.9632,-1.9404,-1.9007,-1.8491,-1.8355,-1.8025,-1.7416,-1.7214,-1.7047,-1.6671,-1.645,-1.6294,-1.6433,-1.6277,-1.6155,-1.6241,-1.5943,-1.5739,-1.5743,-1.5673,-1.5658,-1.565,-1.5497,-1.5472,-1.5391,-1.5066,-1.466,-1.4416,-1.4253,-1.3927,-1.352,-1.3318,-1.3099,-1.292,-1.2664,-1.2508,-1.2501,-1.2037,-1.1572,-1.1262,-1.0097,-0.8949,-0.8207,-0.739,-0.6414,-0.5596,-0.4841,-0.4222,-0.3753,-0.335,-0.3027,-0.2692,-0.1934,-0.143,-0.1262,-0.0589,0.0,0.0,0.0,0.0,0.0,0.0,0.0,-2.8417,-2.8234,-2.8234,-2.8154,-2.7993,-2.7468,-2.6934,-2.6413,-2.64,-2.64,-2.64,-2.64,-2.64,-2.64,-2.64,-2.64,-2.64,-2.64,-2.64,-2.64,-2.64,-2.64,-2.64,-2.64,-2.6266,-2.6144,-2.6063,-2.5718,-2.5317,-2.5211,-2.5024,-2.473,-2.4449,-2.4302,-2.4302,-2.4075,-2.3968,-2.3968,-2.3968,-2.3901,-2.3781,-2.3781,-2.3768,-2.3768,-2.3411,-2.3008,-2.2713,-2.2341,-2.1788,-2.0988,-2.0881,-2.0381,-1.9426,-1.9145,-1.8709,-1.8101,-1.7797,-1.7435,-1.6802,-1.6518,-1.6398,-1.6398,-1.6177,-1.604,-1.6048,-1.6082,-1.6082,-1.5968,-1.5729,-1.5593,-1.565,-1.5675,-1.5756,-1.5674,-1.5459,-1.5193,-1.5208,-1.4803,-1.4473,-1.4149,-1.3983,-1.3811,-1.3439,-1.3146,-1.2929,-1.2813,-1.2644,-1.2515,-1.2424,-1.2192,-1.1805,-1.134,-1.033,-0.9246,-0.8388,-0.7574,-0.6839,-0.5985,-0.5199,-0.4525,-0.4057,-0.3592,-0.3279,-0.2777,-0.1934,-0.143,-0.1262,-0.0589,0.0,0.0,0.0,0.0,0.0,0.0,0.0,-2.843,-2.8248,-2.8234,-2.7913,-2.7388,-2.7295,-2.6934,-2.6426,-2.64,-2.64,-2.64,-2.64,-2.64,-2.64,-2.64,-2.64,-2.64,-2.64,-2.64,-2.64,-2.64,-2.64,-2.64,-2.64,-2.6373,-2.6306,-2.6092,-2.5932,-2.5812,-2.5585,-2.5317,-2.5037,-2.4743,-2.4583,-2.4583,-2.4556,-2.4543,-2.4556,-2.4556,-2.4302,-2.3808,-2.3781,-2.3781,-2.3781,-2.3424,-2.3099,-2.298,-2.2629,-2.2019,-2.1193,-2.1078,-2.05,-1.9359,-1.886,-1.8491,-1.7949,-1.734,-1.6802,-1.6518,-1.6241,-1.6115,-1.6123,-1.5963,-1.5828,-1.5837,-1.5975,-1.5918,-1.5869,-1.5748,-1.5813,-1.5885,-1.5671,-1.5424,-1.5416,-1.5028,-1.4796,-1.4721,-1.439,-1.4149,-1.4149,-1.3735,-1.3403,-1.337,-1.3146,-1.2868,-1.2644,-1.2562,-1.2501,-1.2501,-1.2192,-1.196,-1.165,-1.0796,-0.9708,-0.8856,-0.7998,-0.726,-0.6453,-0.565,-0.49,-0.4292,-0.367,-0.3281,-0.2861,-0.1934,-0.1346,-0.1178,0.0,0.0,0.0,0.0,0.0,0.0,0.0,0.0,-2.8341,-2.8234,-2.8234,-2.7896,-2.7522,-2.7335,-2.7028,-2.664,-2.6453,-2.64,-2.64,-2.64,-2.64,-2.64,-2.64,-2.64,-2.64,-2.64,-2.64,-2.64,-2.64,-2.64,-2.64,-2.64,-2.64,-2.6386,-2.6266,-2.6119,-2.601,-2.5651,-2.5371,-2.5104,-2.4957,-2.481,-2.4649,-2.4636,-2.4636,-2.4636,-2.4636,-2.4516,-2.4315,-2.4275,-2.4275,-2.4275,-2.413,-2.3745,-2.326,-2.3052,-2.2447,-2.121,-2.1071,-2.0458,-1.8946,-1.8719,-1.8187,-1.735,-1.6617,-1.6251,-1.6182,-1.5981,-1.5899,-1.5899,-1.591,-1.5934,-1.5934,-1.6008,-1.5925,-1.5623,-1.5525,-1.5557,-1.562,-1.5216,-1.4961,-1.4961,-1.4638,-1.439,-1.4307,-1.3983,-1.3652,-1.3652,-1.3486,-1.3397,-1.3356,-1.3146,-1.2888,-1.2664,-1.2569,-1.2522,-1.2508,-1.2347,-1.2192,-1.1882,-1.1262,-1.0486,-0.963,-0.8618,-0.7776,-0.7039,-0.6184,-0.5299,-0.4752,-0.4078,-0.3616,-0.3197,-0.2103,-0.1346,-0.1346,0.0,0.0,0.0,0.0,0.0,0.0,0.0,0.0,-2.8234,-2.8234,-2.8234,-2.7976,-2.7682,-2.7468,-2.7175,-2.6827,-2.6587,-2.6466,-2.64,-2.64,-2.64,-2.64,-2.64,-2.64,-2.64,-2.64,-2.64,-2.64,-2.64,-2.64,-2.64,-2.64,-2.64,-2.64,-2.6386,-2.6279,-2.6052,-2.5772,-2.5518,-2.5331,-2.5237,-2.505,-2.4783,-2.4756,-2.4716,-2.4636,-2.4636,-2.4636,-2.4623,-2.4636,-2.4636,-2.4636,-2.4636,-2.4193,-2.3438,-2.3438,-2.2707,-2.1222,-2.1071,-2.0307,-1.8719,-1.8577,-1.8055,-1.6821,-1.6225,-1.5892,-1.5864,-1.5835,-1.5845,-1.5853,-1.5975,-1.5966,-1.5966,-1.5875,-1.5711,-1.5456,-1.5216,-1.5051,-1.5133,-1.4803,-1.4555,-1.4473,-1.4142,-1.3901,-1.3901,-1.3569,-1.3397,-1.3397,-1.3397,-1.3383,-1.3322,-1.3152,-1.2963,-1.282,-1.2705,-1.263,-1.263,-1.2637,-1.2559,-1.2233,-1.1848,-1.1185,-1.0197,-0.9241,-0.8384,-0.7562,-0.664,-0.6013,-0.5375,-0.456,-0.3866,-0.3197,-0.2103,-0.143,-0.1262,0.0,0.0,0.0,0.0,0.0,0.0,0.0,0.0,-2.8234,-2.8234,-2.8234,-2.7976,-2.7709,-2.7669,-2.7362,-2.6881,-2.6814,-2.6653,-2.6426,-2.6413,-2.64,-2.64,-2.64,-2.64,-2.64,-2.64,-2.64,-2.64,-2.64,-2.64,-2.64,-2.64,-2.64,-2.64,-2.6386,-2.6373,-2.6333,-2.6079,-2.5932,-2.597,-2.5625,-2.5344,-2.509,-2.5037,-2.4917,-2.469,-2.4649,-2.4636,-2.4636,-2.4636,-2.4636,-2.4636,-2.4636,-2.4193,-2.3525,-2.3438,-2.2694,-2.1146,-2.1071,-2.0307,-1.8795,-1.8567,-1.7894,-1.6683,-1.6249,-1.596,-1.5885,-1.591,-1.6016,-1.5942,-1.595,-1.5966,-1.5966,-1.5628,-1.5463,-1.5381,-1.4645,-1.4397,-1.4555,-1.4307,-1.4149,-1.4066,-1.3728,-1.3486,-1.348,-1.348,-1.3397,-1.3397,-1.3397,-1.3356,-1.322,-1.3173,-1.3091,-1.299,-1.2935,-1.2915,-1.2895,-1.2908,-1.2901,-1.2822,-1.2409,-1.1721,-1.0398,-0.9662,-0.8871,-0.8033,-0.7342,-0.6658,-0.5567,-0.4626,-0.4009,-0.3281,-0.2103,-0.143,-0.1178,0.0,0.0,0.0,0.0,0.0,0.0,0.0,0.0,-2.8234,-2.8234,-2.8234,-2.8154,-2.7963,-2.7776,-2.7575,-2.7375,-2.7188,-2.6934,-2.6694,-2.6667,-2.656,-2.64,-2.64,-2.64,-2.64,-2.64,-2.64,-2.64,-2.64,-2.64,-2.64,-2.64,-2.64,-2.64,-2.64,-2.64,-2.6386,-2.6279,-2.6132,-2.5972,-2.5852,-2.5651,-2.5384,-2.517,-2.5024,-2.4917,-2.4743,-2.4636,-2.4636,-2.4636,-2.4636,-2.4636,-2.4636,-2.4341,-2.3822,-2.3513,-2.293,-2.1885,-2.136,-2.0458,-1.9098,-1.7731,-1.6907,-1.6476,-1.6038,-1.5745,-1.5764,-1.5943,-1.5966,-1.5966,-1.5966,-1.5883,-1.5628,-1.5463,-1.5133,-1.4645,-1.4315,-1.4066,-1.3811,-1.3735,-1.3652,-1.3652,-1.348,-1.3397,-1.3397,-1.3397,-1.3397,-1.3397,-1.3397,-1.337,-1.3315,-1.3234,-1.3159,-1.3098,-1.3097,-1.3056,-1.2963,-1.2963,-1.2976,-1.2963,-1.2635,-1.2122,-1.1641,-1.0498,-0.9588,-0.8628,-0.7898,-0.7117,-0.6207,-0.506,-0.4365,-0.3616,-0.2439,-0.143,-0.1178,0.0,0.0,0.0,0.0,0.0,0.0,0.0,0.0,-2.8234,-2.8234,-2.8234,-2.8234,-2.8194,-2.7936,-2.7789,-2.7682,-2.7482,-2.7241,-2.7001,-2.6961,-2.6854,-2.6694,-2.6667,-2.668,-2.664,-2.6493,-2.64,-2.64,-2.64,-2.64,-2.64,-2.64,-2.64,-2.64,-2.64,-2.64,-2.64,-2.64,-2.6293,-2.6184,-2.6092,-2.5945,-2.5665,-2.5451,-2.5291,-2.509,-2.4877,-2.4743,-2.4663,-2.4636,-2.4636,-2.4636,-2.4636,-2.4414,-2.4044,-2.36,-2.2992,-2.2247,-2.151,-2.0458,-1.9012,-1.735,-1.6472,-1.6477,-1.5993,-1.5698,-1.5837,-1.5983,-1.5966,-1.5966,-1.5875,-1.5636,-1.5381,-1.5133,-1.4728,-1.4232,-1.3901,-1.3735,-1.348,-1.3397,-1.3397,-1.3397,-1.3397,-1.3397,-1.3397,-1.3397,-1.3397,-1.3397,-1.3397,-1.3397,-1.339,-1.3308,-1.3261,-1.3247,-1.3159,-1.3105,-1.3105,-1.3105,-1.3105,-1.3105,-1.2875,-1.2605,-1.2217,-1.1332,-1.0451,-0.9626,-0.8451,-0.7722,-0.6717,-0.5576,-0.4619,-0.3866,-0.2943,-0.185,-0.101,-0.0421,0.0,0.0,0.0,0.0,0.0,0.0,0.0,-2.8234,-2.8234,-2.8234,-2.8234,-2.8221,-2.8194,-2.7963,-2.7749,-2.7709,-2.7535,-2.7281,-2.7268,-2.7228,-2.7215,-2.7161,-2.7296,-2.7094,-2.6694,-2.6466,-2.644,-2.64,-2.64,-2.64,-2.64,-2.64,-2.64,-2.64,-2.64,-2.64,-2.64,-2.6373,-2.6373,-2.6346,-2.6213,-2.5959,-2.5892,-2.5638,-2.5251,-2.509,-2.493,-2.4676,-2.4649,-2.4636,-2.4636,-2.4636,-2.4414,-2.4044,-2.3661,-2.3067,-2.2334,-2.151,-2.0307,-1.8795,-1.7512,-1.6766,-1.6608,-1.6299,-1.6093,-1.5975,-1.595,-1.5966,-1.5875,-1.5628,-1.5381,-1.5133,-1.4645,-1.4149,-1.3983,-1.3735,-1.3397,-1.3397,-1.3397,-1.3397,-1.3397,-1.3397,-1.3397,-1.3397,-1.3397,-1.3397,-1.3397,-1.3397,-1.3397,-1.3397,-1.3383,-1.337,-1.3363,-1.3356,-1.3342,-1.3329,-1.3322,-1.3376,-1.337,-1.324,-1.3015,-1.2641,-1.2181,-1.137,-1.0508,-0.9327,-0.8233,-0.7177,-0.6004,-0.4865,-0.4036,-0.2691,-0.1598,-0.0926,0.0,0.0,0.0,0.0,0.0,0.0,0.0,0.0,-2.8337,-2.8234,-2.8234,-2.8234,-2.8234,-2.8234,-2.8167,-2.81,-2.8087,-2.7829,-2.7602,-2.7562,-2.7455,-2.7295,-2.735,-2.735,-2.7241,-2.7068,-2.6894,-2.6694,-2.6493,-2.64,-2.64,-2.64,-2.64,-2.64,-2.64,-2.64,-2.64,-2.64,-2.64,-2.64,-2.64,-2.6346,-2.6239,-2.6144,-2.5916,-2.5742,-2.5277,-2.5024,-2.4917,-2.4743,-2.4636,-2.4636,-2.4636,-2.4488,-2.4414,-2.3748,-2.329,-2.2992,-2.181,-2.0307,-1.8815,-1.7865,-1.7212,-1.6748,-1.6427,-1.6193,-1.5999,-1.5966,-1.5883,-1.5628,-1.5463,-1.5051,-1.4645,-1.4315,-1.3983,-1.3652,-1.348,-1.3397,-1.3397,-1.3397,-1.3397,-1.3397,-1.3397,-1.3397,-1.3397,-1.3397,-1.3397,-1.3397,-1.3397,-1.3397,-1.3397,-1.3397,-1.3397,-1.3397,-1.3397,-1.3397,-1.3397,-1.3397,-1.3397,-1.3397,-1.339,-1.3307,-1.2992,-1.2459,-1.1764,-1.0967,-0.9922,-0.8618,-0.7478,-0.6417,-0.5282,-0.3952,-0.2523,-0.1599,-0.0926,0.0,0.0,0.0,0.0,0.0,0.0,0.0,0.0,-2.8497,-2.831,-2.8274,-2.8234,-2.8234,-2.8234,-2.8234,-2.8234,-2.8234,-2.8043,-2.7883,-2.7856,-2.7762,-2.7698,-2.7589,-2.7589,-2.7658,-2.7495,-2.7321,-2.7094,-2.6707,-2.656,-2.6533,-2.6426,-2.64,-2.64,-2.64,-2.64,-2.64,-2.64,-2.64,-2.64,-2.64,-2.6386,-2.6386,-2.6213,-2.6157,-2.5996,-2.5598,-2.5358,-2.5211,-2.4957,-2.4796,-2.4783,-2.4703,-2.4636,-2.4562,-2.397,-2.3587,-2.3141,-2.1798,-2.0189,-1.8841,-1.8212,-1.7626,-1.6925,-1.6682,-1.6422,-1.6098,-1.5883,-1.5719,-1.5381,-1.5133,-1.4721,-1.4149,-1.3983,-1.3652,-1.3486,-1.3397,-1.3397,-1.3397,-1.3397,-1.3397,-1.3397,-1.3397,-1.3397,-1.3397,-1.3397,-1.3397,-1.3397,-1.3397,-1.3397,-1.3397,-1.3397,-1.3397,-1.3397,-1.3397,-1.3397,-1.3397,-1.3397,-1.3397,-1.3397,-1.3397,-1.3397,-1.3321,-1.281,-1.2146,-1.1357,-1.0418,-0.9087,-0.7841,-0.6693,-0.5547,-0.3868,-0.2439,-0.1682,0.0,0.0,0.0,0.0,0.0,0.0,0.0,0.0,0.0,-2.8617,-2.8564,-2.827,-2.8234,-2.8234,-2.8234,-2.8234,-2.8234,-2.8234,-2.8221,-2.8207,-2.8181,-2.8194,-2.8207,-2.8127,-2.8127,-2.8167,-2.7843,-2.7709,-2.7549,-2.7175,-2.6881,-2.676,-2.652,-2.64,-2.64,-2.64,-2.64,-2.64,-2.64,-2.64,-2.64,-2.64,-2.64,-2.6386,-2.6386,-2.6239,-2.6117,-2.6023,-2.5772,-2.5531,-2.5251,-2.5104,-2.509,-2.4836,-2.4703,-2.4629,-2.4145,-2.3661,-2.3141,-2.1499,-2.0092,-1.9137,-1.859,-1.8024,-1.7092,-1.6984,-1.661,-1.609,-1.5636,-1.5381,-1.5133,-1.4645,-1.4066,-1.3983,-1.3652,-1.348,-1.3397,-1.3397,-1.3397,-1.3397,-1.3397,-1.3397,-1.3397,-1.3397,-1.3397,-1.3397,-1.3397,-1.3397,-1.3397,-1.3397,-1.3397,-1.3397,-1.3397,-1.3397,-1.3397,-1.3397,-1.3397,-1.3397,-1.3397,-1.3397,-1.3397,-1.3397,-1.3397,-1.3321,-1.2733,-1.2069,-1.1647,-1.0627,-0.9207,-0.7865,-0.6627,-0.5547,-0.3868,-0.2355,-0.1682,0.0,0.0,0.0,0.0,0.0,0.0,0.0,0.0,0.0,-2.8804,-2.8577,-2.8355,-2.8234,-2.8234,-2.8234,-2.8234,-2.8234,-2.8234,-2.8234,-2.8234,-2.8234,-2.8234,-2.8234,-2.8234,-2.8234,-2.8194,-2.814,-2.803,-2.7963,-2.7655,-2.7201,-2.6841,-2.6533,-2.64,-2.64,-2.64,-2.64,-2.64,-2.64,-2.64,-2.64,-2.64,-2.64,-2.64,-2.64,-2.636,-2.6253,-2.613,-2.6023,-2.5825,-2.5545,-2.5398,-2.5371,-2.5117,-2.4983,-2.4869,-2.4074,-2.3228,-2.2471,-2.151,-2.0493,-1.9517,-1.9138,-1.8404,-1.728,-1.7124,-1.6802,-1.5859,-1.5463,-1.5133,-1.448,-1.4232,-1.3983,-1.3569,-1.348,-1.3397,-1.3397,-1.3397,-1.3397,-1.3397,-1.3397,-1.3397,-1.3397,-1.3397,-1.3397,-1.3397,-1.3397,-1.3397,-1.3397,-1.3397,-1.3397,-1.3397,-1.3397,-1.3397,-1.3397,-1.3397,-1.3397,-1.3397,-1.3397,-1.3397,-1.3397,-1.3397,-1.3397,-1.3231,-1.2567,-1.2069,-1.1819,-1.0732,-0.9142,-0.755,-0.6047,-0.4959,-0.3784,-0.2271,-0.1346,-0.1009,0.0,0.0,0.0,0.0,0.0,0.0,0.0,0.0,-2.8938,-2.8751,-2.8323,-2.8234,-2.8234,-2.8234,-2.8234,-2.8234,-2.8234,-2.8234,-2.8234,-2.8234,-2.8234,-2.8234,-2.8234,-2.8234,-2.8234,-2.8234,-2.8221,-2.8181,-2.7816,-2.7362,-2.6907,-2.6627,-2.6507,-2.64,-2.64,-2.64,-2.64,-2.64,-2.64,-2.64,-2.64,-2.64,-2.64,-2.64,-2.64,-2.636,-2.6213,-2.6132,-2.6119,-2.5852,-2.5718,-2.5638,-2.5424,-2.5264,-2.5162,-2.4337,-2.3367,-2.2452,-2.161,-2.0834,-2.0001,-1.944,-1.8586,-1.7251,-1.7138,-1.6616,-1.5628,-1.5216,-1.4803,-1.4232,-1.3983,-1.3652,-1.348,-1.3397,-1.3397,-1.3397,-1.3397,-1.3397,-1.3397,-1.3397,-1.3397,-1.3397,-1.3397,-1.3397,-1.3397,-1.3397,-1.3397,-1.3397,-1.3397,-1.3397,-1.3397,-1.3397,-1.3397,-1.3397,-1.3397,-1.3397,-1.3397,-1.3397,-1.3397,-1.3397,-1.3397,-1.3397,-1.3148,-1.2567,-1.1902,-1.1653,-1.0315,-0.8817,-0.7311,-0.5714,-0.4707,-0.3616,-0.2271,-0.1262,-0.1009,0.0,0.0,0.0,0.0,0.0,0.0,0.0,0.0,-2.9058,-2.8991,-2.843,-2.8261,-2.8234,-2.8234,-2.8234,-2.8234,-2.8234,-2.8234,-2.8234,-2.8234,-2.8234,-2.8234,-2.8234,-2.8234,-2.8234,-2.8234,-2.8234,-2.8154,-2.7869,-2.7495,-2.7054,-2.6841,-2.6667,-2.6493,-2.6426,-2.64,-2.64,-2.64,-2.64,-2.64,-2.64,-2.64,-2.64,-2.64,-2.64,-2.64,-2.6373,-2.6333,-2.6306,-2.6119,-2.6012,-2.5959,-2.5718,-2.5531,-2.5262,-2.4687,-2.3844,-2.2894,-2.1942,-2.1157,-2.0348,-1.9534,-1.8518,-1.7538,-1.6854,-1.6205,-1.5381,-1.4886,-1.4473,-1.3983,-1.3652,-1.3397,-1.3397,-1.3397,-1.3397,-1.3397,-1.3397,-1.3397,-1.3397,-1.3397,-1.3397,-1.3397,-1.3397,-1.3397,-1.3397,-1.3397,-1.3397,-1.3397,-1.3397,-1.3397,-1.3397,-1.3397,-1.3397,-1.3397,-1.3397,-1.3397,-1.3397,-1.3397,-1.3397,-1.3397,-1.3397,-1.3397,-1.3065,-1.265,-1.1986,-1.132,-0.9731,-0.8232,-0.6975,-0.5633,-0.4623,-0.3447,-0.2271,-0.1514,-0.1262,0.0,0.0,0.0,0.0,0.0,0.0,0.0,0.0,-2.9259,-2.9005,-2.8657,-2.8364,-2.8248,-2.8234,-2.8234,-2.8234,-2.8234,-2.8234,-2.8234,-2.8234,-2.8234,-2.8234,-2.8234,-2.8234,-2.8234,-2.8234,-2.8234,-2.8221,-2.8181,-2.7856,-2.7455,-2.7094,-2.6814,-2.6694,-2.6493,-2.64,-2.64,-2.6413,-2.64,-2.64,-2.64,-2.64,-2.64,-2.64,-2.64,-2.64,-2.64,-2.64,-2.64,-2.6333,-2.6266,-2.6239,-2.5999,-2.5758,-2.5405,-2.4739,-2.4277,-2.3875,-2.2638,-2.1436,-2.0708,-1.9644,-1.8537,-1.7465,-1.6624,-1.5793,-1.4961,-1.4473,-1.4066,-1.3652,-1.3486,-1.3397,-1.3397,-1.3397,-1.3397,-1.3397,-1.3397,-1.3397,-1.3397,-1.3397,-1.3397,-1.3397,-1.3397,-1.3397,-1.3397,-1.3397,-1.3397,-1.3397,-1.3397,-1.3397,-1.3397,-1.3397,-1.3397,-1.3397,-1.3397,-1.3397,-1.3397,-1.3397,-1.3397,-1.3397,-1.3397,-1.3397,-1.3148,-1.2567,-1.1653,-1.0904,-0.9397,-0.798,-0.6724,-0.5466,-0.4456,-0.3447,-0.2355,-0.185,-0.1346,0.0,0.0,0.0,0.0,0.0,0.0,0.0,0.0,-2.9312,-2.9018,-2.8724,-2.843,-2.8248,-2.8234,-2.8234,-2.8234,-2.8234,-2.8234,-2.8234,-2.8234,-2.8234,-2.8234,-2.8234,-2.8234,-2.8234,-2.8234,-2.8234,-2.8234,-2.8221,-2.8127,-2.7883,-2.7468,-2.7175,-2.7014,-2.6734,-2.66,-2.6573,-2.6466,-2.64,-2.64,-2.64,-2.64,-2.64,-2.64,-2.64,-2.64,-2.64,-2.64,-2.64,-2.64,-2.64,-2.6386,-2.6239,-2.6066,-2.5881,-2.5153,-2.4839,-2.4418,-2.3174,-2.1806,-2.0959,-1.9695,-1.8469,-1.7492,-1.6295,-1.5463,-1.4803,-1.4307,-1.3901,-1.3486,-1.3397,-1.3397,-1.3397,-1.3397,-1.3397,-1.3397,-1.3397,-1.3397,-1.3397,-1.3397,-1.3397,-1.3397,-1.3397,-1.3397,-1.3397,-1.3397,-1.3397,-1.3397,-1.3397,-1.3397,-1.3397,-1.3397,-1.3397,-1.3397,-1.3397,-1.3397,-1.3397,-1.3397,-1.3397,-1.3397,-1.3397,-1.3314,-1.3238,-1.2484,-1.132,-1.0398,-0.923,-0.798,-0.6895,-0.5633,-0.4372,-0.3447,-0.2523,-0.1766,0.0,0.0,0.0,0.0,0.0,0.0,0.0,0.0,0.0,-2.9312,-2.9018,-2.8724,-2.843,-2.8248,-2.8234,-2.8234,-2.8234,-2.8234,-2.8234,-2.8234,-2.8234,-2.8234,-2.8234,-2.8234,-2.8234,-2.8234,-2.8234,-2.8234,-2.8234,-2.8234,-2.8207,-2.8114,-2.7829,-2.7629,-2.7375,-2.7054,-2.6907,-2.6827,-2.6653,-2.66,-2.6493,-2.6466,-2.6453,-2.6413,-2.64,-2.64,-2.64,-2.64,-2.64,-2.64,-2.64,-2.64,-2.6386,-2.6373,-2.6346,-2.6148,-2.5595,-2.5171,-2.505,-2.3612,-2.2395,-2.1254,-1.9795,-1.8328,-1.7445,-1.6205,-1.5298,-1.4713,-1.4225,-1.3735,-1.3397,-1.3397,-1.3397,-1.3397,-1.3397,-1.3397,-1.3397,-1.3397,-1.3397,-1.3397,-1.3397,-1.3397,-1.3397,-1.3397,-1.3397,-1.3397,-1.3397,-1.3397,-1.3397,-1.3397,-1.3397,-1.3397,-1.3397,-1.3397,-1.3397,-1.3397,-1.3397,-1.3397,-1.3397,-1.3397,-1.3397,-1.3397,-1.2982,-1.2816,-1.2567,-1.1403,-1.0153,-0.9068,-0.8148,-0.7063,-0.5801,-0.4623,-0.37,-0.2859,-0.1934,-0.1093,0.0,0.0,0.0,0.0,0.0,0.0,0.0,0.0,-2.9312,-2.9018,-2.8724,-2.843,-2.8248,-2.8234,-2.8234,-2.8234,-2.8234,-2.8234,-2.8234,-2.8234,-2.8234,-2.8234,-2.8234,-2.8234,-2.8234,-2.8234,-2.8234,-2.8234,-2.8234,-2.8234,-2.8207,-2.8154,-2.8073,-2.7953,-2.7495,-2.7228,-2.7188,-2.7134,-2.6921,-2.6787,-2.6747,-2.6667,-2.648,-2.64,-2.6413,-2.64,-2.64,-2.64,-2.64,-2.64,-2.64,-2.64,-2.64,-2.64,-2.6307,-2.5911,-2.5514,-2.505,-2.3852,-2.2717,-2.1669,-2.013,-1.8745,-1.7437,-1.6122,-1.5216,-1.4713,-1.3976,-1.3562,-1.3397,-1.3397,-1.3397,-1.3397,-1.3397,-1.3397,-1.3397,-1.3397,-1.3397,-1.3397,-1.3397,-1.3397,-1.3397,-1.3397,-1.3397,-1.3397,-1.3397,-1.3397,-1.3397,-1.3397,-1.3397,-1.3397,-1.3397,-1.3397,-1.3397,-1.3397,-1.3397,-1.3397,-1.3397,-1.3397,-1.3397,-1.3397,-1.2899,-1.2401,-1.2152,-1.157,-1.0237,-0.9151,-0.8315,-0.7227,-0.605,-0.4959,-0.3952,-0.2775,-0.1682,-0.1009,-0.0505,0.0,0.0,0.0,0.0,0.0,0.0,0.0,-2.9312,-2.8931,-2.8724,-2.843,-2.8261,-2.8234,-2.8234,-2.8234,-2.8234,-2.8234,-2.8234,-2.8234,-2.8234,-2.8234,-2.8234,-2.8234,-2.8234,-2.8234,-2.8234,-2.8234,-2.8234,-2.8234,-2.8234,-2.8234,-2.8234,-2.8154,-2.7926,-2.7602,-2.7482,-2.7308,-2.7215,-2.7094,-2.7054,-2.6907,-2.668,-2.6627,-2.652,-2.6453,-2.64,-2.64,-2.64,-2.64,-2.64,-2.64,-2.64,-2.64,-2.6307,-2.599,-2.5594,-2.497,-2.3852,-2.2889,-2.175,-2.0536,-1.9072,-1.7764,-1.6287,-1.5216,-1.4631,-1.3894,-1.3397,-1.3397,-1.3397,-1.3397,-1.3397,-1.3397,-1.3397,-1.3397,-1.3397,-1.3397,-1.3397,-1.3397,-1.3397,-1.3397,-1.3397,-1.3397,-1.3397,-1.3397,-1.3397,-1.3397,-1.3397,-1.3397,-1.3397,-1.3397,-1.3397,-1.3397,-1.3397,-1.3397,-1.3397,-1.3397,-1.3397,-1.3397,-1.3397,-1.2982,-1.2484,-1.2152,-1.1653,-1.0404,-0.9318,-0.8483,-0.7311,-0.6134,-0.5127,-0.412,-0.2943,-0.1682,-0.1178,-0.0757,-0.0421,0.0,0.0,0.0,0.0,0.0,0.0,-2.9219,-2.8925,-2.8631,-2.8377,-2.8248,-2.8234,-2.8234,-2.8234,-2.8234,-2.8234,-2.8234,-2.8234,-2.8234,-2.8234,-2.8234,-2.8234,-2.8234,-2.8234,-2.8234,-2.8234,-2.8234,-2.8234,-2.8234,-2.8234,-2.8234,-2.8221,-2.8181,-2.81,-2.7802,-2.7615,-2.7455,-2.7362,-2.7348,-2.7201,-2.6974,-2.6921,-2.6734,-2.6573,-2.648,-2.6466,-2.6413,-2.64,-2.64,-2.64,-2.64,-2.64,-2.6386,-2.6149,-2.5673,-2.4958,-2.4,-2.2958,-2.1992,-2.0779,-1.9479,-1.8174,-1.6616,-1.5546,-1.4638,-1.4059,-1.3569,-1.3397,-1.3397,-1.3397,-1.3397,-1.3397,-1.3397,-1.3397,-1.3397,-1.3397,-1.3397,-1.3397,-1.3397,-1.3397,-1.3397,-1.3397,-1.3397,-1.3397,-1.3397,-1.3397,-1.3397,-1.3397,-1.3397,-1.3397,-1.3397,-1.3397,-1.3397,-1.3397,-1.3397,-1.3397,-1.3397,-1.3397,-1.3314,-1.3148,-1.2733,-1.2235,-1.1653,-1.057,-0.9569,-0.8738,-0.7394,-0.6134,-0.5127,-0.4204,-0.3111,-0.2018,-0.1515,-0.101,-0.0505,0.0,0.0,0.0,0.0,0.0,0.0,-2.8925,-2.8631,-2.8323,-2.8261,-2.8234,-2.8234,-2.8234,-2.8234,-2.8234,-2.8234,-2.8234,-2.8234,-2.8234,-2.8234,-2.8234,-2.8234,-2.8234,-2.8234,-2.8234,-2.8234,-2.8234,-2.8234,-2.8234,-2.8234,-2.8234,-2.8234,-2.8234,-2.8221,-2.803,-2.806,-2.7869,-2.7696,-2.7629,-2.7509,-2.7241,-2.7215,-2.7054,-2.6827,-2.6774,-2.6653,-2.6466,-2.6426,-2.6413,-2.64,-2.64,-2.64,-2.6386,-2.6228,-2.5832,-2.505,-2.4228,-2.3348,-2.2395,-2.086,-1.9713,-1.8573,-1.7346,-1.604,-1.4886,-1.4225,-1.3735,-1.3486,-1.3397,-1.3397,-1.3397,-1.3397,-1.3397,-1.3397,-1.3397,-1.3397,-1.3397,-1.3397,-1.3397,-1.3397,-1.3397,-1.3397,-1.3397,-1.3397,-1.3397,-1.3397,-1.3397,-1.3397,-1.3397,-1.3397,-1.3397,-1.3397,-1.3397,-1.3397,-1.3397,-1.3397,-1.3397,-1.3397,-1.3397,-1.3231,-1.2899,-1.2484,-1.1736,-1.0737,-0.982,-0.8905,-0.7562,-0.6218,-0.5127,-0.412,-0.3111,-0.2271,-0.1514,-0.101,-0.0505,0.0,0.0,0.0,0.0,0.0,0.0,-2.8724,-2.8577,-2.8355,-2.8234,-2.8234,-2.8234,-2.8234,-2.8234,-2.8234,-2.8234,-2.8234,-2.8234,-2.8234,-2.8234,-2.8234,-2.8234,-2.8234,-2.8234,-2.8234,-2.8234,-2.8234,-2.8234,-2.8234,-2.8234,-2.8234,-2.8234,-2.8234,-2.8234,-2.8234,-2.8221,-2.8056,-2.7976,-2.7923,-2.7802,-2.7535,-2.7509,-2.7335,-2.7161,-2.7054,-2.6921,-2.672,-2.6627,-2.656,-2.6413,-2.64,-2.64,-2.6386,-2.6149,-2.5753,-2.497,-2.408,-2.3119,-2.2153,-2.0779,-1.9561,-1.8328,-1.7264,-1.6114,-1.4886,-1.439,-1.3901,-1.3562,-1.3397,-1.3397,-1.3397,-1.3397,-1.3397,-1.3397,-1.3397,-1.3397,-1.3397,-1.3397,-1.3397,-1.3397,-1.3397,-1.3397,-1.3397,-1.3397,-1.3397,-1.3397,-1.3397,-1.3397,-1.3397,-1.3397,-1.3397,-1.3397,-1.3397,-1.3397,-1.3397,-1.3397,-1.3397,-1.3397,-1.3397,-1.3314,-1.2982,-1.2657,-1.1986,-1.107,-0.9986,-0.8901,-0.7646,-0.6385,-0.5211,-0.4204,-0.3279,-0.2355,-0.1514,-0.1093,-0.0757,0.0,0.0,0.0,0.0,0.0,0.0,-2.8564,-2.847,-2.8315,-2.8234,-2.8234,-2.8234,-2.8234,-2.8234,-2.8234,-2.8234,-2.8234,-2.8234,-2.8234,-2.8234,-2.8234,-2.8234,-2.8234,-2.8234,-2.8234,-2.8234,-2.8234,-2.8234,-2.8234,-2.8234,-2.8234,-2.8234,-2.8234,-2.8234,-2.8234,-2.8221,-2.8221,-2.8234,-2.8181,-2.8087,-2.7869,-2.7789,-2.7669,-2.7402,-2.7281,-2.7121,-2.6974,-2.6934,-2.676,-2.66,-2.6493,-2.6466,-2.632,-2.599,-2.5594,-2.497,-2.392,-2.2878,-2.1911,-2.0698,-1.9398,-1.8246,-1.7182,-1.6122,-1.5051,-1.4307,-1.3894,-1.3562,-1.3397,-1.3397,-1.3397,-1.3397,-1.3397,-1.3397,-1.3397,-1.3397,-1.3397,-1.3397,-1.3397,-1.3397,-1.3397,-1.3397,-1.3397,-1.3397,-1.3397,-1.3397,-1.3397,-1.3397,-1.3397,-1.3397,-1.3397,-1.3397,-1.3397,-1.3397,-1.3397,-1.3397,-1.3397,-1.3397,-1.3397,-1.3397,-1.3148,-1.274,-1.2069,-1.132,-1.0237,-0.9068,-0.7813,-0.6469,-0.5127,-0.4204,-0.3279,-0.2355,-0.1514,-0.1262,0.0,0.0,0.0,0.0,0.0,0.0,0.0,-2.843,-2.8261,-2.8234,-2.8234,-2.8234,-2.8234,-2.8234,-2.8234,-2.8234,-2.8234,-2.8234,-2.8234,-2.8234,-2.8234,-2.8234,-2.8234,-2.8234,-2.8234,-2.8234,-2.8234,-2.8234,-2.8234,-2.8234,-2.8234,-2.8234,-2.8234,-2.8234,-2.8234,-2.8234,-2.8234,-2.8234,-2.8234,-2.8234,-2.8207,-2.8167,-2.81,-2.7923,-2.7669,-2.7495,-2.7348,-2.7255,-2.7215,-2.7081,-2.6854,-2.6774,-2.668,-2.6413,-2.5951,-2.5448,-2.4903,-2.3772,-2.2636,-2.1669,-2.0536,-1.9235,-1.8083,-1.7018,-1.595,-1.4961,-1.4307,-1.3901,-1.3562,-1.3397,-1.3397,-1.3397,-1.3397,-1.3397,-1.3397,-1.3397,-1.3397,-1.3397,-1.3397,-1.3397,-1.3397,-1.3397,-1.3397,-1.3397,-1.3397,-1.3397,-1.3397,-1.3397,-1.3397,-1.3397,-1.3397,-1.3397,-1.3397,-1.3397,-1.3397,-1.3397,-1.3397,-1.3397,-1.3397,-1.3397,-1.3397,-1.3321,-1.2816,-1.2152,-1.1403,-1.0404,-0.9318,-0.8148,-0.6721,-0.5127,-0.4204,-0.3279,-0.2355,-0.1598,-0.1346,0.0,0.0,0.0,0.0,0.0,0.0,0.0,-2.8341,-2.8234,-2.8234,-2.8234,-2.8234,-2.8234,-2.8234,-2.8234,-2.8234,-2.8234,-2.8234,-2.8234,-2.8234,-2.8234,-2.8234,-2.8234,-2.8234,-2.8234,-2.8234,-2.8234,-2.8234,-2.8234,-2.8234,-2.8234,-2.8234,-2.8234,-2.8234,-2.8234,-2.8234,-2.8234,-2.8234,-2.8234,-2.8234,-2.8221,-2.8221,-2.8234,-2.814,-2.8087,-2.7926,-2.7736,-2.7549,-2.7522,-2.7388,-2.7121,-2.6782,-2.6543,-2.6226,-2.5545,-2.4962,-2.4221,-2.3383,-2.2326,-2.1265,-2.0211,-1.899,-1.7773,-1.6706,-1.5644,-1.4893,-1.4315,-1.3901,-1.348,-1.3397,-1.341,-1.3431,-1.341,-1.3403,-1.3397,-1.3417,-1.3437,-1.341,-1.3403,-1.3397,-1.3397,-1.341,-1.3431,-1.3431,-1.3451,-1.3431,-1.3451,-1.3417,-1.3397,-1.3397,-1.3397,-1.3397,-1.3397,-1.3397,-1.3397,-1.3397,-1.3397,-1.3397,-1.3397,-1.3397,-1.3397,-1.3314,-1.2733,-1.2152,-1.1403,-1.057,-0.9402,-0.8148,-0.6553,-0.5127,-0.4204,-0.3279,-0.2355,-0.1766,-0.143,0.0,0.0,0.0,0.0,0.0,0.0,0.0,-2.8234,-2.8234,-2.8234,-2.8234,-2.8234,-2.8234,-2.8234,-2.8234,-2.8234,-2.8234,-2.8234,-2.8234,-2.8234,-2.8234,-2.8234,-2.8234,-2.8234,-2.8234,-2.8234,-2.8234,-2.8234,-2.8234,-2.8234,-2.8234,-2.8234,-2.8234,-2.8234,-2.8234,-2.8234,-2.8234,-2.8234,-2.8234,-2.8234,-2.8234,-2.8234,-2.8234,-2.8234,-2.8234,-2.8207,-2.8154,-2.7843,-2.7662,-2.7446,-2.7126,-2.6757,-2.6423,-2.6066,-2.5489,-2.4783,-2.4069,-2.3167,-2.2059,-2.0881,-1.9713,-1.8664,-1.7463,-1.6254,-1.5285,-1.4795,-1.4213,-1.3825,-1.3559,-1.3559,-1.3553,-1.3532,-1.3526,-1.3573,-1.3559,-1.3553,-1.3526,-1.3519,-1.3566,-1.358,-1.3607,-1.36,-1.3607,-1.3573,-1.3566,-1.3526,-1.3498,-1.3458,-1.3403,-1.3403,-1.3403,-1.3403,-1.3403,-1.3397,-1.3397,-1.3397,-1.3397,-1.3397,-1.3397,-1.3397,-1.3397,-1.3314,-1.265,-1.2069,-1.1653,-1.0737,-0.9318,-0.7976,-0.6469,-0.5127,-0.4204,-0.3279,-0.2355,-0.1766,-0.1346,-0.0759,0.0,0.0,0.0,0.0,0.0,0.0,-2.8234,-2.8234,-2.8234,-2.8234,-2.8234,-2.8234,-2.8234,-2.8234,-2.8234,-2.8234,-2.8234,-2.8234,-2.8234,-2.8234,-2.8234,-2.8234,-2.8234,-2.8234,-2.8234,-2.8234,-2.8234,-2.8234,-2.8234,-2.8234,-2.8234,-2.8234,-2.8234,-2.8234,-2.8234,-2.8234,-2.8234,-2.8234,-2.8234,-2.8234,-2.8234,-2.8234,-2.8234,-2.8234,-2.8234,-2.8194,-2.8012,-2.7649,-2.7407,-2.7025,-2.6627,-2.6223,-2.5842,-2.5462,-2.4738,-2.3948,-2.3342,-2.2189,-2.0742,-1.9823,-1.8749,-1.7516,-1.6243,-1.5379,-1.489,-1.4049,-1.3773,-1.3749,-1.3729,-1.3749,-1.379,-1.3804,-1.3777,-1.3722,-1.3756,-1.3783,-1.3804,-1.3804,-1.3783,-1.377,-1.3756,-1.3743,-1.3702,-1.3682,-1.3641,-1.362,-1.3505,-1.3417,-1.341,-1.341,-1.341,-1.341,-1.3403,-1.3397,-1.3403,-1.3397,-1.3397,-1.3397,-1.3397,-1.3397,-1.3231,-1.2567,-1.1986,-1.1653,-1.0737,-0.9402,-0.8064,-0.6637,-0.5379,-0.4288,-0.3363,-0.2607,-0.1935,-0.1263,-0.068,0.0,0.0,0.0,0.0,0.0,0.0,-2.8234,-2.8234,-2.8234,-2.8234,-2.8234,-2.8234,-2.8234,-2.8234,-2.8234,-2.8234,-2.8234,-2.8234,-2.8234,-2.8234,-2.8234,-2.8234,-2.8234,-2.8234,-2.8234,-2.8234,-2.8234,-2.8234,-2.8234,-2.8234,-2.8234,-2.8234,-2.8234,-2.8234,-2.8234,-2.8234,-2.8234,-2.8234,-2.8234,-2.8234,-2.8234,-2.8234,-2.8234,-2.8234,-2.815,-2.8065,-2.7825,-2.7558,-2.7253,-2.6799,-2.6377,-2.6071,-2.5749,-2.532,-2.4686,-2.388,-2.3267,-2.2361,-2.0869,-1.9781,-1.8875,-1.764,-1.6317,-1.502,-1.4565,-1.4005,-1.3885,-1.3885,-1.3865,-1.3871,-1.3759,-1.3752,-1.3752,-1.3858,-1.3885,-1.3878,-1.3745,-1.3838,-1.3824,-1.3817,-1.381,-1.381,-1.379,-1.3698,-1.3685,-1.377,-1.3695,-1.3607,-1.3573,-1.3546,-1.3532,-1.3485,-1.3478,-1.3424,-1.3403,-1.3403,-1.3397,-1.3397,-1.3397,-1.3397,-1.3148,-1.2567,-1.2152,-1.1902,-1.0737,-0.9235,-0.7976,-0.6721,-0.5463,-0.4288,-0.3532,-0.2861,-0.1858,-0.102,-0.0518,0.0,0.0,0.0,0.0,0.0,0.0,-2.8234,-2.8234,-2.8234,-2.8234,-2.8234,-2.8234,-2.8234,-2.8234,-2.8234,-2.8234,-2.8234,-2.8234,-2.8234,-2.8234,-2.8234,-2.8234,-2.8234,-2.8234,-2.8234,-2.8234,-2.8234,-2.8234,-2.8234,-2.8234,-2.8234,-2.8234,-2.8234,-2.8234,-2.8234,-2.8234,-2.8234,-2.8234,-2.8234,-2.8234,-2.8234,-2.8234,-2.8234,-2.8136,-2.8065,-2.7812,-2.7474,-2.722,-2.6881,-2.6516,-2.6151,-2.575,-2.5555,-2.5132,-2.4638,-2.3767,-2.3173,-2.247,-2.1001,-1.9962,-1.9034,-1.7765,-1.6315,-1.511,-1.4618,-1.4223,-1.4089,-1.4041,-1.4,-1.4,-1.4,-1.4034,-1.4027,-1.4021,-1.3987,-1.3987,-1.3987,-1.398,-1.3973,-1.3973,-1.398,-1.3987,-1.398,-1.398,-1.3919,-1.3919,-1.3865,-1.379,-1.3729,-1.3709,-1.3682,-1.362,-1.3566,-1.3498,-1.3437,-1.3424,-1.341,-1.3397,-1.3397,-1.3397,-1.3148,-1.2567,-1.2235,-1.2069,-1.0737,-0.9151,-0.8064,-0.6888,-0.5631,-0.4372,-0.3617,-0.2784,-0.1614,0.0,0.0,0.0,0.0,0.0,0.0,0.0,0.0,-2.8194,-2.8207,-2.8221,-2.8207,-2.8234,-2.8234,-2.8234,-2.8234,-2.8234,-2.8234,-2.8234,-2.8234,-2.8234,-2.8234,-2.8234,-2.8234,-2.8234,-2.8234,-2.8234,-2.8234,-2.8234,-2.8234,-2.8234,-2.8234,-2.8234,-2.8234,-2.8234,-2.8234,-2.8234,-2.8234,-2.8234,-2.8234,-2.8234,-2.8234,-2.8234,-2.815,-2.8065,-2.7981,-2.7812,-2.7474,-2.7135,-2.6613,-2.6273,-2.6018,-2.5763,-2.5495,-2.5458,-2.5276,-2.4658,-2.4117,-2.3613,-2.2371,-2.1252,-2.0244,-1.9231,-1.7835,-1.6262,-1.5438,-1.4928,-1.4523,-1.4265,-1.4211,-1.4245,-1.4278,-1.4258,-1.4211,-1.4197,-1.4204,-1.4197,-1.4231,-1.4258,-1.4245,-1.4231,-1.4231,-1.4238,-1.4231,-1.4224,-1.4183,-1.4102,-1.4048,-1.3973,-1.3905,-1.3871,-1.3844,-1.3824,-1.3749,-1.3688,-1.3641,-1.3573,-1.3478,-1.3451,-1.3397,-1.3397,-1.3397,-1.3065,-1.2573,-1.2235,-1.2069,-1.057,-0.9068,-0.8064,-0.7056,-0.5714,-0.4542,-0.3705,-0.2707,-0.1539,0.0,0.0,0.0,0.0,0.0,0.0,0.0,0.0,-2.7642,-2.7816,-2.7829,-2.7949,-2.8207,-2.8221,-2.8234,-2.8234,-2.8234,-2.8234,-2.8234,-2.8234,-2.8234,-2.8234,-2.8234,-2.8234,-2.8234,-2.8234,-2.8234,-2.8234,-2.8234,-2.8234,-2.8234,-2.8234,-2.8234,-2.8234,-2.8234,-2.8234,-2.8234,-2.8234,-2.8234,-2.8234,-2.8234,-2.8234,-2.8065,-2.7897,-2.7812,-2.7643,-2.7487,-2.7135,-2.6711,-2.6273,-2.5933,-2.569,-2.5519,-2.5348,-2.5348,-2.5348,-2.485,-2.4143,-2.4035,-2.3027,-2.1302,-2.0594,-1.9645,-1.748,-1.6228,-1.5396,-1.4992,-1.4557,-1.4299,-1.4299,-1.4299,-1.4299,-1.4299,-1.4299,-1.4299,-1.4299,-1.4299,-1.4299,-1.4299,-1.4299,-1.4299,-1.4299,-1.4299,-1.4292,-1.4285,-1.4258,-1.419,-1.4177,-1.4095,-1.4061,-1.4027,-1.4007,-1.398,-1.3892,-1.3831,-1.379,-1.3715,-1.362,-1.3546,-1.3498,-1.3437,-1.3451,-1.3085,-1.2663,-1.2324,-1.1819,-1.0404,-0.9151,-0.8148,-0.7056,-0.5798,-0.4549,-0.3382,-0.2391,-0.1469,0.0,0.0,0.0,0.0,0.0,0.0,0.0,0.0,-2.7375,-2.7522,-2.7535,-2.7696,-2.7963,-2.8181,-2.8234,-2.8234,-2.8234,-2.8234,-2.8234,-2.8234,-2.8234,-2.8234,-2.8234,-2.8234,-2.8234,-2.8234,-2.8234,-2.8234,-2.8234,-2.8234,-2.8234,-2.8234,-2.8234,-2.8234,-2.8234,-2.8234,-2.8234,-2.8234,-2.8234,-2.8234,-2.8234,-2.8234,-2.8065,-2.7812,-2.7389,-2.722,-2.6965,-2.6613,-2.6273,-2.5933,-2.5604,-2.5433,-2.5433,-2.5348,-2.5348,-2.5348,-2.4921,-2.4235,-2.4149,-2.3279,-2.1638,-2.0598,-1.964,-1.7701,-1.6386,-1.5778,-1.5264,-1.4646,-1.4387,-1.4306,-1.4312,-1.4299,-1.4299,-1.4299,-1.4299,-1.4299,-1.4299,-1.4299,-1.4299,-1.4299,-1.4299,-1.4299,-1.4299,-1.4299,-1.4299,-1.4299,-1.4292,-1.4292,-1.4265,-1.4231,-1.4204,-1.4177,-1.4156,-1.4102,-1.4055,-1.4007,-1.3912,-1.379,-1.3715,-1.3661,-1.3573,-1.3512,-1.3144,-1.2791,-1.2355,-1.1766,-1.0404,-0.9235,-0.8315,-0.7154,-0.5819,-0.432,-0.2809,-0.2066,-0.1394,-0.0877,0.0,0.0,0.0,0.0,0.0,0.0,0.0,-2.7201,-2.7228,-2.7255,-2.7455,-2.7722,-2.7976,-2.8194,-2.8234,-2.8234,-2.8234,-2.8234,-2.8234,-2.8234,-2.8234,-2.8234,-2.8234,-2.8234,-2.8234,-2.8234,-2.8234,-2.8234,-2.8234,-2.8234,-2.8234,-2.8234,-2.8234,-2.8234,-2.8234,-2.8234,-2.8234,-2.8234,-2.8234,-2.8234,-2.815,-2.7981,-2.7558,-2.7135,-2.6711,-2.6358,-2.6018,-2.5933,-2.569,-2.5348,-2.5433,-2.5348,-2.5348,-2.5348,-2.5275,-2.5018,-2.4407,-2.3892,-2.3376,-2.1811,-2.025,-1.9126,-1.8103,-1.6712,-1.5941,-1.5432,-1.4832,-1.4476,-1.4373,-1.434,-1.4387,-1.4414,-1.4326,-1.4306,-1.4299,-1.4299,-1.4299,-1.4299,-1.4346,-1.4367,-1.4353,-1.434,-1.4326,-1.4306,-1.4299,-1.4299,-1.4299,-1.4292,-1.4265,-1.4265,-1.4231,-1.4224,-1.4251,-1.4238,-1.4183,-1.4109,-1.3973,-1.3878,-1.3817,-1.3715,-1.355,-1.3374,-1.3004,-1.2424,-1.1556,-1.0372,-0.93,-0.8327,-0.7134,-0.5845,-0.4353,-0.2927,-0.2085,-0.1492,-0.0884,0.0,0.0,0.0,0.0,0.0,0.0,0.0,-2.6734,-2.6947,-2.7175,-2.7442,-2.7696,-2.7776,-2.7936,-2.8221,-2.8234,-2.8221,-2.8234,-2.8234,-2.8234,-2.8234,-2.8234,-2.8234,-2.8234,-2.8234,-2.8234,-2.8234,-2.8234,-2.8234,-2.8234,-2.8234,-2.8234,-2.8234,-2.8234,-2.8234,-2.8234,-2.8234,-2.8234,-2.8234,-2.815,-2.8065,-2.7728,-2.7304,-2.6796,-2.6358,-2.5945,-2.569,-2.5604,-2.5519,-2.5348,-2.5348,-2.5348,-2.5348,-2.5348,-2.5348,-2.4835,-2.4321,-2.4149,-2.3117,-2.1562,-2.0085,-1.9126,-1.8278,-1.6904,-1.6062,-1.5652,-1.5075,-1.466,-1.4604,-1.4611,-1.4624,-1.4577,-1.4401,-1.4312,-1.4312,-1.4319,-1.4319,-1.434,-1.4401,-1.4441,-1.4421,-1.4401,-1.4367,-1.4333,-1.4326,-1.4319,-1.4306,-1.4306,-1.4306,-1.4306,-1.4299,-1.4299,-1.4292,-1.4292,-1.4265,-1.4251,-1.4156,-1.4021,-1.3946,-1.3851,-1.3698,-1.3514,-1.3134,-1.2549,-1.1713,-1.0705,-0.9526,-0.8342,-0.661,-0.4977,-0.4239,-0.3141,-0.2283,-0.1591,-0.1069,0.0,0.0,0.0,0.0,0.0,0.0,0.0,-2.648,-2.6667,-2.6947,-2.7161,-2.7321,-2.7455,-2.7669,-2.7909,-2.7949,-2.8016,-2.8221,-2.8234,-2.8234,-2.8234,-2.8234,-2.8234,-2.8234,-2.8234,-2.8234,-2.8234,-2.8234,-2.8234,-2.8234,-2.8234,-2.8234,-2.8234,-2.8234,-2.8234,-2.8234,-2.8234,-2.8234,-2.8234,-2.815,-2.7981,-2.7474,-2.705,-2.6528,-2.6103,-2.5604,-2.5433,-2.5348,-2.5348,-2.5348,-2.5348,-2.5446,-2.536,-2.5348,-2.5348,-2.4835,-2.4207,-2.3832,-2.2935,-2.1582,-2.0421,-1.9576,-1.8546,-1.7266,-1.6062,-1.5821,-1.5328,-1.476,-1.4767,-1.4746,-1.4713,-1.4699,-1.4557,-1.455,-1.455,-1.4543,-1.455,-1.455,-1.4597,-1.4604,-1.4584,-1.4584,-1.457,-1.4557,-1.455,-1.4496,-1.4421,-1.4401,-1.4367,-1.4353,-1.4299,-1.4299,-1.4299,-1.4299,-1.4299,-1.4299,-1.4299,-1.4177,-1.4082,-1.3994,-1.3946,-1.3846,-1.327,-1.2594,-1.1761,-1.0945,-0.9357,-0.7792,-0.5724,-0.4088,-0.3851,-0.3256,-0.2387,-0.1691,-0.1165,-0.0632,0.0,0.0,0.0,0.0,0.0,0.0,-2.64,-2.6426,-2.6667,-2.68,-2.6854,-2.7094,-2.7375,-2.7629,-2.7682,-2.7843,-2.814,-2.8194,-2.8221,-2.8234,-2.8234,-2.8234,-2.8234,-2.8234,-2.8234,-2.8234,-2.8234,-2.8234,-2.8234,-2.8234,-2.8234,-2.8234,-2.8234,-2.8234,-2.8234,-2.8234,-2.8234,-2.8234,-2.8065,-2.7981,-2.7474,-2.705,-2.6528,-2.6018,-2.5604,-2.5433,-2.5348,-2.536,-2.5384,-2.5482,-2.5494,-2.5494,-2.5432,-2.5371,-2.5027,-2.4246,-2.3523,-2.2613,-2.1706,-2.0721,-1.9885,-1.8754,-1.7278,-1.6401,-1.6059,-1.5364,-1.5011,-1.4821,-1.4794,-1.4794,-1.4794,-1.4794,-1.4787,-1.4774,-1.4774,-1.4726,-1.4733,-1.476,-1.476,-1.4726,-1.4733,-1.474,-1.4733,-1.4726,-1.4638,-1.4543,-1.4509,-1.4475,-1.4401,-1.4346,-1.4319,-1.4319,-1.4306,-1.4299,-1.4299,-1.4299,-1.4245,-1.4197,-1.4143,-1.4109,-1.4095,-1.3433,-1.2662,-1.1992,-1.1063,-0.9179,-0.7331,-0.5616,-0.4494,-0.4065,-0.3375,-0.2494,-0.1882,-0.1354,-0.0817,-0.0183,0.0,0.0,0.0,0.0,0.0,-2.64,-2.64,-2.6453,-2.66,-2.6814,-2.6881,-2.7081,-2.7362,-2.7602,-2.7749,-2.7856,-2.814,-2.8234,-2.8234,-2.8234,-2.8234,-2.8234,-2.8234,-2.8234,-2.8234,-2.8234,-2.8234,-2.8234,-2.8234,-2.8234,-2.8234,-2.8234,-2.8234,-2.8234,-2.8234,-2.8234,-2.8234,-2.8234,-2.7799,-2.7037,-2.6698,-2.6456,-2.586,-2.5519,-2.5446,-2.547,-2.5506,-2.5504,-2.5651,-2.5759,-2.5892,-2.6001,-2.6061,-2.546,-2.4604,-2.3466,-2.2611,-2.176,-2.0814,-1.9879,-1.8936,-1.7445,-1.6658,-1.6129,-1.5454,-1.5097,-1.5025,-1.5025,-1.5038,-1.5038,-1.5045,-1.5031,-1.5004,-1.4957,-1.4814,-1.4808,-1.4896,-1.4916,-1.4828,-1.4787,-1.4787,-1.4787,-1.4787,-1.4746,-1.4706,-1.4685,-1.4611,-1.4509,-1.4462,-1.4428,-1.4401,-1.434,-1.434,-1.4333,-1.4319,-1.4306,-1.4278,-1.4258,-1.4272,-1.4251,-1.3425,-1.2677,-1.2161,-1.118,-0.9202,-0.7438,-0.5967,-0.5005,-0.4281,-0.3484,-0.2509,-0.1984,-0.1363,-0.0824,0.0,0.0,0.0,0.0,0.0,0.0]}]]